[[{"header":{"parameterUnit":"m.s-1","parameterCategory":1,"la1":30.6,"la2":28.766,"lo1":-90.7593,"lo2":-88.6598,"dy":0.0162,"dx":0.0183,"nx":116,"ny":114,"refTime":"2023-03-15T00:00:00:Z","depth":0,"parameterNumber":2,"parameterNumberName":"U-component_of_WINDS"},"data":[0.0,0.0,0.0,0.0,0.0,0.0,0.0,0.0,0.0,0.0,0.0,0.0,0.0,0.0,0.0,0.0,0.0,0.0,0.0,0.0,0.0,0.0,0.0,0.0,0.0,0.0,0.0,0.0,0.0,0.0,0.0,0.0,0.0,0.0,0.0,0.0,0.0,0.0,0.0,0.0,0.0,0.0,0.0,0.0,0.0,0.0,0.0,0.0,0.0,0.0,0.0,0.0,0.0,0.0,0.0,0.0,0.0,0.0,0.0,0.0,0.0,0.0,0.0,0.0,0.0,0.0,0.0,0.0,0.0,0.0,0.0,0.0,0.0,0.0,0.0,0.0,0.0,0.0,0.0,0.0,0.0,0.0,0.0,0.0,0.0,0.0,0.0,0.0,0.0,0.0,0.0,0.0,0.0,0.0,0.0,0.0,0.0,0.0,0.0,0.0,0.0,0.0,0.0,0.0,0.0,0.0,0.0,0.0,0.0,0.0,0.0,0.0,0.0,0.0,0.0,0.0,0.0,0.0,0.0,0.0,0.0,0.0,0.0,0.0,0.0,0.0,0.0,0.0,0.0,0.0,0.0,0.0,0.0,0.0,0.0,0.0,0.0,0.0,0.0,0.0,0.0,0.0,0.0,0.0,0.0,0.0,0.0,0.0,0.0,0.0,0.0,0.0,0.0,0.0,0.0,0.0,0.0,0.0,0.0,0.0,0.0,0.0,0.0,0.0,0.0,0.0,0.0,0.0,0.0,0.0,0.0,0.0,0.0,0.0,0.0,0.0,0.0,0.0,0.0,0.0,0.0,0.0,0.0,0.0,0.0,0.0,0.0,0.0,0.0,0.0,0.0,0.0,0.0,0.0,0.0,0.0,0.0,0.0,0.0,0.0,0.0,0.0,0.0,0.0,0.0,0.0,0.0,0.0,0.0,0.0,0.0,0.0,0.0,0.0,0.0,0.0,0.0,0.0,0.0,0.0,0.0,0.0,0.0,0.0,0.0,0.0,0.0,0.0,0.0,0.0,0.0,0.0,0.0,0.0,0.0,0.0,0.0,0.0,0.0,0.0,0.0,0.0,0.0,0.0,0.0,0.0,0.0,0.0,0.0,0.0,0.0,0.0,0.0,0.0,0.0,0.0,0.0,0.0,0.0,0.0,0.0,0.0,0.0,0.0,0.0,0.0,0.0,0.0,0.0,0.0,0.0,0.0,0.0,0.0,0.0,0.0,0.0,0.0,0.0,0.0,0.0,0.0,0.0,0.0,0.0,0.0,0.0,0.0,0.0,0.0,0.0,0.0,0.0,0.0,0.0,0.0,0.0,0.0,0.0,0.0,0.0,0.0,0.0,0.0,0.0,0.0,0.0,0.0,0.0,0.0,0.0,0.0,0.0,0.0,0.0,0.0,0.0,0.0,0.0,0.0,0.0,0.0,0.0,0.0,0.0,0.0,0.0,0.0,0.0,0.0,0.0,0.0,0.0,0.0,0.0,0.0,0.0,0.0,0.0,0.0,0.0,0.0,0.0,0.0,0.0,0.0,0.0,0.0,0.0,0.0,0.0,0.0,0.0,0.0,0.0,0.0,0.0,0.0,0.0,0.0,0.0,0.0,0.0,0.0,0.0,0.0,0.0,0.0,0.0,0.0,0.0,0.0,0.0,0.0,0.0,0.0,0.0,0.0,0.0,0.0,0.0,0.0,0.0,0.0,0.0,0.0,0.0,0.0,0.0,0.0,0.0,0.0,0.0,0.0,0.0,0.0,0.0,0.0,0.0,0.0,0.0,0.0,0.0,0.0,0.0,0.0,0.0,0.0,0.0,0.0,0.0,0.0,0.0,0.0,0.0,0.0,0.0,0.0,0.0,0.0,0.0,0.0,0.0,0.0,0.0,0.0,0.0,0.0,0.0,0.0,0.0,0.0,0.0,0.0,0.0,0.0,0.0,0.0,0.0,0.0,0.0,0.0,0.0,0.0,0.0,0.0,0.0,0.0,0.0,0.0,0.0,0.0,0.0,0.0,0.0,0.0,0.0,0.0,0.0,0.0,0.0,0.0,0.0,0.0,0.0,0.0,0.0,0.0,0.0,0.0,0.0,0.0,0.0,0.0,0.0,0.0,0.0,0.0,0.0,0.0,0.0,0.0,0.0,0.0,0.0,0.0,0.0,0.0,0.0,0.0,0.0,0.0,0.0,0.0,0.0,0.0,0.0,0.0,0.0,0.0,0.0,0.0,0.0,0.0,0.0,0.0,0.0,0.0,0.0,0.0,0.0,0.0,0.0,0.0,0.0,0.0,0.0,0.0,0.0,0.0,0.0,0.0,0.0,0.0,0.0,0.0,0.0,0.0,0.0,0.0,0.0,0.0,0.0,0.0,0.0,0.0,0.0,0.0,0.0,0.0,0.0,0.0,0.0,0.0,0.0,0.0,0.0,0.0,0.0,0.0,0.0,0.0,0.0,0.0,0.0,0.0,0.0,0.0,0.0,0.0,0.0,0.0,0.0,0.0,0.0,0.0,0.0,0.0,0.0,0.0,0.0,0.0,0.0,0.0,0.0,0.0,0.0,0.0,0.0,0.0,0.0,0.0,0.0,0.0,0.0,0.0,0.0,0.0,0.0,0.0,0.0,0.0,0.0,0.0,0.0,0.0,0.0,0.0,0.0,0.0,0.0,0.0,0.0,0.0,0.0,0.0,0.0,0.0,0.0,0.0,0.0,0.0,0.0,0.0,0.0,0.0,0.0,0.0,0.0,0.0,0.0,0.0,0.0,0.0,0.0,0.0,0.0,0.0,0.0,0.0,0.0,0.0,0.0,0.0,0.0,0.0,0.0,0.0,0.0,0.0,0.0,0.0,0.0,0.0,0.0,0.0,0.0,0.0,0.0,0.0,0.0,0.0,0.0,0.0,0.0,0.0,0.0,0.0,0.0,0.0,0.0,0.0,0.0,0.0,0.0,0.0,0.0,0.0,0.0,0.0,0.0,0.0,0.0,0.0,0.0,0.0,0.0,0.0,0.0,0.0,0.0,0.0,0.0,0.0,0.0,0.0,0.0,0.0,0.0,0.0,0.0,0.0,0.0,0.0,0.0,0.0,0.0,0.0,0.0,0.0,0.0,0.0,0.0,0.0,0.0,0.0,0.0,0.0,0.0,0.0,0.0,0.0,0.0,0.0,0.0,0.0,0.0,0.0,0.0,0.0,0.0,0.0,0.0,0.0,0.0,0.0,0.0,0.0,0.0,0.0,0.0,0.0,0.0,0.0,0.0,0.0,0.0,0.0,0.0,0.0,0.0,0.0,0.0,0.0,0.0,0.0,0.0,0.0,0.0,0.0,0.0,0.0,0.0,0.0,0.0,0.0,0.0,0.0,0.0,0.0,0.0,0.0,0.0,0.0,0.0,0.0,0.0,0.0,0.0,0.0,0.0,0.0,0.0,0.0,0.0,0.0,0.0,0.0,0.0,0.0,0.0,0.0,0.0,0.0,0.0,0.0,0.0,0.0,0.0,0.0,0.0,0.0,0.0,0.0,0.0,0.0,0.0,0.0,0.0,0.0,0.0,0.0,0.0,0.0,0.0,0.0,0.0,0.0,0.0,0.0,0.0,0.0,0.0,0.0,0.0,0.0,0.0,0.0,0.0,0.0,0.0,0.0,0.0,0.0,0.0,0.0,0.0,0.0,0.0,0.0,0.0,0.0,0.0,0.0,0.0,0.0,0.0,0.0,0.0,0.0,0.0,0.0,0.0,0.0,0.0,0.0,0.0,0.0,0.0,0.0,0.0,0.0,0.0,0.0,0.0,0.0,0.0,0.0,0.0,0.0,0.0,0.0,0.0,0.0,0.0,0.0,0.0,0.0,0.0,0.0,0.0,0.0,0.0,0.0,0.0,0.0,0.0,0.0,0.0,0.0,0.0,0.0,0.0,0.0,0.0,0.0,0.0,0.0,0.0,0.0,0.0,0.0,0.0,0.0,0.0,0.0,0.0,0.0,0.0,0.0,0.0,0.0,0.0,0.0,0.0,0.0,0.0,0.0,0.0,0.0,0.0,0.0,0.0,0.0,0.0,0.0,0.0,0.0,0.0,0.0,0.0,0.0,0.0,0.0,0.0,0.0,0.0,0.0,0.0,0.0,0.0,0.0,0.0,0.0,0.0,0.0,0.0,0.0,0.0,0.0,0.0,0.0,0.0,0.0,0.0,0.0,0.0,0.0,0.0,0.0,0.0,0.0,0.0,0.0,0.0,0.0,0.0,0.0,0.0,0.0,0.0,0.0,0.0,0.0,0.0,0.0,0.0,0.0,0.0,0.0,0.0,0.0,0.0,0.0,0.0,0.0,0.0,0.0,0.0,0.0,0.0,0.0,0.0,0.0,0.0,0.0,0.0,0.0,0.0,0.0,0.0,0.0,0.0,0.0,0.0,0.0,0.0,0.0,0.0,0.0,0.0,0.0,0.0,0.0,0.0,0.0,0.0,0.0,0.0,0.0,0.0,0.0,0.0,0.0,0.0,0.0,0.0,0.0,0.0,0.0,0.0,0.0,0.0,0.0,0.0,0.0,0.0,0.0,0.0,0.0,0.0,0.0,0.0,0.0,0.0,0.0,0.0,0.0,0.0,0.0,0.0,0.0,0.0,0.0,0.0,0.0,0.0,0.0,0.0,0.0,0.0,0.0,0.0,0.0,0.0,0.0,0.0,0.0,0.0,0.0,0.0,0.0,0.0,0.0,0.0,0.0,0.0,0.0,0.0,0.0,0.0,0.0,0.0,0.0,0.0,0.0,0.0,0.0,0.0,0.0,0.0,0.0,0.0,0.0,0.0,0.0,0.0,0.0,0.0,0.0,0.0,0.0,0.0,0.0,0.0,0.0,0.0,0.0,0.0,0.0,0.0,0.0,0.0,0.0,0.0,0.0,0.0,0.0,0.0,0.0,0.0,0.0,0.0,0.0,0.0,0.0,0.0,0.0,0.0,0.0,0.0,0.0,0.0,0.0,0.0,0.0,0.0,0.0,0.0,0.0,0.0,0.0,0.0,0.0,0.0,0.0,0.0,0.0,0.0,0.0,0.0,0.0,0.0,0.0,0.0,0.0,0.0,0.0,0.0,0.0,0.0,0.0,0.0,0.0,0.0,0.0,0.0,0.0,0.0,0.0,0.0,0.0,0.0,0.0,0.0,0.0,0.0,0.0,0.0,0.0,0.0,0.0,0.0,0.0,0.0,0.0,0.0,0.0,0.0,0.0,0.0,0.0,0.0,0.0,0.0,0.0,0.0,0.0,0.0,0.0,0.0,0.0,0.0,0.0,0.0,0.0,0.0,0.0,0.0,0.0,0.0,0.0,0.0,0.0,0.0,0.0,0.0,0.0,0.0,0.0,0.0,0.0,0.0,0.0,0.0,0.0,0.0,0.0,0.0,0.0,0.0,0.0,0.0,0.0,0.0,0.0,0.0,0.0,0.0,0.0,0.0,0.0,0.0,0.0,0.0,0.0,0.0,0.0,0.0,0.0,0.0,0.0,0.0,0.0,0.0,0.0,0.0,0.0,0.0,0.0,0.0,0.0,0.0,0.0,0.0,0.0,0.0,0.0,0.0,0.0,0.0,0.0,0.0,0.0,0.0,0.0,0.0,0.0,0.0,0.0,0.0,0.0,0.0,0.0,0.0,0.0,0.0,0.0,0.0,0.0,0.0,0.0,0.0,0.0,0.0,0.0,0.0,0.0,0.0,0.0,0.0,0.0,0.0,0.0,0.0,0.0,0.0,0.0,0.0,0.0,0.0,0.0,0.0,0.0,0.0,0.0,0.0,0.0,0.0,0.0,0.0,0.0,0.0,0.0,0.0,0.0,0.0,0.0,0.0,0.0,0.0,0.0,0.0,0.0,0.0,0.0,0.0,0.0,0.0,0.0,0.0,0.0,0.0,0.0,0.0,0.0,0.0,0.0,0.0,0.0,0.0,0.0,0.0,0.0,0.0,0.0,0.0,0.0,0.0,0.0,0.0,0.0,0.0,0.0,0.0,0.0,0.0,0.0,0.0,0.0,0.0,0.0,0.0,0.0,0.0,0.0,0.0,0.0,0.0,0.0,0.0,0.0,0.0,0.0,0.0,0.0,0.0,0.0,0.0,0.0,5.5056,5.4414,0.0,0.0,0.0,0.0,0.0,0.0,0.0,0.0,0.0,0.0,0.0,0.0,0.0,0.0,0.0,0.0,0.0,0.0,0.0,0.0,0.0,0.0,0.0,0.0,0.0,0.0,0.0,0.0,0.0,0.0,0.0,0.0,0.0,0.0,0.0,0.0,0.0,0.0,4.0726,4.1224,4.1852,4.1523,4.1373,4.1403,0.0,0.0,0.0,0.0,0.0,0.0,0.0,0.0,0.0,0.0,0.0,0.0,0.0,0.0,0.0,0.0,0.0,0.0,0.0,0.0,0.0,0.0,0.0,0.0,0.0,0.0,0.0,0.0,0.0,0.0,0.0,0.0,0.0,0.0,0.0,0.0,0.0,0.0,0.0,0.0,0.0,0.0,0.0,0.0,0.0,0.0,0.0,0.0,0.0,0.0,0.0,0.0,0.0,0.0,0.0,0.0,0.0,0.0,0.0,0.0,0.0,0.0,0.0,0.0,0.0,0.0,0.0,0.0,0.0,0.0,5.6477,5.5462,0.0,0.0,0.0,0.0,0.0,0.0,0.0,0.0,0.0,0.0,0.0,0.0,0.0,0.0,0.0,0.0,0.0,0.0,0.0,0.0,0.0,0.0,0.0,0.0,3.7793,3.835,3.8512,3.8811,0.0,0.0,0.0,0.0,0.0,0.0,0.0,4.0247,4.0636,4.0756,4.1414,4.2062,4.272,4.272,4.2481,4.2062,4.1852,0.0,0.0,0.0,0.0,0.0,0.0,0.0,0.0,0.0,0.0,0.0,0.0,0.0,0.0,0.0,0.0,0.0,0.0,0.0,0.0,0.0,0.0,0.0,0.0,0.0,0.0,0.0,0.0,0.0,0.0,0.0,0.0,0.0,0.0,0.0,0.0,0.0,0.0,0.0,0.0,0.0,0.0,0.0,0.0,0.0,0.0,0.0,0.0,0.0,0.0,0.0,0.0,0.0,0.0,0.0,0.0,0.0,0.0,0.0,0.0,0.0,0.0,0.0,5.6594,5.7707,5.8886,5.8886,5.9317,5.9945,5.7525,5.6375,5.6274,5.6274,0.0,0.0,0.0,0.0,0.0,0.0,0.0,0.0,0.0,0.0,0.0,0.0,0.0,0.0,0.0,0.0,0.0,0.0,0.0,0.0,0.0,3.7853,3.8302,3.8409,3.8931,3.9302,3.9391,0.0,0.0,0.0,0.0,0.0,4.0277,4.0924,4.1553,4.2141,4.2761,4.3399,4.4047,4.4047,4.4317,4.4756,4.3579,4.307,4.31,0.0,0.0,0.0,0.0,0.0,0.0,0.0,0.0,0.0,0.0,0.0,0.0,0.0,0.0,0.0,0.0,0.0,0.0,0.0,0.0,0.0,0.0,0.0,0.0,0.0,0.0,0.0,0.0,0.0,0.0,0.0,0.0,0.0,0.0,0.0,0.0,0.0,0.0,0.0,0.0,0.0,4.9569,5.007,0.0,0.0,0.0,0.0,0.0,0.0,0.0,0.0,0.0,0.0,0.0,0.0,0.0,5.6175,5.7705,5.7878,5.7911,5.789,5.803,5.819,5.8388,5.8388,5.9025,6.008,5.9708,0.0,5.8573,5.8573,0.0,0.0,0.0,0.0,0.0,0.0,0.0,0.0,0.0,0.0,0.0,0.0,0.0,0.0,0.0,0.0,0.0,0.0,0.0,0.0,0.0,3.8571,3.8943,3.8943,3.9242,3.9391,3.9391,3.9391,0.0,0.0,0.0,4.0576,4.0954,4.1613,4.2451,4.3449,4.4107,4.4566,4.4855,4.4855,4.5005,4.5274,4.4706,4.4416,4.4436,4.4736,0.0,0.0,0.0,0.0,0.0,0.0,0.0,0.0,0.0,0.0,0.0,0.0,0.0,0.0,0.0,0.0,0.0,0.0,0.0,0.0,0.0,0.0,0.0,0.0,0.0,0.0,0.0,0.0,0.0,0.0,0.0,0.0,0.0,0.0,0.0,0.0,0.0,0.0,0.0,4.9943,5.0582,5.087,5.1901,5.2986,0.0,0.0,0.0,0.0,0.0,0.0,0.0,0.0,0.0,5.5591,5.5857,5.6133,5.6396,5.6991,5.7184,5.7035,5.7667,5.8194,5.8583,5.8583,5.8883,5.9348,5.9348,5.9184,5.8938,5.9415,5.9438,5.9133,0.0,0.0,0.0,0.0,5.9133,5.9133,0.0,0.0,0.0,0.0,0.0,0.0,0.0,0.0,0.0,0.0,0.0,0.0,3.8661,3.9092,3.9391,3.9391,3.9391,3.9481,3.9631,3.966,3.9978,4.0636,4.0816,4.1205,4.1863,4.272,4.3619,4.4556,4.5065,4.5394,4.5574,4.5574,4.5633,4.5813,4.5813,4.5603,4.5304,4.5484,4.5454,4.5304,0.0,0.0,0.0,0.0,0.0,0.0,0.0,0.0,0.0,0.0,0.0,0.0,0.0,0.0,0.0,0.0,0.0,0.0,0.0,0.0,0.0,0.0,0.0,0.0,0.0,0.0,0.0,0.0,0.0,0.0,0.0,0.0,0.0,0.0,0.0,0.0,0.0,5.0205,5.1023,5.1379,5.2017,5.2913,0.0,0.0,0.0,0.0,0.0,0.0,5.6069,5.6268,5.6207,5.5916,5.6104,5.5925,5.5457,5.6244,5.6486,5.6263,5.7113,5.7806,5.8337,5.8337,5.8519,5.879,5.879,5.879,5.8873,5.9842,6.0217,6.0256,6.0594,6.0689,6.0689,6.0689,6.0689,6.0689,0.0,0.0,0.0,0.0,0.0,0.0,0.0,0.0,0.0,0.0,0.0,3.9361,3.9361,3.9391,3.9391,3.9391,3.9391,3.966,4.0307,4.0337,4.0636,4.1313,4.1961,4.2571,4.319,4.4496,4.5185,4.5244,4.5274,4.5633,4.6241,4.6241,4.66,4.7189,4.7189,4.6501,4.5334,4.5971,4.5882,4.5364,4.5971,0.0,0.0,0.0,0.0,0.0,0.0,0.0,0.0,0.0,0.0,0.0,0.0,0.0,0.0,0.0,0.0,0.0,0.0,0.0,0.0,0.0,0.0,0.0,0.0,0.0,0.0,0.0,0.0,0.0,0.0,0.0,0.0,0.0,0.0,0.0,0.0,0.0,0.0,5.1063,5.2183,0.0,0.0,0.0,0.0,5.6389,5.6453,5.6002,5.5046,5.5597,5.5425,5.4354,5.493,5.5772,5.6867,5.6939,5.697,5.6953,5.7001,5.7048,5.711,5.711,5.7714,5.879,5.879,5.879,5.8902,6.0063,6.0571,6.0675,6.1836,6.2299,6.2299,6.2299,6.2299,6.2299,0.0,0.0,0.0,0.0,0.0,0.0,0.0,0.0,3.8542,3.899,3.9242,3.9391,3.9391,3.9391,3.9391,3.9391,3.978,4.0157,4.0397,4.0786,4.1343,4.2021,4.2641,4.3479,4.4556,4.5484,4.5942,4.5942,4.6381,4.6711,4.6929,4.6929,4.7309,4.7938,4.7938,4.793,4.784,4.7219,4.683,4.6621,4.686,4.68,0.0,0.0,0.0,0.0,0.0,0.0,0.0,0.0,0.0,0.0,0.0,0.0,0.0,0.0,0.0,0.0,0.0,0.0,0.0,0.0,0.0,0.0,0.0,0.0,0.0,0.0,0.0,0.0,0.0,0.0,0.0,0.0,0.0,0.0,0.0,0.0,0.0,5.2742,5.3053,0.0,5.4784,5.496,5.5024,5.5024,5.5422,5.5498,5.5122,5.534,5.5263,5.4875,5.5059,5.5431,5.5844,5.5844,5.5844,5.5844,5.5844,5.5844,5.5844,5.5844,5.609,5.6469,5.6469,5.6469,5.6566,5.7784,5.8713,5.9478,5.9924,6.0097,6.0097,6.0097,6.0097,6.0097,0.0,0.0,0.0,0.0,0.0,0.0,0.0,0.0,3.8901,3.9331,3.9391,3.9391,3.9391,3.9391,3.9481,3.972,4.0157,4.0576,4.1044,4.1683,4.2342,4.302,4.3868,4.4745,4.5633,4.6271,4.6629,4.6629,4.7309,4.7638,4.7638,4.7878,4.8229,4.8648,4.8648,4.8887,4.9217,4.8349,4.7967,4.7967,4.7967,4.7967,4.7967,0.0,0.0,0.0,0.0,0.0,0.0,0.0,0.0,0.0,0.0,0.0,0.0,0.0,0.0,0.0,0.0,0.0,0.0,0.0,0.0,0.0,0.0,0.0,0.0,0.0,0.0,0.0,0.0,0.0,0.0,0.0,0.0,0.0,0.0,5.1594,5.2406,5.3835,5.3712,5.3935,5.4911,5.472,5.4551,5.4551,5.494,5.5179,5.5179,5.5179,5.5179,5.5179,5.5179,5.5299,5.5564,5.5564,5.5653,5.5837,5.5837,5.5837,5.5837,5.5837,5.5837,5.5837,5.5837,5.5837,5.5914,5.6705,5.7504,5.8248,5.8664,5.879,5.879,5.879,5.879,5.8777,0.0,0.0,0.0,0.0,0.0,0.0,0.0,3.899,3.9391,3.9391,3.9391,3.9391,3.9391,3.9391,3.966,4.0337,4.0427,4.1014,4.2351,4.3,4.3638,4.4326,4.5613,4.63,4.633,4.698,4.7309,4.7339,4.7945,4.8252,4.8282,4.8888,4.9186,4.9262,4.9262,4.9314,4.9337,4.9337,4.9337,4.9337,4.9329,4.9277,4.9277,0.0,0.0,0.0,0.0,0.0,0.0,0.0,0.0,0.0,0.0,0.0,0.0,0.0,0.0,0.0,0.0,0.0,0.0,0.0,0.0,0.0,0.0,0.0,0.0,0.0,0.0,0.0,0.0,0.0,0.0,0.0,0.0,0.0,5.3228,5.3228,5.3498,5.4162,5.4251,5.4491,5.5119,5.5179,5.5179,5.5179,5.5179,5.5209,5.5209,5.5209,5.5239,5.5239,5.5239,5.5593,5.6222,5.6222,5.6521,5.7094,5.7094,5.7094,5.7094,5.7094,5.7094,5.7094,5.7094,5.7094,5.7094,5.7094,5.7094,5.7204,5.8334,5.8741,5.8741,5.8741,5.8741,5.8678,0.0,0.0,0.0,0.0,0.0,0.0,0.0,3.9272,3.9391,3.9391,3.9391,3.9391,3.9391,3.9391,3.966,4.0337,4.0846,4.1654,4.2951,4.3668,4.4536,4.5702,4.6091,4.654,4.6988,4.7219,4.7549,4.8027,4.7202,4.7038,4.7503,4.6652,4.7037,4.8505,4.8505,4.9292,5.069,5.069,5.069,5.0601,4.9666,4.9277,4.9277,0.0,0.0,0.0,0.0,0.0,0.0,0.0,0.0,0.0,0.0,0.0,0.0,0.0,0.0,0.0,0.0,0.0,0.0,0.0,0.0,0.0,0.0,0.0,0.0,0.0,0.0,0.0,0.0,0.0,0.0,0.0,5.3922,5.3922,5.3922,5.3922,5.4162,5.485,5.491,5.4999,5.5179,5.5179,5.5179,5.5179,5.5179,5.5388,5.5893,5.5923,5.6132,5.6555,5.6585,5.6645,5.6825,5.6825,5.6941,5.7094,5.7094,5.7094,5.7094,5.7094,5.7094,5.7094,5.7094,5.7094,5.7094,5.7094,5.7094,5.7142,5.7466,5.7561,5.7561,5.7561,5.7561,5.7542,0.0,0.0,0.0,0.0,0.0,0.0,0.0,3.9391,3.9391,3.9391,3.9391,3.9391,3.9391,3.966,4.0098,4.0756,4.1433,4.2361,4.3638,4.4596,4.5613,4.6659,4.6719,4.6899,4.7309,4.7578,4.7614,4.7426,4.7166,4.6933,4.672,4.6184,4.6565,4.7776,4.8657,4.9688,5.0825,5.1679,5.2037,5.1977,5.1223,5.0594,5.0115,5.0115,5.0115,5.0115,5.0115,4.9912,4.9673,4.9673,0.0,0.0,0.0,0.0,0.0,0.0,0.0,0.0,0.0,0.0,0.0,0.0,0.0,0.0,0.0,0.0,0.0,0.0,0.0,0.0,0.0,0.0,0.0,0.0,5.461,5.461,5.461,5.461,5.476,5.5149,5.5179,5.5179,5.5179,5.5179,5.5324,5.5623,5.5623,5.5923,5.6551,5.6581,5.6761,5.7094,5.7094,5.7244,5.7513,5.7812,5.8082,5.8351,5.865,5.877,5.877,5.877,5.877,5.877,5.877,5.877,5.877,5.877,5.877,5.865,0.0,0.0,0.0,0.0,5.7094,5.7124,0.0,0.0,0.0,0.0,0.0,0.0,0.0,3.9391,3.9391,3.9391,3.9391,3.9391,3.9391,4.0008,4.0666,4.1343,4.2081,4.308,4.4436,4.5576,4.6466,4.7054,4.6953,4.6917,4.6955,4.754,4.7304,4.619,4.7233,4.7112,4.5991,4.6491,4.6817,4.7052,4.8952,4.9874,5.0159,5.1944,5.2802,5.2954,5.2954,5.2341,5.1415,5.1415,5.1415,5.1415,5.1415,5.1026,5.0548,5.0548,0.0,0.0,0.0,0.0,0.0,0.0,0.0,0.0,0.0,0.0,0.0,0.0,0.0,0.0,0.0,0.0,0.0,0.0,0.0,0.0,0.0,0.0,0.0,0.0,5.5179,5.5179,5.5179,5.5294,5.5269,5.5209,5.5294,5.5299,5.5299,5.5359,5.5658,5.6252,5.6312,5.6581,5.7184,5.7214,0.0,0.0,0.0,5.7752,5.8414,5.9039,5.9608,6.0206,6.0835,6.1076,6.1076,6.1076,6.1076,6.1076,6.1076,6.1076,6.1076,6.1076,6.1136,6.0984,5.8501,5.7543,5.7543,5.7543,5.7543,5.7633,0.0,0.0,0.0,0.0,0.0,0.0,0.0,3.9391,3.9391,3.9391,3.9391,3.9391,3.9391,4.0008,4.0666,4.1343,4.2462,4.3908,4.5792,4.5705,4.5611,4.5756,4.4794,4.4434,4.4868,4.5004,4.542,4.6126,4.5314,4.4992,4.5209,4.4678,4.5046,4.6167,4.6999,4.8001,4.9097,4.9473,5.0342,5.1422,5.1422,5.1983,5.2785,5.2785,5.2785,5.2785,5.2785,5.2749,5.2606,5.2606,5.254,5.245,5.245,5.245,0.0,0.0,0.0,0.0,0.0,0.0,0.0,0.0,0.0,0.0,0.0,0.0,0.0,0.0,0.0,0.0,0.0,0.0,0.0,5.5179,5.5179,5.5179,5.5179,5.5683,5.5803,5.5239,5.5683,5.6013,5.6013,5.6462,5.6765,5.6915,5.6915,5.7214,5.7846,5.7905,5.8411,5.9515,5.9518,5.9847,6.0508,6.0627,6.0775,6.0924,6.1044,0.0,6.1076,6.1076,6.1076,6.1076,6.1076,6.1076,6.1076,6.1076,6.1433,6.1792,6.0745,6.0326,6.0326,6.0326,6.0326,6.0328,0.0,0.0,0.0,0.0,0.0,0.0,0.0,3.8943,3.8601,3.8601,3.8144,3.791,3.8218,3.8841,3.9494,4.0098,4.217,4.3741,4.4358,4.502,4.5115,4.4465,4.3834,4.3756,4.429,4.4618,4.4902,4.5088,4.4731,4.4487,4.4373,4.3979,4.4339,4.5302,4.661,4.7576,4.8324,4.9337,5.0611,5.1986,5.1986,5.2895,5.4127,5.3468,5.3198,5.3198,5.3198,5.3198,5.3198,5.3198,5.3198,5.3198,5.3198,5.3198,5.3198,0.0,0.0,0.0,0.0,0.0,0.0,0.0,0.0,0.0,0.0,0.0,0.0,0.0,0.0,5.5179,5.5179,0.0,5.5179,5.5179,5.5478,5.5713,5.5713,5.6252,5.6432,5.5773,5.6252,5.6671,5.6671,5.6915,5.7244,5.7573,5.7902,5.8381,5.9069,5.9401,5.9909,6.0565,6.0595,6.0775,6.1076,6.1762,6.2091,6.2121,6.275,6.305,6.305,6.305,6.305,6.305,6.305,6.305,6.305,6.305,6.3229,6.3528,6.317,6.266,6.2091,6.2091,6.2091,6.2091,0.0,0.0,0.0,0.0,0.0,0.0,0.0,3.8657,3.8032,3.7843,3.704,3.6678,3.7075,3.7682,3.8455,3.9345,4.1777,4.3075,4.273,4.3929,4.421,4.3194,4.2882,4.3063,4.3722,4.4232,4.4294,4.3884,4.4381,4.4327,4.379,4.3915,4.4267,4.4848,4.6636,4.7443,4.7529,4.9151,5.0713,5.216,5.2429,5.344,5.4675,5.3908,5.3588,5.3588,5.3588,5.3588,5.3588,5.3588,5.3588,5.3588,5.3588,5.3588,5.3588,5.3588,5.3952,0.0,0.0,0.0,0.0,0.0,0.0,0.0,0.0,5.5179,5.5179,5.5179,5.5179,5.5179,5.5179,5.5299,5.5388,5.5388,5.5953,5.6372,5.6372,5.6885,5.7094,5.6641,5.7004,5.7304,5.7304,5.7513,5.7902,5.8471,5.9129,5.9727,6.0266,6.0805,6.1196,6.1493,6.1493,6.1613,6.1854,6.2929,6.3468,6.3468,6.4515,6.4994,6.4994,6.4994,6.4994,6.4994,6.4994,6.4994,6.5024,6.5144,6.5203,6.5203,6.5323,6.4755,6.3826,6.3587,6.3468,6.3468,0.0,0.0,0.0,0.0,0.0,0.0,0.0,0.0,3.8889,3.7919,3.7682,3.7488,3.7156,3.7662,3.8904,4.1211,4.1706,4.2338,4.3338,4.2541,4.1961,4.1813,4.0718,4.0591,4.1631,4.1707,4.2211,4.3111,4.3187,4.3406,4.3815,4.4292,4.4844,4.5451,4.6128,4.647,4.647,4.67,4.7652,4.9108,5.0435,5.1889,5.3358,5.4514,5.497,5.497,5.497,5.497,5.497,5.497,5.497,5.497,5.497,5.497,5.497,5.497,5.5029,5.5089,5.5089,5.5119,5.5179,5.5179,5.5179,5.5179,0.0,5.5179,5.5179,5.5179,5.5179,5.5179,5.5179,5.5683,5.6102,5.6102,5.6611,5.7004,5.7004,5.7573,5.7965,5.7905,5.7935,5.7995,5.7995,5.9069,5.9815,5.9847,6.0505,6.0896,6.0956,6.1074,6.1642,6.2838,6.2898,6.3408,6.4545,6.4695,6.4785,6.4785,6.4934,6.4994,6.4994,6.4994,6.4994,6.4994,6.4994,6.4994,6.5054,6.5622,6.5892,6.5951,6.655,6.667,6.64,6.5233,6.4785,6.4785,0.0,0.0,0.0,0.0,0.0,0.0,0.0,0.0,0.0,3.7862,3.6758,3.6164,3.6596,3.6885,3.774,3.9385,4.0227,4.0826,4.1265,4.1493,4.1269,4.0542,3.9981,4.0199,4.1277,4.1302,4.1854,4.3014,4.3014,4.3413,4.4263,4.4489,4.5066,4.5974,4.62,4.6301,4.6361,4.7235,4.8445,4.9904,5.1427,5.2936,5.4355,5.4976,5.5179,5.5179,5.5179,5.5179,0.0,5.5179,5.5179,5.5179,5.5179,5.5179,5.5179,5.5179,5.5179,5.5179,5.5179,5.5179,5.5179,5.5179,5.5179,5.5179,5.5179,5.5179,5.5299,5.5713,5.5803,5.5893,5.6226,5.6526,5.6705,5.6705,5.7274,5.7693,5.7693,5.8261,5.883,5.9219,5.9249,5.9249,5.9249,6.0116,6.0685,6.0685,6.1313,6.1852,6.2241,6.26,6.3228,6.4186,6.4216,6.4456,6.4994,6.5383,6.5562,6.5562,6.5981,6.6161,6.6161,6.6161,6.6161,6.6161,6.6161,6.6161,6.6191,6.646,6.658,6.661,6.6879,6.6999,6.6939,6.637,6.6161,6.6161,0.0,0.0,0.0,0.0,0.0,0.0,0.0,0.0,0.0,0.0,3.6219,3.5281,3.5809,3.6162,3.6758,3.7688,3.8767,3.9549,3.9981,4.0691,4.0819,4.0236,3.9878,4.0199,4.1277,4.1302,4.1854,4.3014,4.3014,4.3539,4.4589,4.4589,4.5192,4.6301,4.6301,4.6301,4.6361,4.7446,4.8736,5.0212,5.1754,5.3253,5.4641,5.5053,5.5179,5.5179,5.5179,5.5179,5.5179,5.5179,5.5179,5.5179,5.5179,5.5179,5.5179,5.5179,5.5179,5.5179,5.5179,5.5179,5.5179,5.5179,5.5354,5.5504,5.5504,5.5598,5.5837,5.6342,5.6462,5.6581,5.7004,5.7244,5.7393,5.7393,5.7962,5.8384,5.8384,5.8949,5.9548,6.0054,6.0416,6.0625,6.0625,6.1104,6.1463,6.1642,6.2271,6.2899,6.3588,6.4036,6.4575,6.5233,6.5263,6.5353,6.5532,6.6041,6.6281,6.6281,6.6759,6.6999,6.6999,6.6999,6.6999,6.6999,6.6999,6.6999,6.6999,6.6999,6.6999,6.6999,6.6999,6.6999,6.6999,6.6999,6.6999,6.6999,0.0,0.0,0.0,0.0,0.0,0.0,0.0,0.0,0.0,0.0,0.0,0.0,0.0,3.5751,3.6607,3.7185,3.7737,3.8833,4.0647,4.0133,4.0287,4.1493,4.0364,4.0199,4.1277,4.1302,4.1854,4.3014,4.3014,4.3539,4.4589,4.4589,4.5192,4.6301,4.6301,4.6301,4.6301,4.6331,4.7235,4.8705,5.0184,5.17,5.3229,5.4667,5.5179,5.5179,5.5179,5.5179,5.5179,5.5179,5.5179,5.5179,5.5179,5.5179,5.5179,5.5179,5.5179,5.5179,5.5179,5.5179,5.5179,5.5179,5.5683,5.6162,5.6162,5.6641,5.7034,5.7064,5.7064,5.7064,5.7094,5.7633,5.8055,5.8055,5.865,5.9069,5.9069,5.9638,6.0084,6.0114,6.1253,6.2032,6.2032,6.2061,6.2331,6.2988,6.3588,6.4246,6.4904,6.4964,6.5263,6.5951,6.5981,6.6281,6.6939,6.6939,6.6969,6.6969,6.6969,6.6999,6.6999,6.6999,6.6999,6.6999,6.6999,6.6999,6.6999,6.6999,6.6999,6.6999,6.6999,6.6999,6.6999,6.6999,6.6999,6.6999,0.0,0.0,0.0,0.0,0.0,0.0,0.0,0.0,0.0,0.0,0.0,0.0,0.0,0.0,0.0,0.0,3.8441,3.9298,3.952,3.9651,3.9878,4.0313,3.9929,4.0199,4.1277,4.1302,4.1854,4.3014,4.3014,4.3363,4.4091,4.4414,4.5045,4.5773,4.615,4.6301,4.6361,4.7328,4.8592,5.0073,5.1618,5.3121,5.4509,5.5027,5.5179,5.5179,0.0,5.5179,5.5179,5.5179,5.5179,5.5179,5.5179,5.5179,5.5269,5.5743,5.5863,5.5863,5.5863,5.5863,5.5863,5.5863,5.6342,5.6821,5.6821,5.6944,5.7214,5.7693,5.7756,5.7902,5.8351,5.862,5.877,5.877,5.9338,5.9757,5.9757,6.0326,6.0924,6.1373,6.2211,6.2899,6.3318,6.3348,6.3438,6.3677,6.4306,6.4934,6.5652,6.5652,6.5981,6.664,6.667,6.6759,6.6999,6.6999,6.6999,6.6999,6.6999,6.6999,6.6999,6.6999,6.6999,6.6999,6.6999,6.6999,6.6999,6.6999,6.6999,6.6999,6.6999,6.6999,6.6999,6.6999,6.6999,6.6999,0.0,0.0,0.0,0.0,0.0,0.0,0.0,0.0,0.0,0.0,0.0,0.0,0.0,0.0,0.0,0.0,0.0,3.9194,3.9262,3.9525,3.9904,4.0364,3.9929,4.0199,4.1277,4.1302,4.1854,4.3014,4.3014,4.3263,4.3815,4.4166,4.4744,4.5497,4.5849,4.6125,4.6391,4.786,4.9051,5.0045,5.1564,5.3069,5.4406,5.4406,5.4743,0.0,5.5179,5.5179,5.5179,5.5179,5.5179,5.5179,5.5179,5.5359,5.5653,5.6072,5.6342,5.6462,5.6252,5.6372,5.6521,5.6521,5.6974,5.7453,5.7453,5.7633,5.7932,5.8354,5.8444,5.8653,5.9338,5.9249,5.9249,5.9757,5.9967,6.0176,6.0416,6.1044,6.1702,6.2361,6.3019,6.3647,6.4306,6.4575,6.4725,6.4725,6.5084,6.5622,6.6311,6.637,6.655,6.6969,6.6999,6.6999,6.6999,6.6999,6.6999,6.6999,6.6999,6.6999,6.6999,6.6999,6.7119,6.7389,6.7389,6.7478,6.7717,6.7717,6.7717,6.7717,6.7717,6.7717,6.7717,6.7717,6.7717,6.7657,0.0,0.0,0.0,0.0,0.0,0.0,0.0,0.0,0.0,0.0,0.0,0.0,0.0,0.0,0.0,0.0,0.0,0.0,3.9894,3.9849,4.0313,4.1541,4.0389,4.0199,4.1277,4.1302,4.1854,4.3014,4.3014,4.3237,4.3765,4.3815,4.4418,4.5447,4.5497,4.5824,4.6391,4.7772,4.8474,4.8707,5.0129,5.1672,5.3095,5.3095,5.399,5.5179,5.5179,5.5179,5.5179,5.5179,5.5179,5.5179,5.5179,5.5683,5.6222,5.6222,5.6671,5.6974,5.6432,5.6731,5.7154,5.7154,5.7663,5.8145,5.8145,5.865,5.9129,5.9159,5.9159,5.9368,6.0027,5.9638,5.9638,6.0894,6.0595,6.0416,6.1074,6.1762,6.2421,6.3078,6.3707,6.4366,6.4994,6.5652,6.6071,6.6071,6.6071,6.634,6.6969,6.6999,6.6999,6.6999,6.6999,6.6999,6.6999,6.6999,6.6999,6.6999,6.7029,6.7029,6.7029,6.7089,6.7449,6.8047,6.8047,6.8437,6.9004,6.9004,6.9004,6.9004,6.9004,6.9004,6.9004,6.9004,6.9004,6.8824,0.0,0.0,0.0,0.0,0.0,0.0,0.0,0.0,0.0,0.0,0.0,0.0,0.0,0.0,0.0,0.0,0.0,0.0,4.1242,4.068,4.075,4.1566,4.0389,4.0199,4.1277,4.1302,4.1854,4.3014,4.3014,4.309,4.3212,4.4041,4.4539,4.4895,4.5723,4.6175,4.6301,4.6695,4.8126,5.0157,5.0546,5.2266,5.4641,5.4641,5.487,5.5179,5.5179,5.5179,5.5179,5.5179,5.5179,5.5179,5.5179,5.5683,5.6282,5.6761,5.6974,5.7184,5.7513,5.7726,5.7846,5.7846,5.8324,5.886,5.886,5.8979,5.9249,5.9727,5.9847,6.0057,6.0715,6.0715,6.0715,6.1016,6.1373,6.1642,6.1822,6.281,6.3588,6.3737,6.4784,6.5562,6.5742,6.634,6.6759,6.6759,6.6759,6.6819,6.6969,6.6999,6.6999,6.6999,6.6999,6.6999,6.6999,6.6999,6.6999,6.6999,6.7508,6.7748,6.7778,6.8256,6.8585,6.8734,6.8734,6.8824,6.9004,6.9004,6.9004,6.9004,6.9004,6.9004,6.9004,6.9004,6.9004,6.8944,0.0,0.0,0.0,0.0,0.0,0.0,0.0,0.0,0.0,0.0,0.0,0.0,0.0,0.0,0.0,0.0,0.0,0.0,0.0,4.1517,4.1734,4.2396,4.1219,4.0927,4.1773,4.1471,4.1729,4.2637,4.2889,4.3014,4.3014,4.3614,4.4041,4.4292,4.492,4.5472,4.5979,4.6641,4.7626,0.0,0.0,5.1699,5.3306,5.399,5.4641,5.5179,5.5179,5.5179,5.5179,5.5179,5.5179,5.5239,5.5564,5.6102,5.6671,5.7004,5.7513,5.7992,5.8085,5.8294,5.8534,5.8534,5.883,5.9189,5.9458,5.9548,5.9727,6.0386,6.0535,6.0745,6.1433,6.1313,6.1313,6.1882,6.2061,6.2181,6.248,6.3378,6.4126,6.4425,6.5383,6.6131,6.64,6.6759,6.6999,6.6999,6.6999,6.6999,6.6999,6.6999,6.6999,6.6999,6.6999,6.6999,6.6999,6.7299,6.7449,6.7449,6.8137,6.8466,6.8435,6.8824,6.9153,6.9423,6.9423,6.9572,6.9842,6.9842,6.9842,6.9842,6.9842,6.9842,6.9842,6.9842,6.9842,6.9842,0.0,0.0,0.0,0.0,0.0,0.0,0.0,0.0,0.0,0.0,0.0,0.0,0.0,0.0,0.0,0.0,0.0,0.0,0.0,0.0,4.2944,4.3601,4.2493,4.2004,4.2411,4.1772,4.1641,4.2085,4.2637,4.2889,4.2889,4.3039,4.3338,4.379,4.3865,4.4468,4.549,4.6955,4.7265,4.7018,4.9767,5.1042,5.1427,0.0,5.4068,5.5179,5.5179,5.5179,5.5179,5.5179,5.5179,5.5299,5.5893,5.6492,5.7004,5.7064,5.7992,5.886,5.8354,5.8653,5.9099,5.9099,5.9099,5.9279,5.9937,6.0114,6.0296,6.1074,6.1225,6.1433,6.2121,6.1762,6.1762,6.2928,6.26,6.245,6.3138,6.3737,6.4395,6.5054,6.5712,6.637,6.6939,6.6999,6.6999,6.6999,6.6999,6.6999,6.6999,6.6999,6.6999,6.6999,6.7089,6.7119,6.7119,6.7808,6.8137,6.8137,6.8794,6.9123,6.9123,6.9213,6.9572,7.0111,7.0111,7.041,7.0889,7.0889,7.0889,7.0889,7.0889,7.0889,7.0889,7.0889,7.0889,7.0889,0.0,0.0,0.0,0.0,0.0,0.0,0.0,0.0,0.0,0.0,3.9511,4.0038,0.0,0.0,0.0,0.0,0.0,0.0,0.0,0.0,0.0,4.4224,4.3556,4.2912,4.2385,4.2262,4.1957,4.1453,4.206,4.2363,4.2336,4.3266,4.3714,4.3815,4.4238,4.4564,4.4856,4.6273,4.7798,4.9419,5.11,5.2842,5.4458,5.4718,0.0,0.0,5.5179,5.5179,5.5179,5.5179,5.5179,5.5209,5.5354,5.5833,5.6462,5.6944,5.7663,5.8354,5.883,5.9009,5.9099,5.9099,5.9099,5.9279,5.9937,6.0114,6.0446,6.1672,6.1942,6.2121,6.2808,6.2838,6.2838,6.3078,6.3018,6.3168,6.3767,6.4425,6.5084,6.5772,6.643,6.6879,6.6969,6.6999,6.6999,6.6999,6.6999,6.6999,6.6999,6.6999,6.6999,6.6999,6.7538,6.7838,6.7838,6.8495,6.8824,6.8824,6.9482,6.9844,6.9842,7.035,7.062,7.0739,7.0739,7.0799,7.0889,7.0889,7.0889,7.0889,7.0889,7.0889,7.0889,7.0889,7.0889,7.0889,0.0,0.0,0.0,0.0,0.0,0.0,0.0,3.9391,3.9391,3.9391,3.9391,3.978,4.0756,4.1194,0.0,0.0,0.0,0.0,0.0,0.0,0.0,4.5345,4.4486,4.3967,4.3966,4.3593,4.3197,4.2859,0.0,4.3546,4.3219,4.3733,4.3757,4.3444,4.4377,4.4995,4.5363,4.6754,4.811,4.9495,5.1294,5.2633,5.3678,0.0,0.0,0.0,5.5179,5.5179,5.5179,5.5179,5.5179,5.5179,5.5179,5.5893,5.6731,5.7004,5.7812,5.871,5.9009,5.9099,5.9099,5.9099,5.9099,5.9368,6.0386,6.0625,6.0984,6.2331,6.26,6.2718,6.3048,6.3108,6.3108,6.3108,6.3108,6.3317,6.3917,6.4575,6.5233,6.5922,6.658,6.6999,6.6999,6.6999,6.6999,6.6999,6.6999,6.6999,6.6999,6.6999,6.7148,6.7508,6.7838,6.8167,6.8495,6.9183,6.9512,6.9512,7.0141,7.047,7.047,7.0769,7.0889,7.0889,7.0889,7.0889,7.0889,7.0889,7.0889,7.0889,7.0889,7.0889,7.0889,7.0889,7.0889,7.0889,0.0,0.0,0.0,0.0,0.0,0.0,0.0,3.9391,3.9391,3.9391,3.9391,3.9601,4.0127,4.0905,4.1673,0.0,0.0,0.0,0.0,0.0,0.0,0.0,0.0,0.0,4.5187,0.0,0.0,4.4149,4.4655,0.0,0.0,0.0,0.0,0.0,4.4756,4.5582,4.6249,4.7603,4.8538,0.0,0.0,5.2223,5.2671,0.0,0.0,0.0,0.0,5.5179,5.5179,5.5179,5.5179,5.5209,5.5359,5.6166,5.7124,5.7274,5.8171,5.9099,5.9099,5.9099,5.9099,5.9099,5.9219,5.9638,6.0835,6.1196,6.1642,6.2868,6.3108,6.3108,6.3108,6.3108,6.3108,6.3108,6.3227,6.3527,6.4126,6.4785,6.5443,6.6131,6.667,6.6999,6.6999,6.6999,6.6999,6.6999,6.6999,6.6999,6.6999,6.6999,6.7298,6.7987,6.8137,6.8556,6.9213,6.9842,7.0171,7.0201,7.0679,7.0889,7.0889,7.0889,7.0889,7.0889,7.0889,7.0889,7.0889,7.0889,7.0889,7.0889,7.0889,7.0889,7.0889,7.0889,7.0889,7.0889,0.0,0.0,0.0,0.0,0.0,0.0,0.0,3.9391,3.9391,3.9391,3.9391,3.9421,3.9481,4.0636,4.1673,0.0,0.0,0.0,0.0,0.0,0.0,0.0,0.0,0.0,0.0,0.0,0.0,4.3586,4.4122,0.0,0.0,0.0,0.0,0.0,0.0,4.637,4.7074,4.8499,0.0,0.0,0.0,0.0,0.0,0.0,0.0,0.0,0.0,5.5179,5.5179,5.5179,5.5179,5.5299,5.5923,5.6581,5.7214,5.7816,5.8504,5.9099,5.9099,5.9099,5.9099,5.9099,5.9548,6.0206,6.0954,6.1583,6.2211,6.2958,6.3108,6.3108,6.3108,6.3108,6.3108,6.3108,6.3558,6.4156,6.4815,6.5503,6.6161,6.6819,6.6939,6.6999,6.6999,6.6999,6.6999,6.6999,6.6999,6.6999,6.6999,6.6999,6.7298,6.7987,6.8585,6.9213,6.9903,7.05,7.0829,7.0829,7.0889,7.0889,7.0889,7.0889,7.0889,7.0889,7.0889,7.0889,7.0889,7.0889,7.0889,7.0889,7.0889,7.0889,7.0889,7.0889,7.0889,7.0889,0.0,0.0,0.0,0.0,0.0,0.0,3.9391,3.9391,3.9391,3.9391,3.9391,3.9391,3.9391,4.0247,4.1074,0.0,0.0,0.0,0.0,0.0,0.0,0.0,0.0,0.0,0.0,0.0,4.5896,4.5779,4.6017,0.0,0.0,0.0,0.0,0.0,0.0,4.7133,4.7847,4.9217,0.0,0.0,0.0,0.0,0.0,0.0,0.0,0.0,0.0,0.0,5.5179,5.5179,5.5179,5.5359,5.6432,5.6885,5.7244,5.7905,5.8563,5.9099,5.9099,5.9099,5.9099,5.9099,5.9608,6.0266,6.0954,6.1613,6.2271,6.2958,6.3108,6.3108,6.3108,6.3108,6.3108,6.3108,6.3588,6.4246,6.4904,6.5562,6.6251,6.6909,6.6999,6.6999,6.6999,6.6999,6.6999,6.6999,6.6999,6.6999,6.6999,6.7358,6.7928,6.8555,6.9243,6.9901,7.053,7.0769,7.0889,7.0889,7.0889,7.0889,7.0889,7.0889,7.0889,7.0889,7.0889,7.0889,7.0889,7.0889,7.0889,7.0889,7.0889,7.0889,7.0889,7.0889,7.0889,7.0889,0.0,0.0,0.0,0.0,0.0,3.9791,3.9791,3.9571,3.9391,3.9391,3.9391,3.9391,3.9391,4.0008,4.0666,4.1343,4.2402,0.0,0.0,0.0,0.0,0.0,0.0,0.0,0.0,0.0,4.654,4.6988,4.7219,4.7029,0.0,0.0,4.635,4.6094,0.0,0.0,0.0,0.0,0.0,0.0,0.0,0.0,0.0,0.0,0.0,0.0,0.0,0.0,0.0,0.0,0.0,5.5418,5.6705,5.7094,5.7274,5.8141,5.874,5.9099,5.9099,5.9099,5.9099,5.9099,5.9757,6.0505,6.1014,6.1762,6.251,6.3018,6.3108,6.3108,6.3108,6.3108,6.3108,6.3108,6.3767,6.4485,6.4934,6.5772,6.646,6.6939,6.6999,6.6999,6.6999,6.6999,6.6999,6.6999,6.6999,6.7089,6.7299,6.7928,6.8495,6.9004,6.9632,7.029,7.0889,7.0889,7.0889,7.0889,7.0889,7.0889,7.0889,7.0889,7.0889,7.0889,7.0889,7.0889,7.0889,7.0889,7.0889,7.0889,7.0889,7.0889,7.0889,7.0889,7.0889,7.0889,0.0,0.0,0.0,0.0,0.0,0.0,4.069,3.9955,3.9391,3.9391,3.9391,3.9391,3.9391,4.0008,4.0666,4.1343,4.2021,0.0,0.0,0.0,0.0,0.0,0.0,0.0,0.0,0.0,4.63,4.63,4.6958,4.7309,4.7287,4.7287,4.7646,4.8274,0.0,0.0,0.0,0.0,0.0,0.0,0.0,0.0,5.3288,0.0,0.0,0.0,0.0,0.0,0.0,0.0,0.0,0.0,0.0,5.7094,5.7363,5.871,5.9099,5.9099,5.9099,5.9099,5.9099,5.9099,6.0116,6.1076,6.1076,6.2121,6.3108,6.3108,6.3108,6.3108,6.3108,6.3108,6.3108,6.3108,6.4156,6.4994,6.4994,6.6161,6.6969,6.6999,6.6999,6.6999,6.6999,6.6999,6.6999,6.6999,6.6999,6.7299,6.7958,6.8615,6.9004,6.9004,6.9632,7.029,7.0889,7.0889,7.0889,7.0889,7.0889,7.0889,7.0889,7.0889,7.0889,7.0889,7.0889,7.0889,7.0889,7.0889,7.0889,7.0889,7.0889,7.0889,7.0889,7.0889,7.0889,7.0889,0.0,0.0,0.0,0.0,0.0,0.0,0.0,4.0481,4.0078,3.9481,3.9391,3.9391,3.9391,3.9601,4.0008,4.0666,4.1733,0.0,0.0,0.0,0.0,0.0,0.0,0.0,0.0,0.0,0.0,0.0,4.651,4.6839,4.7309,4.7309,4.7429,4.7608,4.7608,4.7967,0.0,0.0,0.0,0.0,0.0,5.1917,5.2576,0.0,0.0,0.0,0.0,0.0,0.0,0.0,0.0,0.0,0.0,0.0,0.0,5.8145,5.874,5.9099,5.9099,5.9099,5.9219,5.9668,6.0446,6.1196,6.1672,6.245,6.3108,6.3108,6.3108,6.3108,6.3108,6.3108,6.3108,6.3108,6.4186,6.4994,6.4994,6.6161,6.6999,6.6999,6.6999,6.6999,6.6999,6.6999,6.6999,6.6999,6.6999,6.7299,6.7958,6.8615,6.9213,6.9662,7.029,7.0709,7.0889,7.0889,7.0889,7.0889,7.0889,7.0889,7.0889,7.0889,7.0889,7.0889,7.0889,7.0889,7.0889,7.0889,7.0889,7.0889,7.0889,7.0889,7.0889,7.0889,7.0889,7.0889,0.0,0.0,0.0,0.0,0.0,0.0,0.0,4.0927,4.0395,3.9517,3.9391,3.9391,3.9391,3.9391,3.966,4.0337,4.1403,0.0,0.0,0.0,0.0,0.0,0.0,0.0,0.0,0.0,0.0,0.0,0.0,0.0,4.695,4.7189,4.7309,4.7309,4.7309,4.7549,0.0,0.0,0.0,0.0,5.0936,5.1618,5.2276,0.0,0.0,0.0,0.0,0.0,0.0,0.0,0.0,0.0,0.0,0.0,0.0,0.0,5.8563,5.9099,5.9099,5.9099,5.9249,5.9907,6.0595,6.1283,6.1942,6.2629,6.3108,6.3108,6.3108,6.3108,6.3108,6.3108,6.3108,6.3108,6.4186,6.4994,6.4994,6.6161,6.6999,6.6999,6.6999,6.6999,6.6999,6.6999,6.6999,6.6999,6.6999,6.7388,6.8347,6.8764,6.9423,7.029,7.0709,7.0889,7.0889,7.0889,7.0889,7.0889,7.0889,7.0889,7.0889,7.0889,7.0889,7.0889,7.0889,7.0889,0.0,7.0889,7.0889,7.0889,7.0889,7.0889,7.0889,7.0889,7.0889,7.0889,0.0,0.0,0.0,0.0,0.0,0.0,0.0,4.1347,4.0499,3.9625,3.9427,3.9391,3.9391,3.9391,3.966,4.0277,0.0,0.0,0.0,0.0,0.0,0.0,0.0,0.0,0.0,0.0,0.0,4.4296,4.5553,4.6211,4.63,0.0,4.7249,4.7309,4.7309,4.7309,0.0,0.0,0.0,0.0,5.0877,5.1528,0.0,0.0,0.0,0.0,0.0,0.0,0.0,0.0,0.0,0.0,0.0,0.0,0.0,0.0,0.0,0.0,0.0,5.9099,5.9279,5.9967,6.0655,6.1313,6.2002,6.2659,0.0,6.3108,6.3108,6.3108,6.3108,6.3108,6.3108,6.3108,6.4186,6.4994,6.4994,6.6161,6.6999,6.6999,6.6877,6.6846,6.6999,6.6877,6.6846,6.6999,6.6999,6.7597,6.8944,6.9004,6.9572,7.0859,7.0889,7.0889,7.0889,7.0889,7.0889,7.0889,7.0889,7.0889,7.0889,7.0889,7.0889,7.0889,7.0889,7.0889,7.0889,7.0889,7.0889,7.0889,7.0889,7.0889,7.0889,7.0889,7.0889,7.0889,0.0,0.0,0.0,0.0,0.0,0.0,0.0,0.0,0.0,0.0,3.9826,3.9391,3.9391,3.9391,3.9451,0.0,0.0,0.0,0.0,0.0,0.0,0.0,0.0,0.0,0.0,0.0,0.0,4.4296,4.4625,4.5284,4.63,4.645,0.0,0.0,0.0,0.0,0.0,0.0,0.0,0.0,5.0189,5.0847,0.0,0.0,0.0,0.0,5.4785,5.5179,0.0,0.0,0.0,0.0,0.0,0.0,0.0,0.0,5.8171,0.0,5.9099,0.0,5.9398,6.0565,6.0956,6.1433,0.0,6.2988,6.3108,6.3108,6.3108,6.3108,6.3108,6.3108,6.3108,6.3108,6.4186,6.4994,6.4994,6.6161,6.6999,6.6999,6.5764,6.5482,6.6846,6.5733,6.5513,6.6877,6.6999,6.7597,6.8944,6.9004,6.9572,7.0859,7.0889,7.0889,7.0889,7.0889,7.0889,7.0889,7.0889,7.0889,7.0889,7.0889,7.0889,7.0889,7.0889,7.0889,7.0889,7.0889,7.0889,7.0889,7.0889,7.0889,7.0889,7.0889,7.0889,7.0889,0.0,0.0,0.0,0.0,0.0,0.0,0.0,0.0,0.0,0.0,0.0,0.0,0.0,0.0,0.0,0.0,0.0,0.0,0.0,0.0,0.0,0.0,0.0,0.0,0.0,4.329,0.0,0.0,0.0,4.4835,0.0,0.0,0.0,0.0,0.0,0.0,0.0,0.0,0.0,4.9337,4.9949,0.0,0.0,0.0,0.0,0.0,5.4725,5.5179,0.0,5.5179,5.5179,5.5179,0.0,0.0,0.0,0.0,5.8052,5.9099,5.9099,5.9099,5.9428,6.0775,6.1076,6.1463,6.278,6.3108,6.3108,6.3108,6.3108,6.3108,6.3108,6.3108,6.3197,6.3468,6.4366,6.5203,6.5832,6.655,6.6692,6.5858,6.4885,6.4694,6.567,6.4885,6.5073,6.6846,6.6999,6.7597,6.8944,6.9004,6.9572,7.0859,7.0889,7.0889,7.0889,7.0889,7.0889,7.0889,7.0889,7.0889,7.0889,7.0889,7.0889,7.0889,7.0889,7.0889,7.0889,7.0889,7.0889,7.0889,7.0889,7.0889,7.0889,7.0889,7.0337,6.9615,0.0,0.0,0.0,0.0,0.0,0.0,0.0,0.0,0.0,0.0,0.0,0.0,0.0,0.0,0.0,0.0,0.0,0.0,0.0,0.0,0.0,0.0,0.0,4.329,4.329,4.329,4.329,0.0,0.0,0.0,0.0,0.0,4.654,0.0,0.0,0.0,0.0,0.0,4.8678,4.9337,4.9949,0.0,0.0,0.0,0.0,0.0,0.0,0.0,0.0,5.5179,5.5179,5.5179,5.5179,0.0,0.0,0.0,0.0,0.0,5.9099,5.9099,5.9428,6.0775,6.1076,6.1463,6.278,6.3108,6.3108,6.3108,6.3108,6.3108,6.3108,6.3108,6.3317,6.3887,6.4398,6.5171,6.6421,6.6353,6.5608,6.4056,6.3639,6.3574,6.3862,6.3894,6.4535,6.6075,6.6415,6.7165,6.8504,6.8593,6.9317,7.0859,7.0889,7.0889,7.0889,7.0889,7.0889,7.0889,7.0889,7.0889,7.0889,7.0889,7.0889,7.0889,7.0889,7.0889,7.0889,7.0889,7.0889,7.0889,7.0889,7.0726,7.0468,7.0468,6.9286,6.7673,0.0,0.0,0.0,0.0,0.0,0.0,0.0,0.0,0.0,0.0,0.0,0.0,0.0,0.0,0.0,0.0,0.0,0.0,0.0,0.0,0.0,0.0,4.329,4.329,4.329,4.329,4.329,4.329,0.0,0.0,4.5304,4.5394,4.6112,4.7309,0.0,0.0,0.0,0.0,4.8678,4.9337,4.9949,0.0,0.0,0.0,0.0,0.0,0.0,0.0,0.0,5.5179,5.5179,5.5179,5.5179,0.0,0.0,0.0,0.0,0.0,5.9099,5.9099,5.9428,6.0775,6.1076,6.1463,6.278,6.3108,6.3108,6.3108,6.3108,6.3108,6.3108,6.3108,6.3317,6.3887,6.376,6.3823,6.4607,6.3411,6.233,6.2031,6.0648,6.0333,6.1864,6.1997,6.2131,6.2396,6.3862,6.5306,6.6643,6.6701,6.8001,7.0827,7.0889,7.0889,7.0889,7.0889,7.0889,7.0889,7.0889,7.0889,7.0889,7.0889,7.0889,7.0889,7.0889,7.0889,7.0889,7.0889,7.0889,7.0889,7.0889,6.9913,6.8519,6.8519,6.7301,6.5639,0.0,0.0,0.0,0.0,0.0,0.0,0.0,0.0,0.0,0.0,0.0,0.0,0.0,0.0,0.0,0.0,0.0,0.0,0.0,0.0,0.0,4.323,4.329,4.329,4.329,4.329,4.329,4.329,4.329,4.3997,4.5304,4.6052,4.6711,4.7309,0.0,0.0,0.0,0.0,4.8678,4.9337,0.0,0.0,0.0,0.0,0.0,0.0,0.0,0.0,0.0,0.0,5.5179,5.5179,5.5179,0.0,0.0,0.0,0.0,0.0,5.9099,5.9099,5.9338,6.0326,6.0835,6.1373,6.2331,6.2838,6.3108,6.3108,6.3108,6.2817,6.188,6.2468,6.3116,6.3084,6.2698,6.2483,6.2798,6.2097,6.1225,6.0264,5.9427,5.9218,6.0058,6.1022,6.1595,6.1595,6.328,6.489,6.6219,6.6277,6.7248,6.9324,6.9386,6.8889,6.7821,6.8856,6.988,7.0889,7.0889,7.0889,7.0886,6.9847,6.9386,6.932,6.8258,6.7821,6.7918,6.8956,6.8788,6.7918,6.899,6.8219,6.6405,6.5384,6.4454,6.3748,0.0,0.0,0.0,0.0,0.0,0.0,0.0,0.0,0.0,0.0,0.0,0.0,0.0,0.0,0.0,0.0,0.0,0.0,0.0,0.0,4.1953,4.323,4.329,4.329,4.329,4.329,4.329,4.329,4.3439,4.4207,4.5574,4.6741,4.7309,0.0,0.0,0.0,0.0,0.0,4.8917,4.9576,0.0,0.0,0.0,0.0,0.0,0.0,0.0,0.0,0.0,0.0,0.0,0.0,0.0,0.0,0.0,5.7094,5.8052,5.9099,5.9099,5.9099,5.9249,5.9907,6.0595,6.1283,6.1942,6.2629,6.3108,6.3108,6.3108,6.2672,6.1348,6.2086,6.2823,6.2592,6.1631,6.0954,6.0954,6.0579,5.9816,5.8437,5.826,5.826,5.826,5.992,6.0784,6.0367,6.1997,6.3588,6.4927,6.5416,6.6188,6.7376,6.7844,6.7163,6.5222,6.6684,6.8354,7.0239,7.0694,7.0661,7.0206,6.8755,6.7844,6.7335,6.5851,6.5186,6.532,6.6788,6.6545,6.5356,6.6823,6.6265,6.4319,6.2424,6.1808,6.1965,0.0,0.0,0.0,0.0,0.0,0.0,0.0,0.0,0.0,0.0,0.0,0.0,0.0,0.0,0.0,0.0,0.0,0.0,0.0,0.0,4.1953,4.323,4.329,4.329,4.329,4.329,4.329,4.329,4.3938,4.4895,4.6241,4.6958,4.7309,4.7309,0.0,0.0,0.0,0.0,4.9583,5.0189,5.0847,0.0,0.0,0.0,0.0,0.0,0.0,0.0,0.0,0.0,0.0,0.0,0.0,0.0,5.7094,5.7094,5.8052,5.9099,5.9099,5.9099,5.9249,5.9907,6.0595,6.1283,6.1942,6.2629,6.3108,6.3108,6.3108,6.3079,6.2933,6.2611,6.2558,6.3126,6.0914,5.9078,5.9078,5.7671,5.6558,5.6412,5.6376,5.6376,5.6376,5.8037,5.8401,5.6714,5.826,5.9827,6.1033,6.282,6.4312,6.5372,6.7163,6.7163,6.5222,6.5356,6.6377,6.8315,7.0075,7.0009,6.8315,6.818,6.7128,6.5391,6.5257,6.5186,6.5186,6.5328,6.5356,6.5186,6.5328,6.4246,6.2349,6.0431,6.0042,6.0457,0.0,0.0,0.0,0.0,0.0,0.0,0.0,0.0,0.0,0.0,0.0,0.0,0.0,0.0,0.0,0.0,0.0,0.0,0.0,0.0,4.2402,4.326,4.329,4.329,4.329,4.329,4.329,4.329,4.4386,4.5373,4.63,4.701,0.0,0.0,0.0,0.0,0.0,0.0,4.9643,5.0285,5.1385,5.1977,0.0,0.0,0.0,0.0,0.0,0.0,0.0,0.0,5.5179,5.5179,5.5179,5.6077,5.7094,5.7094,5.8052,5.9099,5.9099,5.9099,5.9249,5.9907,6.0595,6.1283,6.1942,6.2629,6.3108,6.3108,6.2233,6.1613,6.2022,5.9602,5.8429,6.116,5.9131,5.7231,5.7231,5.6605,5.6219,5.6219,5.6219,5.6219,5.6219,5.7824,5.8144,5.634,5.7859,5.9404,6.0638,6.1408,6.2301,6.3411,6.4165,6.3621,6.1678,6.2841,6.3803,6.4562,6.6447,6.6996,6.6265,6.5099,6.4129,6.3392,6.2174,6.1678,6.1752,6.2951,6.2767,6.1678,6.1678,6.1215,6.0558,6.0131,6.0136,6.0412,0.0,0.0,0.0,0.0,0.0,0.0,0.0,0.0,0.0,0.0,0.0,0.0,0.0,0.0,0.0,0.0,0.0,0.0,4.1643,4.2141,4.2661,4.326,4.329,4.329,4.329,4.3499,4.3638,4.3638,4.4954,4.5963,4.6629,0.0,0.0,0.0,4.7519,4.7967,4.8648,0.0,0.0,0.0,5.1828,5.2456,0.0,0.0,0.0,0.0,0.0,0.0,0.0,0.0,5.5179,5.5179,5.5179,5.6077,5.7094,5.7094,5.8052,5.9099,5.9099,5.9099,5.9308,6.0206,6.0352,6.0518,6.1405,6.2374,6.2933,6.238,6.1044,6.0171,6.0856,5.804,5.6616,5.9596,5.7884,5.6219,5.6219,5.6219,5.6219,5.6219,5.6219,5.6219,5.6219,5.7338,5.7528,5.6267,5.7349,5.8567,5.9747,6.0392,6.0917,6.1452,6.2078,6.1467,5.9521,6.0812,6.1478,6.1504,6.2804,6.3703,6.4246,6.2988,6.2078,6.1429,6.0074,5.9483,5.9599,6.0938,6.0698,5.9483,5.9483,5.9483,5.9558,6.0111,6.0437,6.0738,0.0,0.0,0.0,0.0,0.0,0.0,0.0,0.0,0.0,0.0,0.0,0.0,0.0,0.0,0.0,0.0,0.0,0.0,4.2321,4.241,4.269,4.326,4.329,4.329,4.329,4.3967,4.4296,4.4326,4.5642,4.6629,4.7309,4.7309,4.7309,0.0,4.7997,4.8678,4.9337,0.0,0.0,0.0,5.2217,5.3025,0.0,0.0,0.0,0.0,0.0,0.0,0.0,0.0,5.5179,5.5179,5.5209,5.6077,5.7094,5.7094,5.8052,5.9099,5.9099,5.9099,5.9428,6.0747,5.9796,5.8836,6.0162,6.1821,6.2584,6.084,5.958,5.8985,5.9657,5.8759,5.8104,5.8789,5.7385,5.6219,5.6219,5.6219,5.6219,5.6219,5.6219,5.6219,5.6219,5.6219,5.6219,5.6219,5.6219,5.6721,5.7851,5.9679,6.0319,5.9535,6.1354,6.1467,5.9521,5.9483,5.9483,5.9483,5.9483,6.0507,6.2376,6.2376,6.1316,5.9483,5.9483,5.9483,5.9483,5.9483,5.9483,5.9483,5.9483,5.9483,5.9558,6.0111,6.0688,6.1266,0.0,0.0,0.0,0.0,0.0,0.0,0.0,0.0,0.0,0.0,0.0,0.0,0.0,0.0,0.0,0.0,0.0,0.0,4.2351,4.2791,4.31,4.329,4.329,4.329,4.329,4.4416,4.5244,4.5702,4.6121,4.6629,4.7309,4.7309,4.7549,4.7997,0.0,4.8895,4.9979,0.0,0.0,0.0,5.3234,5.3862,0.0,0.0,0.0,0.0,0.0,0.0,0.0,0.0,0.0,0.0,5.5743,5.6462,5.7184,5.7693,5.8441,5.9099,5.9099,5.9099,5.9126,5.9244,5.8871,5.854,5.8699,6.0055,6.078,5.9073,5.7833,5.7244,5.7933,5.6999,5.6743,5.8613,5.7385,5.6219,5.6219,5.6219,5.6219,5.6219,5.6219,5.6219,5.6219,5.6219,5.6219,5.6219,5.6219,5.6721,5.7851,5.845,5.897,5.9496,6.0074,6.0074,5.9483,5.9483,5.9483,5.9483,5.9483,5.9792,6.038,6.038,6.0035,5.9483,5.9483,5.9483,5.9483,5.9483,5.9483,5.9483,5.9483,5.9734,6.0136,6.0713,6.1291,6.1843,0.0,0.0,0.0,0.0,0.0,0.0,0.0,0.0,0.0,0.0,4.1114,4.0485,0.0,0.0,0.0,0.0,0.0,0.0,0.0,4.31,4.329,4.329,4.329,4.3549,4.4087,4.5155,4.6052,4.6689,4.6689,4.6899,4.7309,4.7578,4.7908,4.8319,4.8835,4.962,5.0637,5.1295,5.2157,5.3084,5.3892,5.4371,5.464,0.0,0.0,0.0,0.0,0.0,0.0,0.0,0.0,0.0,5.5983,5.6611,5.7244,5.7905,5.8563,5.9099,5.9099,5.8634,5.8181,5.8436,5.7515,5.6639,5.6909,5.7755,5.817,5.7181,5.6272,5.5727,5.6133,5.5959,5.619,5.762,5.6931,5.6219,5.6219,5.6219,5.6219,5.6219,5.6219,5.6219,5.6219,5.6219,5.6219,5.6219,5.6219,5.6721,5.7851,5.7901,5.8378,5.9458,5.9483,5.9483,5.9483,5.9483,5.9483,5.9483,5.9483,5.9483,5.9483,5.9483,5.9483,5.9483,5.9483,5.9483,5.9483,5.9483,5.9483,5.9483,5.9483,5.9834,6.0387,6.0964,6.1542,6.2094,0.0,0.0,0.0,0.0,0.0,0.0,0.0,0.0,0.0,0.0,4.1788,4.0789,0.0,0.0,0.0,0.0,0.0,0.0,0.0,0.0,4.3319,4.3379,4.3439,4.4087,4.5364,4.5971,4.6629,4.7309,4.7309,4.7309,4.7309,4.7967,4.8349,4.8438,4.965,5.0607,5.1325,5.2007,5.3025,5.4221,5.4281,5.467,5.5179,5.5179,0.0,0.0,0.0,0.0,0.0,0.0,0.0,0.0,5.6072,5.6701,5.7334,5.7995,5.8623,5.9072,5.8936,5.7833,5.6996,5.7852,5.5775,5.383,5.4945,5.5181,5.5247,5.5353,5.4963,5.4597,5.4597,5.5465,5.6219,5.6219,5.6219,5.6219,5.6219,5.6219,5.6219,5.6219,5.6219,5.6219,5.6219,5.6219,5.6219,5.6219,5.6219,5.6721,5.7851,5.7901,5.8378,5.9458,5.9483,5.9483,5.9483,5.9483,5.9483,5.9483,5.9483,5.9483,5.9483,5.9483,5.9483,5.9483,5.9483,5.9483,5.9483,5.9483,5.9483,5.9483,5.9483,5.9859,6.0462,6.0989,6.1567,6.2144,0.0,0.0,0.0,0.0,0.0,0.0,0.0,0.0,0.0,0.0,0.0,0.0,0.0,0.0,0.0,0.0,0.0,0.0,0.0,0.0,4.3529,4.4057,4.4586,4.5274,4.6061,4.6241,4.6629,4.7309,4.7309,4.7309,4.7309,4.7967,4.8588,4.9127,4.986,5.0877,5.2037,5.2695,5.3443,5.4251,5.476,5.5059,5.5179,0.0,0.0,0.0,0.0,0.0,0.0,0.0,0.0,0.0,5.6705,5.7363,5.8022,5.871,5.9009,5.8798,5.7552,5.7309,5.6961,5.5127,5.3831,5.3123,5.3376,5.3427,5.381,5.5148,5.4963,5.4597,5.4597,5.5465,5.6219,5.6219,5.6219,5.6219,5.6219,5.6219,5.6219,5.6219,5.6219,5.6219,5.6219,5.6219,5.6219,5.6219,5.6219,5.6721,5.7851,5.7901,5.8378,5.9458,5.9483,5.9483,5.9483,5.9483,5.9483,5.9483,5.9483,5.9483,5.9483,5.9483,5.9483,5.9483,5.9483,5.9483,5.9483,5.9483,5.9483,5.9483,5.9483,6.0111,6.1014,6.114,6.1818,6.2631,0.0,0.0,0.0,0.0,0.0,0.0,0.0,0.0,0.0,0.0,0.0,0.0,0.0,0.0,0.0,0.0,0.0,0.0,0.0,0.0,0.0,4.4766,4.5424,4.5942,4.63,4.66,4.6929,4.7309,4.7608,4.7788,4.7788,4.8468,4.9127,4.9763,5.0727,5.1738,5.2725,5.3384,5.4072,5.47,5.5059,5.5179,0.0,0.0,0.0,0.0,0.0,0.0,0.0,0.0,0.0,0.0,0.0,0.0,5.8234,5.8919,5.9099,5.8743,5.7131,5.6564,5.5883,5.349,5.2894,5.2895,5.2895,5.2895,5.322,5.4329,5.4572,5.4597,5.4597,5.5465,5.6219,5.6219,5.6219,5.6219,5.6219,5.6219,5.6219,5.6219,5.6219,5.6219,5.6219,5.6219,5.6219,5.6219,5.6219,5.6721,5.7851,5.7901,5.8378,5.9458,5.9483,5.9483,5.9483,5.9483,5.9483,5.9483,5.9483,5.9483,5.9483,5.9483,5.9483,5.9483,5.9483,5.9483,5.9483,5.9483,5.9483,5.9483,5.9483,6.0186,6.119,6.119,6.1893,6.2781,0.0,0.0,0.0,0.0,0.0,0.0,0.0,0.0,0.0,0.0,0.0,0.0,0.0,0.0,0.0,0.0,0.0,0.0,0.0,0.0,0.0,0.0,4.6091,4.648,4.648,4.704,4.7309,4.7309,4.7967,4.8379,4.8498,4.9157,4.9793,5.0428,5.1648,5.2636,5.3408,5.3952,5.4581,5.5179,5.5179,5.5179,0.0,0.0,0.0,0.0,0.0,0.0,5.5474,5.6013,0.0,0.0,0.0,0.0,5.8384,5.8949,5.9099,5.8773,5.7276,5.6003,5.465,5.2697,5.2544,5.2895,5.2895,5.2895,5.3046,5.3607,5.4195,5.4622,5.4723,5.5541,5.6219,5.6219,5.6219,5.6219,5.6219,5.6219,5.6219,5.6219,5.6219,5.6219,5.6219,5.6219,5.6219,5.6219,5.6219,5.6721,5.7851,5.7901,5.8378,5.9458,5.9483,5.9483,5.9483,5.9483,5.9483,5.9483,5.9483,5.9483,5.9483,5.9483,5.9483,5.9483,5.9483,5.9483,5.9483,5.9483,5.9483,5.9483,5.9483,6.0186,6.119,6.119,6.1893,6.2781,0.0,0.0,0.0,0.0,0.0,0.0,0.0,0.0,0.0,0.0,4.2253,4.1853,0.0,0.0,0.0,0.0,0.0,0.0,0.0,0.0,0.0,4.6151,4.683,4.7189,4.7189,4.7249,4.7309,4.7309,4.7967,4.8588,4.9187,4.9793,5.0428,5.1086,5.1858,5.2905,5.4072,5.4162,5.4581,5.5179,5.5179,0.0,0.0,0.0,0.0,0.0,0.0,0.0,5.6072,5.6162,5.6915,0.0,0.0,0.0,5.8979,5.9069,5.9099,5.8862,5.7855,5.6174,5.4366,5.3105,5.2845,5.2895,5.2895,5.2895,5.3046,5.3607,5.4195,5.4748,5.5225,5.5792,5.6219,5.6219,5.6219,5.6219,5.6219,5.6219,5.6219,5.6219,5.6219,5.6219,5.6219,5.6219,5.6219,5.6219,5.6219,5.6721,5.7851,5.7901,5.8378,5.9458,5.9483,5.9483,5.9483,5.9483,5.9483,5.9483,5.9483,5.9483,5.9483,5.9483,5.9483,5.9483,5.9483,5.9483,5.9483,5.9483,5.9483,5.9483,5.9483,6.0186,6.119,6.119,6.1893,6.2781,0.0,0.0,0.0,0.0,0.0,0.0,0.0,0.0,0.0,0.0,0.0,4.272,0.0,0.0,0.0,0.0,0.0,0.0,0.0,0.0,0.0,4.6839,4.716,4.7309,4.7309,4.7668,4.7848,4.7848,4.8865,4.9523,4.9823,5.0817,5.1498,5.1828,5.2845,5.3653,5.4221,5.461,5.491,0.0,0.0,0.0,0.0,0.0,0.0,0.0,0.0,0.0,0.0,5.7124,5.7663,5.8175,5.8534,0.0,0.0,0.0,5.9099,5.876,5.7159,5.5722,5.4341,5.3198,5.2895,5.2895,5.2895,5.2895,5.3146,5.4009,5.4421,5.4773,5.529,5.5842,5.6219,5.6219,5.6219,5.6219,5.6219,5.6219,5.6219,5.6219,5.6219,5.6219,5.6219,5.6219,5.6219,5.6219,5.6219,5.6721,5.7851,5.7901,5.8378,5.9458,5.9483,5.9483,5.9483,5.9483,5.9483,5.9483,5.9483,5.9483,5.9483,5.9483,5.9483,5.9483,5.9483,5.9483,5.9483,5.9483,5.9483,5.9483,5.9483,6.0186,6.119,6.119,6.1893,6.2781,0.0,0.0,0.0,0.0,0.0,0.0,0.0,0.0,0.0,0.0,0.0,0.0,0.0,0.0,0.0,0.0,0.0,0.0,0.0,0.0,0.0,4.7279,4.7309,4.7369,4.7549,4.8027,4.8379,4.8558,4.965,5.0285,5.0465,5.1828,5.2546,5.2755,5.3773,5.4286,5.4491,5.497,5.5179,0.0,0.0,0.0,0.0,0.0,0.0,0.0,0.0,0.0,0.0,0.0,5.8205,5.8444,5.8949,5.9099,0.0,0.0,0.0,5.9151,5.72,5.6053,5.5152,5.3851,5.3213,5.2895,5.2895,5.2895,5.3231,5.4371,5.4597,5.4823,5.5465,5.5942,5.6219,5.6219,5.6219,5.6219,5.6219,5.6219,5.6219,5.6219,5.6219,5.6219,5.6219,5.6219,5.6219,5.6219,5.6219,5.6721,5.7851,5.7901,5.8378,5.9458,5.9483,5.9483,5.9483,5.9483,5.9483,5.9483,5.9483,5.9483,5.9483,5.9483,5.9483,5.9483,5.9483,5.9483,5.9483,5.9483,5.9483,5.9483,5.9483,6.0186,6.119,6.119,6.1893,6.2781,0.0,0.0,0.0,0.0,0.0,0.0,0.0,0.0,0.0,0.0,0.0,0.0,0.0,0.0,0.0,0.0,0.0,0.0,0.0,0.0,0.0,4.7309,4.7309,0.0,4.8207,4.8267,4.8618,4.9247,4.989,5.0548,5.1176,5.2516,5.3473,5.4102,5.4192,5.4551,5.5149,5.5179,5.5179,5.5179,0.0,0.0,0.0,0.0,0.0,0.0,0.0,0.0,0.0,0.0,0.0,5.9069,5.9099,5.9099,5.9099,0.0,0.0,0.0,5.8841,5.8086,5.741,5.5716,5.4089,5.2895,5.2895,5.2895,5.3231,5.4371,5.4597,5.4924,5.5968,5.6194,5.6219,5.6219,5.6219,5.6219,5.6219,5.6219,5.6219,5.6219,5.6219,5.6219,5.6219,5.6219,5.6219,5.6219,5.6219,5.6721,5.7851,5.7901,5.8378,5.9458,5.9483,5.9483,5.9483,5.9483,5.9483,5.9483,5.9483,5.9483,5.9483,5.9483,5.9483,5.9483,5.9483,5.9483,5.9483,5.9483,5.9483,5.9483,5.9483,6.0186,6.119,6.119,6.1893,6.2781,0.0,0.0,0.0,0.0,0.0,0.0,0.0,0.0,0.0,0.0,0.0,0.0,0.0,0.0,0.0,4.5882,0.0,0.0,0.0,0.0,0.0,4.8558,4.8588,4.8708,4.8947,4.9314,4.965,4.986,5.096,5.1594,5.1887,5.3204,5.3982,5.4221,5.464,5.497,5.5179,5.5179,5.5179,5.5179,5.5179,0.0,0.0,0.0,0.0,0.0,0.0,0.0,0.0,0.0,0.0,0.0,0.0,0.0,5.9189,5.9608,6.0386,6.0798,5.9509,5.9367,5.8949,5.6082,5.4949,5.4231,5.3145,5.2895,5.3231,5.4371,5.4597,5.4949,5.6018,5.6219,5.6219,5.6219,5.6219,5.6219,5.6219,5.6219,5.6219,5.6219,5.6219,5.6219,5.6219,5.6219,5.6219,5.6219,5.6219,5.6721,5.7851,5.7901,5.8378,5.9458,5.9483,5.9483,5.9483,5.9483,5.9483,5.9483,5.9483,5.9483,5.9483,5.9483,5.9483,5.9483,5.9483,5.9483,5.9483,5.9483,5.9483,5.9483,5.9483,6.0186,6.119,6.119,6.1893,6.2781,0.0,0.0,0.0,0.0,0.0,0.0,0.0,0.0,0.0,0.0,0.0,0.0,0.0,0.0,0.0,4.6869,4.7578,4.8147,4.8618,4.8648,4.8828,4.9299,4.9277,4.9396,4.9583,4.9793,5.0219,5.0877,5.1558,5.2217,5.2905,5.3803,5.4341,5.4551,5.4999,5.5179,5.5179,5.5179,5.5354,5.5564,5.5564,5.5923,5.6492,0.0,0.0,5.8085,5.8085,5.8504,5.9099,0.0,0.0,0.0,0.0,0.0,0.0,0.0,6.0565,6.0999,6.0501,6.0437,5.9812,5.6989,5.5847,5.4949,5.3256,5.2895,5.3181,5.4084,5.4471,5.4873,5.5767,5.6093,5.6219,5.6219,5.6219,5.6219,5.6219,5.6219,5.6219,5.6219,5.6219,5.6219,5.6219,5.6219,5.6219,5.6219,5.6219,5.662,5.7549,5.7801,5.8378,5.9458,5.9483,5.9483,5.9483,5.9483,5.9483,5.9483,5.9483,5.9483,5.9483,5.9483,5.9483,5.9483,5.9483,5.9483,5.9483,5.9483,5.9483,5.9483,5.9483,6.006,6.0914,6.1115,6.1768,6.2531,0.0,0.0,0.0,0.0,0.0,0.0,0.0,0.0,0.0,0.0,0.0,0.0,0.0,0.0,0.0,4.8229,4.8917,4.9307,4.9307,4.9359,4.9366,4.9366,0.0,0.0,5.0278,4.9703,5.0324,5.2217,5.1618,5.2282,5.4221,5.4221,5.4581,5.5179,5.5179,5.5209,5.5209,5.5209,5.5623,5.6192,5.6222,5.6555,5.7072,5.7072,5.7437,5.7981,5.7981,5.8426,5.8964,5.8964,0.0,0.0,0.0,0.0,0.0,0.0,0.0,6.1283,0.0,0.0,0.0,5.8446,5.6731,5.5015,5.3291,5.2895,5.3046,5.3607,5.4195,5.4773,5.529,5.5842,5.6219,5.6219,5.6219,5.6219,5.6219,5.6219,5.6219,5.6219,5.6219,5.6219,5.6219,5.6219,5.6219,5.6219,5.6219,5.6408,5.696,5.76,5.8403,5.9458,5.9483,5.9483,5.9483,5.9483,5.9483,5.9483,5.9483,5.9483,5.9483,5.9483,5.9483,5.9483,5.9483,5.9483,5.9483,5.9483,5.9483,5.9483,5.9483,5.9834,6.0387,6.0964,6.1542,6.2094,0.0,0.0,0.0,0.0,0.0,0.0,0.0,0.0,0.0,0.0,0.0,0.0,0.0,0.0,0.0,4.8977,4.9187,4.9486,4.992,5.0421,5.09,5.1379,5.1851,5.2211,5.2366,5.2211,5.239,5.2929,5.3234,5.3628,5.4221,5.47,5.5029,5.5179,5.5179,5.5448,5.5923,5.5923,5.6042,5.6222,5.6671,5.6551,5.6163,5.6163,5.5845,5.5421,5.5421,5.5534,5.5704,0.0,5.6451,5.7552,0.0,0.0,0.0,0.0,0.0,0.0,6.2659,0.0,0.0,0.0,0.0,0.0,5.3563,5.2895,5.3046,5.3607,5.4195,5.4773,5.529,5.5842,5.6219,5.6219,5.6219,5.6219,5.6219,5.6219,5.6219,5.6219,5.6219,5.6219,5.6219,5.6219,5.6219,5.6219,5.6219,5.6408,5.696,5.7939,5.8805,5.9483,5.9483,5.9483,5.9483,5.9483,5.9483,5.9483,5.9483,5.9483,5.9483,5.9483,5.9483,5.9483,5.9483,5.9483,5.9483,5.9483,5.9483,5.9483,5.9483,5.9834,6.0387,6.0964,6.1542,6.2094,0.0,0.0,0.0,0.0,0.0,0.0,0.0,0.0,0.0,0.0,0.0,0.0,0.0,0.0,0.0,0.0,5.0594,5.1073,5.1415,5.1828,5.2217,5.2606,5.2989,5.3198,5.3198,5.2929,5.3054,5.3623,5.3713,5.4072,5.464,5.4999,5.5179,5.5209,5.5504,5.5833,5.6222,5.6765,5.6974,5.6952,5.6643,5.6386,5.6133,5.5453,5.4901,5.4386,5.4386,5.48,5.5297,5.4871,5.5949,0.0,0.0,0.0,0.0,0.0,0.0,0.0,0.0,0.0,0.0,5.8665,0.0,0.0,5.3495,5.2895,5.297,5.3306,5.4009,5.4697,5.5024,5.5691,5.6219,5.6219,5.6219,5.6219,5.6219,5.6219,5.6219,5.6219,5.6219,5.6219,5.6219,5.6219,5.6219,5.6219,5.6219,5.6545,5.7311,5.8027,5.873,5.9483,5.9483,5.9483,5.9483,5.9483,5.9483,5.9483,5.9483,5.9483,5.9483,5.9483,5.9483,5.9483,5.9483,5.9483,5.9483,5.9483,5.9483,5.9483,5.9483,5.9684,6.0085,6.0889,6.1391,6.1768,0.0,0.0,0.0,0.0,0.0,0.0,0.0,0.0,0.0,0.0,0.0,0.0,0.0,0.0,0.0,0.0,5.2516,5.3198,5.3198,5.3288,5.3318,5.3318,5.3378,5.3438,5.3438,5.2845,5.3114,5.4311,5.3713,5.4037,5.5179,5.5179,5.5239,0.0,5.5923,5.6282,5.6492,5.7633,5.8065,5.7827,5.6373,5.6077,5.628,5.4712,5.3999,5.3877,5.3932,5.4825,5.5903,5.5222,5.6347,0.0,0.0,0.0,0.0,0.0,6.2007,0.0,0.0,0.0,0.0,0.0,5.6564,0.0,5.3256,5.2895,5.2895,5.2895,5.3808,5.4597,5.4597,5.5465,5.6219,5.6219,5.6219,5.6219,5.6219,5.6219,5.6219,5.6219,5.6219,5.6219,5.6219,5.6219,5.6219,5.6219,5.6219,5.6671,5.775,5.7851,5.8353,5.9382,5.9458,5.9483,5.9483,5.9483,5.9483,5.9483,5.9483,5.9483,5.9483,5.9483,5.9483,5.9483,5.9483,5.9483,5.9483,5.9483,5.9483,5.9483,5.9483,5.9483,5.9633,6.0688,6.114,6.1341,0.0,0.0,0.0,0.0,0.0,0.0,0.0,0.0,0.0,0.0,0.0,0.0,0.0,0.0,0.0,0.0,0.0,5.3198,5.3198,5.3713,5.4012,5.4012,5.4521,5.479,5.479,5.467,5.473,5.4999,5.485,5.494,5.5179,5.5179,5.5504,5.6013,5.6132,5.6765,5.7752,5.7995,5.7651,5.6957,5.6619,5.5822,5.4682,5.3096,5.1647,5.0582,5.1043,5.1389,5.1857,5.3398,5.4202,5.501,0.0,0.0,0.0,6.1258,0.0,0.0,0.0,0.0,0.0,0.0,5.565,0.0,5.3256,5.2895,5.2895,5.2895,5.3808,5.4597,5.4597,5.5465,5.6219,5.6219,5.6219,5.6219,5.6219,5.6219,5.6219,5.6219,5.6219,5.6219,5.6219,5.6219,5.6219,5.6219,5.6219,5.6495,5.7136,5.765,5.8202,5.8855,5.9282,5.9483,5.9483,5.9483,5.9483,5.9483,5.9483,5.9483,5.9483,5.9483,5.9483,5.9483,5.9483,5.9483,5.9483,5.9483,5.9483,5.9483,5.9483,5.9483,5.9583,6.0236,6.0788,6.1266,0.0,0.0,0.0,0.0,0.0,0.0,0.0,0.0,0.0,5.0122,5.1379,0.0,0.0,0.0,0.0,0.0,0.0,0.0,0.0,5.4491,5.47,5.47,5.5029,5.5179,5.5179,5.5179,5.5179,5.5179,5.5179,5.5179,5.5209,5.5564,5.5448,5.5066,5.6512,5.7087,5.7032,5.8118,5.8515,5.8216,5.6337,5.4623,5.3062,5.1706,5.071,5.0067,5.0645,5.1021,5.1538,5.342,5.424,0.0,5.6412,5.7224,5.7845,0.0,5.9674,5.9228,0.0,0.0,0.0,5.582,5.4775,0.0,0.0,5.2895,5.2895,5.2895,5.3808,5.4597,5.4597,5.5465,5.6219,5.6219,5.6219,5.6219,5.6219,5.6219,5.6219,5.6219,5.6219,5.6219,5.6219,5.6219,5.6219,5.6219,5.6219,5.6408,5.696,5.7575,5.8152,5.8666,5.9232,5.9483,5.9483,5.9483,5.9483,5.9483,5.9483,5.9483,5.9483,5.9483,5.9483,5.9483,5.9483,5.9483,5.9483,5.9483,5.9483,5.9483,5.9483,5.9483,5.9558,6.0111,6.0688,6.1266,0.0,0.0,0.0,0.0,0.0,0.0,0.0,0.0,5.0265,5.1439,5.2388,5.2986,0.0,0.0,0.0,0.0,0.0,0.0,0.0,5.4769,5.4896,5.5179,5.5179,5.5078,5.4769,5.5053,5.5053,5.4769,5.5197,5.5414,5.5388,5.6072,5.5749,5.4724,5.6748,5.7034,5.6072,5.7688,5.8498,5.843,5.5449,5.369,5.2638,5.115,5.0569,5.067,5.1222,5.18,5.2455,5.3727,5.4543,5.4982,5.5287,5.6141,0.0,0.0,0.0,0.0,0.0,0.0,0.0,0.0,5.3886,5.2895,0.0,0.0,0.0,5.2895,5.3808,5.4597,5.4597,5.5465,5.6143,5.5942,5.6068,5.6143,5.5917,5.6068,5.6219,5.6219,5.6219,5.6219,5.6219,5.6219,5.6219,5.6219,5.6219,5.642,5.6809,5.7524,5.8102,5.8554,5.9182,5.9483,5.9483,5.9483,5.9483,5.9483,5.9483,5.9483,5.9483,5.9483,5.9483,5.9483,5.9483,5.9483,5.9483,5.9483,5.9483,5.9483,5.9483,5.9483,5.9558,6.001,6.0512,6.109,4.9187,4.9127,0.0,0.0,4.9703,0.0,0.0,0.0,5.2127,5.2899,5.249,5.2133,5.2133,5.1516,0.0,0.0,0.0,0.0,5.3148,0.0,0.0,5.5128,5.5179,5.459,5.3282,5.4509,5.4564,5.3256,5.5153,5.6102,5.6102,5.6705,5.7225,5.7553,5.6532,5.6271,5.6536,5.592,5.4855,5.3641,5.3656,5.4504,5.5374,5.2354,5.1197,5.1247,5.1825,5.2377,5.2829,5.3035,5.3128,5.3461,0.0,5.4534,5.4081,5.7112,0.0,0.0,0.0,0.0,0.0,5.3563,5.3042,5.2895,5.2895,0.0,5.2895,5.2895,0.0,5.4597,5.4597,0.0,0.0,5.4949,5.5566,5.5867,5.4924,5.5591,5.6219,5.6219,5.6219,5.6219,5.6219,5.6219,5.6219,5.6219,5.6219,5.6244,5.6294,5.7323,5.7926,5.8001,5.8981,5.9483,5.9483,5.9483,5.9483,5.9483,5.9483,5.9483,5.9483,5.9483,5.9483,5.9483,5.9483,5.9483,5.9483,5.9483,5.9483,5.9483,5.9483,5.9483,5.9508,5.9558,5.9935,6.0512,0.0,5.0451,0.0,0.0,5.0803,5.0769,0.0,0.0,5.0852,5.1135,5.1205,5.1252,5.1252,5.0904,5.0713,0.0,0.0,5.11,5.2125,0.0,0.0,5.354,5.449,5.4677,5.4057,5.465,5.465,5.4057,5.4939,5.4894,5.4022,5.5616,5.5498,5.4026,5.4678,5.4774,5.4463,5.4982,5.52,5.5168,5.4416,5.4772,5.5462,5.2769,5.195,5.2277,5.2468,5.2694,5.2895,5.2895,5.2895,5.3007,5.3742,5.3461,0.0,5.4601,0.0,0.0,0.0,0.0,5.3776,5.3076,5.2895,5.2895,5.2895,0.0,5.297,5.3306,0.0,0.0,0.0,0.0,0.0,0.0,5.5917,5.6043,5.5591,5.5917,5.6219,5.6219,5.6219,5.6219,5.6219,5.6219,5.6219,5.6219,5.6219,5.6219,5.6219,5.6972,5.7549,5.7901,5.8654,5.9207,5.9483,5.9483,5.9483,5.9483,5.9483,5.9483,5.9483,5.9483,5.9483,5.9483,5.9483,5.9483,5.9483,5.9483,5.9483,5.9483,5.9483,5.9483,5.9483,5.9483,5.9834,6.0412,0.0,0.0,0.0,5.187,5.1197,5.0704,5.0874,5.0367,4.9968,4.9968,5.005,5.0155,5.0291,4.9816,4.9616,4.9911,4.9803,5.0136,5.1161,0.0,5.158,0.0,0.0,0.0,5.3557,5.3921,5.3921,5.3557,5.4566,5.4232,5.2725,5.4998,5.4651,5.2204,5.3423,5.3601,5.3097,5.3985,5.4862,5.5569,5.4492,5.4337,5.4523,5.2903,5.2544,5.2895,5.2895,5.2895,5.2895,5.2895,5.2895,5.2895,5.2895,5.2895,5.2895,0.0,0.0,0.0,5.2895,5.2895,5.2895,5.2895,5.2895,5.292,5.3071,0.0,0.0,5.3833,5.4386,0.0,0.0,0.0,5.6118,0.0,0.0,5.6118,5.5792,5.6018,5.6219,5.6219,5.6219,5.6219,5.6219,5.6219,5.6219,5.6219,5.6219,5.6219,5.6219,5.6709,5.7261,5.7876,5.8428,5.8981,5.9483,5.9483,5.9483,5.9483,5.9483,5.9483,5.9483,5.9483,5.9483,5.9483,5.9483,5.9483,5.9483,5.9483,5.9483,5.9483,5.9483,5.9483,5.9483,5.9483,5.9759,6.0211,0.0,5.0418,0.0,5.1037,5.0322,4.9967,5.0602,5.0685,5.0657,5.0657,4.9451,4.8772,4.93,4.7632,4.6854,4.7912,4.7503,4.8074,5.0104,0.0,5.0904,0.0,0.0,5.1813,0.0,5.1754,5.1784,5.0337,5.3977,5.4941,5.3418,5.5623,5.6104,5.5006,5.353,5.3123,5.3512,5.2585,5.222,5.2295,5.2747,5.2973,5.2998,5.2904,5.287,5.2895,5.2895,5.2895,5.2895,5.2895,5.2895,5.2895,5.2895,5.2895,5.2895,5.2895,0.0,0.0,5.2895,5.2895,5.2895,5.2895,5.2895,5.302,5.3557,0.0,5.3833,0.0,0.0,0.0,0.0,0.0,0.0,0.0,0.0,0.0,0.0,5.5541,5.6219,5.6219,5.6219,5.6219,5.6219,5.6219,5.6219,5.6219,5.6219,5.6219,5.6219,5.6709,5.7261,5.7876,5.8428,5.8981,5.9483,5.9483,5.9483,5.9483,5.9483,5.9483,5.9483,5.9483,5.9483,5.9483,5.9483,5.9483,5.9483,5.9483,5.9483,5.9483,5.9483,5.9483,5.9483,5.9483,5.9508,5.9684,0.0,0.0,4.9638,5.0622,4.9747,4.864,4.7896,4.7802,4.7802,4.7802,4.7662,4.7636,4.7844,4.7536,4.7506,4.7883,4.7732,4.81,4.9192,4.928,0.0,0.0,0.0,5.1899,0.0,0.0,5.1899,5.1382,5.2661,5.2466,5.0919,5.3117,5.3369,5.1998,5.1858,5.2108,5.2611,5.2237,5.2327,5.2669,5.3231,5.3658,5.3959,5.3582,5.3432,5.3482,5.3884,5.4009,5.4009,5.4009,5.4009,5.4009,5.4009,5.4009,5.4009,5.4009,5.4009,5.4009,5.4009,5.4009,5.4009,5.4009,5.4009,5.4059,5.4235,5.4321,0.0,0.0,0.0,0.0,0.0,0.0,0.0,0.0,0.0,0.0,0.0,5.8805,5.9782,5.9782,5.9782,5.9322,5.8108,5.8002,5.7492,5.6267,5.6219,5.6219,5.6219,5.6358,5.6709,5.7286,5.7876,5.8428,5.8981,5.9332,5.9483,5.9483,5.9483,5.9483,5.9483,5.9483,5.9483,5.9483,5.9483,5.9483,5.9483,5.9483,5.9483,5.9483,5.9483,5.9483,5.9483,5.9483,5.9483,5.9659,4.9139,4.8387,4.8184,4.9678,4.8864,4.7666,4.6753,4.6753,4.6878,4.6878,4.7149,4.745,4.7682,4.7832,4.8058,4.8485,4.8335,4.8535,4.9314,4.9163,0.0,4.9866,5.0697,0.0,0.0,0.0,0.0,0.0,5.2025,5.1589,5.0225,5.2192,5.2349,5.1021,5.1398,5.1875,5.2402,5.2603,5.2879,5.3256,5.3783,5.427,5.4572,5.4361,5.4185,5.4059,5.4471,5.4597,5.4597,5.4597,5.4597,5.4597,5.4597,5.4597,5.4597,5.4597,5.4597,5.4597,5.4597,5.4597,5.4597,5.4597,5.4597,5.4647,5.4848,5.4898,5.5049,0.0,0.0,0.0,0.0,0.0,0.0,0.0,0.0,0.0,0.0,6.0988,6.2562,6.2562,6.1427,6.0195,5.9008,5.8295,5.7456,5.6267,5.6219,5.6219,5.6219,5.6219,5.647,5.6985,5.76,5.8152,5.8666,5.9232,5.9483,5.9483,5.9483,5.9483,5.9483,5.9483,5.9483,5.9483,5.9483,5.9483,5.9483,5.9483,5.9483,5.9483,5.9483,5.9483,5.9483,5.9483,5.9608,5.991,4.6376,4.6376,4.6801,4.823,4.7718,4.7149,4.7149,4.755,4.7908,4.7908,4.7958,4.8209,4.8793,4.836,4.851,4.959,4.9245,4.9371,5.0393,4.9967,0.0,0.0,4.9967,4.9665,4.9665,0.0,0.0,0.0,5.1986,5.2239,5.1339,5.2816,5.3029,5.2101,5.2176,5.2477,5.297,5.3532,5.3758,5.3833,5.4421,5.4672,5.4748,5.5239,5.5125,5.4672,5.4672,5.4672,5.4672,5.4672,5.4672,5.4672,5.4672,5.4672,5.4672,5.4672,5.4672,5.4672,5.4672,5.4672,5.4672,5.4672,5.4672,5.4823,5.5315,5.544,5.5566,0.0,0.0,0.0,0.0,0.0,0.0,0.0,0.0,0.0,0.0,6.2197,6.4438,6.4438,6.1225,5.9043,5.9043,5.7492,5.6376,5.6219,5.6219,5.6219,5.6219,5.6219,5.6408,5.6935,5.7575,5.8152,5.8679,5.9232,5.9483,5.9483,5.9483,5.9483,5.9483,5.9483,5.9483,5.9483,5.9483,5.9483,5.9483,5.9483,5.9483,5.9483,5.9483,5.9483,5.9483,5.9483,5.9834,6.0412,4.7506,4.7506,4.7604,4.7978,4.7828,4.7676,4.7676,4.7832,4.7908,4.7908,4.8636,4.9213,4.9364,4.9992,5.0544,5.082,5.0753,5.0803,5.1046,5.0921,0.0,5.1046,5.0921,5.0845,5.0845,5.0845,0.0,5.1046,0.0,5.1527,5.1331,5.2109,5.2329,5.2126,5.2929,5.3381,5.3532,5.411,5.4622,5.4963,5.5114,5.5415,5.5817,5.5942,5.5917,5.5792,5.5792,5.5792,5.5792,5.5792,5.5792,5.5792,5.5792,5.5792,5.5792,5.5792,5.5792,5.5792,5.5792,5.5792,5.5792,5.5792,5.5792,5.5817,5.5968,5.5993,5.6043,5.6168,0.0,0.0,0.0,0.0,0.0,0.0,0.0,0.0,0.0,6.4854,6.6322,6.6322,6.3117,6.0886,6.0886,6.0504,5.9113,5.6412,5.6219,5.6219,5.6219,5.6219,5.6269,5.642,5.7374,5.7976,5.8102,5.9031,5.9483,5.9483,5.9483,5.9483,5.9483,5.9483,5.9483,5.9483,5.9483,5.9483,5.9483,5.9483,5.9483,5.9483,5.9483,5.9483,5.9483,5.9483,5.9834,6.0412,4.8234,4.8686,4.9012,4.9012,4.9213,4.9213,4.8711,4.9063,4.9389,4.9389,4.9941,5.0318,5.0318,5.0929,5.1306,5.1306,5.1306,5.1406,5.1624,5.1423,0.0,5.1624,5.1423,5.1306,5.1306,5.1306,0.0,5.1649,0.0,5.1774,5.2026,5.2553,5.2804,5.2829,5.3708,5.4084,5.411,5.4723,5.5239,5.5742,5.5742,5.5942,0.0,5.6219,5.6219,5.6219,5.6219,5.6219,5.6219,5.6219,5.6219,5.6219,5.6219,5.6219,5.6219,5.6219,5.6219,5.6219,5.6219,5.6219,5.6219,5.6219,5.6219,5.6219,5.6219,5.6219,5.6219,5.6219,5.6219,5.6219,0.0,0.0,0.0,0.0,0.0,0.0,0.0,0.0,6.4917,6.5733,6.3313,6.1897,6.2722,6.0614,5.8401,5.634,5.6219,5.6219,5.6219,5.6219,5.6219,5.6219,5.7298,5.7901,5.7901,5.8956,5.9483,5.9483,5.9483,5.9483,5.9483,5.9483,5.9483,5.9483,5.9483,5.9483,5.9483,5.9483,5.9483,5.9483,5.9483,5.9483,5.9483,5.9483,5.9684,6.0085,4.9044,4.9866,5.0544,5.0586,5.1122,5.1197,5.0268,5.0795,5.1306,5.1306,5.1398,5.1498,5.1498,5.1624,5.1733,5.1733,5.1733,5.1925,5.2402,5.1975,5.1925,5.2402,5.1975,5.1733,5.1733,5.1733,0.0,0.0,0.0,5.2678,5.3121,5.3607,5.3808,5.3833,5.4446,5.4748,5.4848,5.529,5.5767,5.6219,5.6219,5.6219,5.6219,5.6219,5.6219,5.6219,5.6219,5.6219,5.6219,5.6219,5.6219,5.6219,5.6219,5.6219,5.6219,5.6219,5.6219,5.6219,5.6219,5.6219,5.6219,5.6219,5.6219,5.6219,5.6219,5.6219,5.6219,5.6219,5.6219,5.6219,5.6219,0.0,0.0,0.0,0.0,0.0,0.0,0.0,0.0,6.3765,6.233,0.0,6.3797,5.9462,5.6558,5.6558,5.634,5.6219,5.6219,5.6219,5.6219,5.6219,5.7298,5.7901,5.7901,5.8956,5.9483,5.9483,5.9483,5.9483,5.9483,5.9483,5.9483,5.9483,5.9483,5.9483,5.9483,5.9483,5.9483,5.9483,5.9483,5.9483,5.9483,5.9483,5.9483,5.9659,5.0853,5.0996,5.1272,5.1724,5.2277,5.2729,5.2955,5.2,5.1306,5.1306,5.2076,5.2594,5.2594,5.3457,5.4019,5.4019,5.4019,5.4069,5.417,5.4069,5.4069,5.417,5.4069,5.4019,5.4019,5.4019,5.4069,0.0,0.0,5.422,5.4321,5.4421,5.4446,5.4471,5.5024,5.5491,5.5942,5.6018,5.6118,5.6219,5.6219,5.6219,5.6219,5.6219,5.6219,5.6219,5.6219,5.6219,5.6219,5.6219,5.6219,5.6219,5.6219,5.6219,5.6219,5.6219,5.6219,5.6219,5.6219,5.6219,5.6219,5.6219,5.6219,5.6219,5.6219,5.6219,5.6219,5.6219,5.6219,5.6219,5.6219,0.0,0.0,0.0,0.0,0.0,0.0,0.0,0.0,0.0,6.047,6.0092,6.1897,5.9851,5.8437,5.8437,5.705,5.6219,5.6219,5.6219,5.6219,5.6219,5.7298,5.7901,5.7901,5.8956,5.9483,5.9483,5.9483,5.9483,5.9483,5.9483,5.9483,5.9483,5.9483,5.9483,5.9483,5.9483,5.9483,5.9483,5.9483,5.9483,5.9483,5.9483,5.9483,5.9659,5.2477,5.2813,5.3089,5.3331,5.3607,5.3858,5.4145,5.3517,5.3014,5.3014,5.3457,5.3783,5.3783,5.427,5.4597,5.4597,5.4597,5.4597,5.4597,5.4597,5.4597,5.4597,5.4597,5.4597,5.4597,5.4597,5.4597,5.4597,0.0,0.0,5.4622,5.4898,5.5024,5.5049,5.5566,5.5968,5.6219,5.6219,5.6219,5.6219,5.6219,5.6219,5.6219,5.6219,5.6219,5.6219,5.6219,5.6219,5.6219,5.6219,5.6219,5.6219,5.6219,5.6219,5.6219,5.6219,5.6219,5.6219,5.6219,5.6219,5.6219,5.6219,5.6219,5.6219,5.6219,5.6219,5.6219,5.6219,5.6219,5.6219,5.6219,5.6219,0.0,0.0,0.0,0.0,0.0,0.0,5.9148,0.0,0.0,0.0,6.1326,5.9113,5.7895,5.8833,5.7231,5.6219,5.6219,5.6219,5.6219,5.6219,5.7298,5.7901,5.7901,5.8956,5.9483,5.9483,5.9483,5.9483,5.9483,5.9483,5.9483,5.9483,5.9483,5.9483,5.9483,5.9483,5.9483,5.9483,5.9483,5.9483,5.9483,5.9483,5.9483,5.9659,5.3808,5.4295,5.4647,5.4748,5.4773,5.4823,5.4924,5.4949,5.4873,5.4622,5.4697,5.4773,5.4773,5.4873,5.4949,5.4949,5.4949,5.4949,5.4949,5.4949,5.4949,5.4949,5.4949,5.4949,5.4949,5.4949,5.4949,0.0,0.0,5.4898,5.4798,5.5315,5.5566,5.5591,5.6018,5.6219,5.6219,5.6219,5.6219,5.6219,5.6219,5.6219,5.6219,5.6219,5.6219,5.6219,5.6219,5.6219,5.6219,5.6219,5.6219,5.6219,5.6219,5.6219,5.6219,5.6219,5.6219,5.6219,5.6219,5.6219,5.6219,5.6219,5.6219,5.6219,5.6219,5.6219,5.6219,5.6219,5.6219,5.6219,5.6219,5.6219,0.0,0.0,0.0,0.0,0.0,0.0,0.0,0.0,0.0,0.0,6.0716,5.8108,5.6968,5.8789,5.7231,5.6219,5.6219,5.6219,5.6219,5.6219,5.7298,5.7901,5.7901,5.8956,5.9483,5.9483,5.9483,5.9483,5.9483,5.9483,5.9483,5.9483,5.9483,5.9483,5.9483,5.9483,5.9483,5.9483,5.9483,5.9483,5.9483,5.9483,5.9483,5.9633,5.4522,5.4572,5.4748,5.5214,5.5315,5.5491,5.5993,5.6068,5.5691,5.4723,5.5024,5.5315,5.5315,5.5767,5.6068,5.6068,5.6068,5.6068,5.6068,5.6068,5.6068,5.6068,5.6068,5.6068,5.6068,5.6068,5.6068,0.0,0.0,5.5792,5.5315,5.5867,5.6143,5.6143,5.6194,5.6219,5.6219,5.6219,5.6219,5.6219,5.6219,5.6219,5.6219,5.6219,5.6219,5.6219,5.6219,5.6219,5.6219,5.6219,5.6219,5.6219,5.6219,5.6219,5.6219,5.6219,5.6219,5.6219,5.6219,5.6219,5.6219,5.6219,5.6219,5.6219,5.6219,5.6219,5.6219,5.6219,5.6219,5.6219,5.6219,5.6219,5.6219,0.0,0.0,0.0,0.0,0.0,5.6255,5.6412,0.0,0.0,5.8938,5.7349,5.6968,5.8789,5.7231,5.6219,5.6219,5.6219,5.6219,5.6219,5.7298,5.7901,5.7901,5.8956,5.9483,5.9483,5.9483,5.9483,5.9483,5.9483,5.9483,5.9483,5.9483,5.9483,5.9483,5.9483,5.9483,5.9483,5.9483,5.9483,5.9483,5.9483,5.9483,5.9583,5.5491,5.5541,5.5616,5.5842,5.5892,5.5968,5.6168,5.6219,5.6068,5.5616,5.5742,5.5892,5.5892,5.6068,5.6219,5.6219,5.6219,5.6219,5.6219,5.6219,5.6219,5.6219,5.6219,5.6219,5.6219,5.6219,5.6219,0.0,0.0,5.6093,5.5892,5.6118,5.6219,5.6219,5.6219,5.6219,5.6219,5.6219,5.6219,5.6219,5.6219,5.642,5.6659,5.6659,5.6922,5.7223,5.7223,5.7223,5.7223,5.7223,5.6771,5.6219,5.6219,5.6219,5.6219,5.6219,5.6219,5.6219,5.6219,5.6219,5.6219,5.6219,5.6219,5.6219,5.6219,5.6219,5.6219,5.6219,5.6219,5.6219,5.6219,5.6219,5.6219,5.6219,0.0,0.0,0.0,0.0,0.0,5.6219,0.0,5.6485,5.7231,5.6605,5.6522,5.7231,5.6605,5.6219,5.6219,5.6219,5.6219,5.6219,5.7298,5.7901,5.7901,5.8956,5.9483,5.9483,5.9483,5.9483,5.9483,5.9483,5.9483,5.9483,5.9483,5.9483,5.9483,5.9483,5.9483,5.9483,5.9483,5.9483,5.9483,5.9483,5.9483,5.9533,5.6143,5.6219,5.6219,5.6219,5.6219,5.6219,5.6219,5.6219,5.6219,5.6219,5.6219,5.6219,5.6219,5.6219,5.6219,5.6219,5.6219,5.6219,5.6219,5.6219,5.6219,5.6219,5.6219,5.6219,5.6219,5.6219,5.6219,5.6219,5.6219,5.6118,5.5968,5.5968,5.6068,5.6219,5.6219,5.6219,5.6219,5.6394,5.6445,5.647,5.6646,5.6947,5.7236,5.7236,5.7549,5.7901,5.7901,5.7901,5.7901,5.7901,5.7374,5.6721,5.6721,5.6721,5.6721,5.6721,5.6721,5.6671,5.6458,5.6445,5.642,5.6244,5.6219,5.6219,5.6219,5.6219,5.6219,5.6219,5.6219,5.6219,5.6219,5.6219,5.6219,5.6219,0.0,0.0,0.0,5.6219,0.0,0.0,5.6219,5.6219,5.6219,5.6219,5.6219,5.6219,5.6219,5.6219,5.6219,5.6219,5.6219,5.6219,5.7298,5.7901,5.7901,5.8956,5.9483,5.9483,5.9483,5.9483,5.9483,5.9483,5.9483,5.9483,5.9483,5.9483,5.9483,5.9483,5.9483,5.9483,5.9483,5.9483,5.9483,5.9483,5.9483,5.9483,5.6219,5.6219,5.6219,5.6219,5.6219,5.6219,5.6219,5.6219,5.6219,5.6219,5.6219,5.6219,5.6219,5.6219,5.6219,5.6219,5.6219,5.6219,5.6219,5.6219,5.6219,5.6219,5.6219,5.6219,5.6219,5.6219,5.6219,5.6219,0.0,5.5942,5.539,5.539,5.5691,5.6219,5.6219,5.6219,5.6244,5.6759,5.6985,5.7035,5.765,5.7876,5.7901,5.7901,5.7901,5.7901,5.7901,5.7901,5.7901,5.7901,5.7901,5.7876,5.7876,5.7876,5.7876,5.7876,5.7876,5.775,5.7136,5.6985,5.686,5.6308,5.6219,5.6219,5.6219,5.6219,5.6219,5.6219,5.6219,5.6219,5.6219,5.6219,5.6219,5.6219,0.0,0.0,0.0,5.6219,0.0,5.6219,5.6219,5.6219,5.6219,5.6219,5.6219,5.6219,5.6219,5.6219,5.6219,5.6219,5.6219,5.6219,5.7298,5.7901,5.7901,5.8956,5.9483,5.9483,5.9483,5.9483,5.9483,5.9483,5.9483,5.9483,5.9483,5.9483,5.9483,5.9483,5.9483,5.9483,5.9483,5.9483,5.9483,5.9483,5.9483,5.9483,5.6219,5.6219,5.6219,5.6219,5.6483,5.6734,5.6734,5.7097,5.7349,5.7349,5.7349,5.7349,5.7349,5.6985,5.6885,5.7323,5.696,5.6734,5.6734,5.642,5.6219,5.6219,5.6219,5.6219,5.6219,5.6219,5.6219,5.6219,5.6219,5.6118,5.5968,5.6344,5.6559,5.6759,5.7198,5.7349,5.7374,5.7549,5.7625,5.765,5.7826,5.8127,5.8453,5.8453,5.8679,5.8981,5.8981,5.8981,5.8981,5.8981,5.8981,5.8981,5.8981,5.8478,5.7901,5.7901,5.7901,5.7851,5.7675,5.7625,5.7575,5.7399,5.7349,5.7248,5.6835,5.6433,5.6219,5.6219,5.6219,5.6219,5.6219,5.6219,5.6219,5.6219,5.6219,0.0,5.6219,0.0,5.6219,5.6219,5.6219,5.6219,5.6219,5.6219,5.6219,5.6219,5.6219,5.6219,5.6219,5.6219,5.6394,5.6734,5.7499,5.8077,5.8453,5.9156,5.9483,5.9483,5.9483,5.9483,5.9483,5.9483,5.9483,5.9483,5.9483,5.9483,5.9483,5.9483,5.9483,5.9483,5.9483,5.9483,5.9483,5.9483,5.9483,5.9483,5.542,5.5619,5.5843,5.6673,5.7123,5.7336,5.7336,5.7675,5.7901,5.7901,5.7901,5.7976,5.8177,5.7838,5.7688,5.7876,5.7575,5.7336,5.7336,5.7022,5.6846,5.6846,5.6846,5.6846,5.6846,5.6846,5.6846,5.6846,5.6846,5.6846,5.6846,5.7198,5.7336,5.7336,5.7725,5.7901,5.7901,5.8127,5.8202,5.8202,5.8403,5.8704,5.9006,5.9006,5.9207,5.9483,5.9483,5.9483,5.9483,5.9483,5.9483,5.9483,5.9483,5.9031,5.8504,5.8504,5.8504,5.8453,5.8252,5.8202,5.8152,5.7951,5.7901,5.7801,5.7412,5.7097,5.6846,5.6846,5.6671,5.6483,5.6483,5.6344,5.6219,5.6219,5.6219,5.6219,5.6219,0.0,5.6219,0.0,0.0,5.6219,5.6219,5.6219,5.6219,5.6219,5.6219,5.6219,5.6219,5.6219,5.647,5.6985,5.76,5.8152,5.8666,5.9232,5.9483,5.9483,5.9483,5.9483,5.9483,5.9483,5.9483,5.9483,5.9483,5.9483,5.9483,5.9483,5.9483,5.9483,5.9483,5.9483,5.9483,5.9483,5.9483,5.9483,5.4084,5.4592,5.5313,5.7499,5.7926,5.7951,5.7951,5.7976,5.8001,5.8001,5.8001,5.8202,5.8704,5.878,5.8554,5.8052,5.7976,5.7951,5.7951,5.7926,5.7901,5.7901,5.7901,5.7901,5.7901,5.7901,5.7901,5.7901,5.7901,5.7901,5.7901,5.7951,5.7951,5.7951,5.8001,5.8001,5.8052,5.8554,5.8755,5.8818,5.9282,5.9483,5.9483,5.9483,5.9483,5.9483,5.9483,5.9483,5.9483,5.9483,5.9483,5.9483,5.9483,5.9483,5.9483,5.9483,5.9483,5.9382,5.8905,5.878,5.8654,5.8152,5.7976,5.7951,5.7951,5.7926,5.7901,5.7901,5.7474,5.706,5.706,5.6634,5.6319,5.6269,5.6269,5.6244,5.6219,5.6219,5.6219,5.6219,5.6219,5.6219,5.6219,5.6219,5.6219,5.6219,5.6244,5.6269,5.6269,5.6319,5.657,5.7035,5.765,5.8227,5.8742,5.9257,5.9483,5.9483,5.9483,5.9483,5.9483,5.9483,5.9483,5.9483,5.9483,5.9483,5.9483,5.9483,5.9483,5.9483,5.9483,5.9483,5.9483,5.9483,5.9483,5.9483,5.4116,5.4592,5.5313,5.7499,5.8252,5.8529,5.8529,5.8855,5.9106,5.9106,5.9106,5.9156,5.9307,5.9307,5.9257,5.9131,5.8755,5.8529,5.8529,5.8127,5.7901,5.7901,5.7901,5.7901,5.7901,5.7901,5.7901,5.7901,5.7901,5.7901,5.7901,5.8328,5.8529,5.8554,5.893,5.9106,5.9131,5.9257,5.9307,5.9307,5.9433,5.9483,5.9483,5.9483,5.9483,5.9483,5.9483,5.9483,5.9483,5.9483,5.9483,5.9483,5.9483,5.9483,5.9483,5.9483,5.9483,5.9458,5.9357,5.9307,5.9282,5.9156,5.8805,5.8529,5.8529,5.8202,5.7901,5.7901,5.7801,5.77,5.77,5.7575,5.7349,5.6885,5.6809,5.6659,5.6269,5.6219,5.6219,5.6219,5.6219,5.6219,5.6219,5.6219,5.6219,5.6219,5.6559,5.6809,5.6809,5.7273,5.7549,5.77,5.8227,5.878,5.9307,5.9433,5.9483,5.9483,5.9483,5.9483,5.9483,5.9483,5.9483,5.9483,5.9483,5.9483,5.9483,5.9483,5.9483,5.9483,5.9483,5.9483,5.9483,5.9483,5.9483,5.9483,5.1849,5.2299,5.3027,5.5225,5.5858,5.6049,5.6049,5.7143,5.7991,5.7991,5.8876,5.9483,5.9483,5.9483,5.9483,5.9483,5.9232,5.9081,5.9081,5.8805,5.8629,5.8629,5.8629,5.8629,5.8629,5.8629,5.8629,5.8629,5.8629,5.8629,5.8629,5.893,5.9081,5.9081,5.9357,5.9483,5.9483,5.9483,5.9483,5.9483,5.9483,5.9483,5.9483,5.9483,5.9483,5.9483,5.9483,5.9483,5.9483,5.9483,5.9483,5.9483,5.9483,5.9483,5.9483,5.9483,5.9483,5.9483,5.9483,5.9483,5.9483,5.9483,5.9282,5.9081,5.9081,5.8855,5.8629,5.8629,5.8453,5.8278,5.8278,5.8077,5.7801,5.7437,5.7387,5.7323,5.7022,5.6972,5.6972,5.6972,5.6972,5.6972,5.6972,5.6972,5.6972,5.6972,5.7273,5.7387,5.7387,5.7951,5.8278,5.8278,5.8554,5.8981,5.9483,5.9483,5.9483,5.9483,5.9483,5.9483,5.9483,5.9483,5.9483,5.9483,5.9483,5.9483,5.9483,5.9483,5.9483,5.9483,5.9483,5.9483,5.9483,5.9483,5.9483,5.9483,4.9086,4.9616,5.0273,5.2508,5.288,5.288,5.288,5.4783,5.6199,5.6199,5.8148,5.9483,5.9483,5.9483,5.9483,5.9483,5.9483,5.9483,5.9483,5.9483,5.9483,5.9483,5.9483,5.9483,5.9483,5.9483,5.9483,5.9483,5.9483,5.9483,5.9483,5.9483,5.9483,5.9483,5.9483,5.9483,5.9483,5.9483,5.9483,5.9483,5.9483,5.9483,5.9483,5.9483,5.9483,5.9483,5.9483,5.9483,5.9483,5.9483,5.9483,5.9483,5.9483,5.9483,5.9483,5.9483,5.9483,5.9483,5.9483,5.9483,5.9483,5.9483,5.9483,5.9483,5.9483,5.9483,5.9483,5.9483,5.9156,5.8792,5.8792,5.8453,5.8127,5.8027,5.8027,5.8001,5.7901,5.7901,5.7901,5.7901,5.7901,5.7901,5.7901,5.7901,5.7901,5.7901,5.7976,5.8027,5.8027,5.8554,5.8792,5.8792,5.8792,5.9056,5.9483,5.9483,5.9483,5.9483,5.9483,5.9483,5.9483,5.9483,5.9483,5.9483,5.9483,5.9483,5.9483,5.9483,5.9483,5.9483,5.9483,5.9483,5.9483,5.9483,5.9483,5.9483,4.9148,4.9616,5.0273,5.2508,5.288,5.288,5.288,5.4783,5.6199,5.6199,5.8148,5.9483,5.9483,5.9483,5.9483,5.9483,5.9483,5.9483,5.9483,5.9483,5.9483,5.9483,5.9483,5.9483,5.9483,5.9483,5.9483,5.9483,5.9483,5.9483,5.9483,5.9483,5.9483,5.9483,5.9483,5.9483,5.9483,5.9483,5.9483,5.9483,5.9483,5.9483,5.9483,5.9483,5.9483,5.9483,5.9483,5.9483,5.9483,5.9483,5.9483,5.9483,5.9483,5.9483,5.9483,5.9483,5.9483,5.9483,5.9483,5.9483,5.9483,5.9483,5.9483,5.9483,5.9483,5.9483,5.9483,5.9483,5.9433,5.9382,5.9382,5.9307,5.9106,5.8654,5.8604,5.8428,5.7951,5.7901,5.7901,5.7901,5.7901,5.7901,5.7901,5.7901,5.7901,5.7901,5.8328,5.8604,5.8604,5.9081,5.9382,5.9382,5.9382,5.9408,5.9483,5.9483,5.9483,5.9483,5.9483,5.9483,5.9483,5.9483,5.9483,5.9483,5.9483,5.9483,5.9483,5.9483,5.9483,5.9483,5.9483,5.9483,5.9483,5.9483,5.9483,5.9483,4.7641,4.7837,4.8118,4.9169,4.9339,4.9339,4.9339,5.124,5.2632,5.2632,5.4812,5.678,5.8027,5.813,5.859,5.9818,5.9659,5.9483,5.9483,5.9483,5.9483,5.9483,5.9483,5.9483,5.9483,5.9483,5.9483,5.9483,5.9483,5.9483,5.9483,5.9483,5.9483,5.9483,5.9483,5.9483,5.9483,5.9483,5.9483,5.9483,5.9483,5.9483,5.9483,5.9483,5.9483,5.9483,5.9483,5.9483,5.9483,5.9483,5.9483,5.9483,5.9483,5.9483,5.9483,5.9483,5.9483,5.9483,5.9483,5.9483,5.9483,5.9483,5.9483,5.9483,5.9483,5.9483,5.9483,5.9483,5.9483,5.9483,5.9483,5.9483,5.9408,5.9182,5.9131,5.9056,5.8805,5.8755,5.8755,5.8755,5.8755,5.8755,5.8755,5.8755,5.8755,5.8755,5.9006,5.9131,5.9131,5.9357,5.9483,5.9483,5.9483,5.9483,5.9483,5.9483,5.9483,5.9483,5.9483,5.9483,5.9483,5.9483,5.9483,5.9483,5.9483,5.9483,5.9483,5.9483,5.9483,5.9483,5.9483,5.9483,5.9483,5.9483,5.9483,5.9483,4.6445,4.6523,4.6601,4.6601,4.6601,4.6601,4.6601,4.8487,4.9888,4.9888,5.2123,5.4425,5.614,5.6286,5.719,5.9514,5.934,5.9288,5.9846,5.9885,5.9784,5.9508,5.9483,5.9483,5.9483,5.9483,5.9483,5.9483,5.9483,5.9483,5.9483,5.9483,5.9483,5.9483,5.9483,5.9483,5.9483,5.9483,5.9483,5.9444,5.8915,5.872,5.8681,5.8271,5.8438,5.8919,5.9043,5.943,5.9782,5.9139,5.8933,5.8908,5.8745,5.872,5.8837,5.9328,5.9483,5.9483,5.9483,5.9483,5.9483,5.9483,5.9483,5.9483,5.9483,5.9483,5.9483,5.9483,5.9483,5.9483,5.9483,5.9483,5.9483,5.9483,5.9483,5.9483,5.9483,5.9483,5.9483,5.9483,5.9483,5.9483,5.9483,5.9483,5.9483,5.9483,5.9483,5.9483,5.9483,5.9483,5.9483,5.9483,5.9483,5.9483,5.9483,5.9483,5.9483,5.9483,5.9483,5.9483,5.9483,5.9483,5.9483,5.9483,5.9483,5.9483,5.9483,5.9483,5.9483,5.9483,5.9483,5.9483,5.9483,5.9483,5.9483,5.9483,4.6831,4.7207,4.748,4.748,4.748,4.748,4.748,4.9359,5.0809,5.0809,5.2734,5.4206,5.4375,5.4417,5.5344,5.7696,5.7853,5.875,6.092,6.1065,6.0588,5.9533,5.9483,5.9483,5.9483,5.9483,5.9483,5.9483,5.9483,5.9483,5.9483,5.9483,5.9483,5.9483,5.9483,5.9483,5.9483,5.9483,5.9483,5.9328,5.7297,5.6439,5.6287,5.4637,5.5356,5.7259,5.768,5.9219,6.0686,5.8064,5.7188,5.7116,5.6622,5.6439,5.6837,5.8876,5.9483,5.9483,5.9483,5.9483,5.9483,5.9483,5.9483,5.9483,5.9483,5.9483,5.9483,5.9483,5.9483,5.9483,5.9483,5.9483,5.9483,5.9483,5.9483,5.9483,5.9483,5.9483,5.9483,5.9483,5.9483,5.9483,5.9483,5.9483,5.9483,5.9483,5.9483,5.9483,5.9483,5.9483,5.9483,5.9483,5.9483,5.9483,5.9483,5.9483,5.9483,5.9483,5.9483,5.9483,5.9483,5.9483,5.9483,5.9483,5.9483,5.9483,5.9483,5.9483,5.9483,5.9483,5.9483,5.9483,5.9483,5.9483,5.9483,5.9483,4.7324,4.7461,4.7578,4.7578,4.7578,4.7578,4.7578,4.83,4.886,4.886,4.9817,5.1024,5.2495,5.2561,5.3473,5.5826,5.5698,5.5915,5.6812,5.6853,5.7962,6.0444,6.0537,6.0537,6.0537,6.0537,6.0362,6.001,6.001,6.001,6.001,6.001,6.0186,6.0498,5.9051,5.8386,5.8306,5.6841,5.6204,5.6122,5.5298,5.4966,5.4906,5.421,5.4529,5.5305,5.5447,5.6124,5.6682,5.5643,5.526,5.5237,5.5012,5.4966,5.5063,5.5667,5.6597,5.7455,5.747,5.8461,5.9483,5.9483,5.9483,5.9483,5.9483,5.9483,5.9483,5.9483,5.9483,5.9483,5.9483,5.9483,5.9483,5.9483,5.9483,5.9483,5.9483,5.9483,5.9483,5.9483,5.9483,5.9483,5.9483,5.9483,5.9483,5.9483,5.9483,5.9483,5.9483,5.9483,5.9483,5.9483,5.9483,5.9483,5.9483,5.9483,5.9483,5.9483,5.9483,5.9483,5.9483,5.9483,5.9483,5.9483,5.9483,5.9483,5.9483,5.9483,5.9483,5.9483,5.9483,5.9483,5.9483,5.9483,5.9483,5.9483,4.7773,4.7936,4.8033,4.8033,4.8033,4.8033,4.8033,4.8033,4.8033,4.8033,4.8223,4.9017,5.0629,5.0764,5.1616,5.3975,5.3843,5.3947,5.4677,5.472,5.6344,5.9955,5.9382,5.9341,6.0076,5.9382,5.8823,5.8394,5.8394,5.8394,5.8394,5.8394,5.8613,5.8936,5.7349,5.6623,5.6498,5.4885,5.4208,5.4123,5.3442,5.3143,5.3079,5.252,5.278,5.3448,5.3602,5.4119,5.4612,5.3728,5.3426,5.3404,5.3208,5.3613,5.4163,5.387,5.5155,5.6627,5.646,5.8054,5.9709,5.9533,5.9483,5.9483,5.9483,5.9483,5.9483,5.9483,5.9483,5.9483,5.9483,5.9483,5.9483,5.9483,5.9483,5.9483,5.9483,5.9483,5.9483,5.9483,5.9483,5.9483,5.9483,5.9483,5.9483,5.9483,5.9483,5.9483,5.9483,5.9483,5.9483,5.9483,5.9483,5.9483,5.9483,5.9483,5.9483,5.9483,5.9483,5.9483,5.9483,5.9483,5.9483,5.9483,5.9483,5.9483,5.9483,5.9483,5.9483,5.9483,5.9483,5.9483,5.9483,5.9483,5.9483,5.9483,4.8223,4.8555,4.8913,4.8913,4.8913,4.8913,4.8913,4.8913,4.8913,4.8913,4.8913,4.8913,4.8913,4.8913,4.9839,5.2162,5.2387,5.3348,5.5705,5.5835,5.6377,5.7603,5.5454,5.5286,5.7638,5.5412,5.423,5.423,5.423,5.423,5.423,5.423,5.423,5.423,5.4188,5.4188,5.4188,5.4188,5.4145,5.3975,5.1764,5.087,5.0714,4.8867,4.9637,5.1736,5.2219,5.3859,5.542,5.2616,5.1694,5.161,5.1061,5.2391,5.4123,5.4123,5.5808,5.7519,5.7004,5.856,6.0147,5.9633,5.9483,5.9483,5.9483,5.9483,5.9483,5.9483,5.9483,5.9483,5.9483,5.9483,5.9483,5.9483,5.9483,5.9483,5.9483,5.9483,5.9483,5.9483,5.9483,5.9483,5.9483,5.9483,5.9483,5.9483,5.9483,5.9483,5.9483,5.9483,5.9483,5.9483,5.9483,5.9483,5.9483,5.9483,5.9483,5.9483,5.9483,5.9483,5.9483,5.9483,5.9483,5.9483,5.9483,5.9483,5.9483,5.9483,5.9483,5.9483,5.9483,5.9483,5.9483,5.9483,5.9483,5.9483,4.8718,4.8815,4.8913,4.8913,4.8913,4.8913,4.8913,4.8913,4.8913,4.8913,4.8913,4.8913,4.8913,4.8913,4.917,4.9865,4.9957,5.0231,5.0919,5.0964,5.1902,5.3866,5.4846,5.5667,5.6354,5.5732,5.5165,5.4765,5.4765,5.4765,5.4765,5.4765,5.4943,5.5235,5.3647,5.2965,5.2832,5.1164,5.0486,5.0441,4.9784,4.9486,4.9441,4.8869,4.9157,4.9731,4.9871,5.0393,5.0873,5.0024,4.9711,4.9691,4.9571,4.9743,4.9997,4.9997,5.1408,5.2906,5.2733,5.5518,5.8652,5.932,5.9483,5.9483,5.9483,5.9483,5.9483,5.9483,5.9483,5.9483,5.9483,5.9483,5.9483,5.9483,5.9483,5.9483,5.9483,5.9483,5.9483,5.9483,5.9483,5.9483,5.9483,5.9483,5.9483,5.9483,5.9483,5.9483,5.9483,5.9483,5.9483,5.9483,5.9483,5.9483,5.9483,5.9483,5.9483,5.9483,5.9483,5.9483,5.9483,5.9483,5.9483,5.9483,5.9483,5.9483,5.9483,5.9483,5.9483,5.9483,5.9483,5.9483,5.9483,5.9483,5.9483,5.9483,4.8913,4.8913,4.8913,4.8913,4.8913,4.8913,4.8913,4.8913,4.8913,4.8913,4.8913,4.8913,4.8913,4.8913,4.8913,4.8913,4.8913,4.8913,4.8913,4.8913,4.9518,5.0964,5.2321,5.3504,5.4412,5.3593,5.2932,5.259,5.259,5.259,5.259,5.259,5.2739,5.3015,5.1622,5.1009,5.0919,4.9518,4.8913,4.8913,4.8913,4.8913,4.8913,4.8913,4.8913,4.8913,4.8913,4.8913,4.8913,4.8913,4.8913,4.8913,4.8913,4.8718,4.8476,4.8476,4.9898,5.1461,5.1228,5.3814,5.6758,5.7267,5.8615,5.9759,5.9533,5.9483,5.9483,5.9483,5.9483,5.9483,5.9483,5.9483,5.9483,5.9483,5.9483,5.9483,5.9483,5.9483,5.9483,5.9483,5.9483,5.9483,5.9483,5.9483,5.9483,5.9483,5.9483,5.9483,5.9483,5.9483,5.9483,5.9483,5.9483,5.9483,5.9483,5.9483,5.9483,5.9483,5.9483,5.9483,5.9483,5.9483,5.9483,5.9483,5.9483,5.9483,5.9483,5.9483,5.9483,5.9483,5.9483,5.9483,5.9483,5.9483,5.9483,5.9483,4.8913,4.8913,4.8913,4.8913,4.8913,4.8913,4.8913,4.8913,4.8913,4.8913,4.8913,4.8913,4.8913,4.8913,4.8913,4.8913,4.8913,4.8913,4.8913,4.8913,4.8913,4.8913,4.8913,4.9911,5.2027,5.0002,4.8913,4.8913,4.8913,4.8913,4.8913,4.8913,4.8913,4.8913,4.8913,4.8913,4.8913,4.8913,4.8913,4.8913,4.8913,4.8913,4.8913,4.8913,4.8913,4.8913,4.8913,4.8913,4.8913,4.8913,4.8913,4.8913,4.8913,4.8913,4.8913,4.8913,5.0393,5.1968,5.1417,5.2971,5.4642,5.4111,5.6919,5.9736,5.9334,5.9442,5.9558,5.9508,5.9328,5.9289,5.9444,5.9328,5.9251,5.9444,5.9483,5.9483,5.9483,5.9483,5.9483,5.9483,5.9483,5.9483,5.9483,5.9483,5.9483,5.9483,5.9483,5.9483,5.9483,5.9483,5.9483,5.9483,5.9483,5.9483,5.9483,5.9483,5.9483,5.9483,5.9483,5.9483,5.9483,5.9483,5.9483,5.9483,5.9483,5.9483,5.9483,5.9483,5.9483,5.9483,5.9483,5.9483,5.9483,5.9483,5.9483,5.9483,4.8913,4.8913,4.8913,4.8913,4.8913,4.8913,4.8913,4.8913,4.8913,4.8913,4.8913,4.8913,4.8913,4.8913,4.8913,4.8913,4.8913,4.8913,4.8913,4.8913,4.8913,4.8913,4.8913,4.9124,4.9656,4.917,4.8913,4.8913,4.8913,4.8913,4.8913,4.8913,4.8913,4.8913,4.8913,4.8913,4.8913,4.8913,4.8913,4.8913,4.8913,4.8913,4.8913,4.8913,4.8913,4.8913,4.8913,4.8913,4.8913,4.8913,4.8913,4.8913,4.8913,4.8913,4.8913,4.8913,4.9262,4.9636,4.9491,5.1182,5.2804,5.2227,5.4142,5.6392,5.725,5.8827,6.001,5.9583,5.8124,5.747,5.9173,5.807,5.7494,5.9212,5.9483,5.9483,5.9483,5.9483,5.9483,5.9483,5.9483,5.9483,5.9483,5.9483,5.9483,5.9483,5.9483,5.9483,5.9483,5.9483,5.9483,5.9483,5.9483,5.9483,5.9483,5.9483,5.9483,5.9483,5.9483,5.9483,5.9483,5.9483,5.9483,5.9483,5.9483,5.9483,5.9483,5.9483,5.9483,5.9483,5.9483,5.9483,5.9483,5.9483,5.9483,5.9483,4.8913,4.8913,4.8913,4.8913,4.8913,4.8913,4.8913,4.8913,4.8913,4.8913,4.8913,4.8913,4.8913,4.8913,4.8913,4.8913,4.8913,4.8913,4.8913,4.8913,4.8913,4.8913,4.8913,4.8913,4.8913,4.8913,4.8913,4.8913,4.8913,4.8913,4.8913,4.8913,4.8913,4.8913,4.8913,4.8913,4.8913,4.8913,4.8913,4.8913,4.8913,4.8913,4.8913,4.8913,4.8913,4.8913,4.8913,4.8913,4.8913,4.8913,4.8913,4.8913,4.8913,4.8913,4.8913,4.8913,4.8913,4.8913,4.8913,4.9793,5.0651,5.0317,5.2009,5.4105,5.5336,5.7397,5.8635,5.7013,5.7477,5.8103,5.7937,5.781,5.781,5.7927,5.7927,5.7952,5.7952,5.7952,5.8305,5.9367,5.9483,5.9483,5.9483,5.9483,5.9483,5.9483,5.9483,5.9483,5.9483,5.9483,5.9483,5.9483,5.9483,5.9483,5.9483,5.9483,5.9483,5.9483,5.9483,5.9483,5.9483,5.9483,5.9483,5.9483,5.9483,5.9483,5.9483,5.9483,5.9483,5.9483,5.9483,5.9483,5.9483,5.9483,5.9483,5.9483,4.9128,4.9128,4.9128,4.9128,4.9128,4.9128,4.9128,4.9128,4.9128,4.9128,4.9128,4.9109,4.9031,4.8952,4.8913,4.8913,4.8913,4.8913,4.8913,4.8913,4.8913,4.8913,4.8913,4.8913,4.8913,4.8913,4.8913,4.8913,4.8913,4.8913,4.8913,4.8913,4.8913,4.8913,4.8913,4.8913,4.8913,4.8913,4.8913,4.8913,4.8913,4.8913,4.8913,4.8913,4.8913,4.8913,4.8913,4.8913,4.8913,4.8913,4.8913,4.8913,4.8913,4.8913,4.8913,4.8913,4.8913,4.8913,4.8913,4.8913,4.8913,4.8913,5.0348,5.2043,5.3061,5.5319,5.6558,5.4178,5.6671,5.8696,5.6813,5.761,5.8011,5.6574,5.5942,5.5654,5.5654,5.5975,5.6876,5.872,5.9289,5.9483,5.9483,5.9483,5.9483,5.9483,5.9483,5.9483,5.9483,5.9483,5.9483,5.9483,5.9483,5.9483,5.9483,5.9483,5.9483,5.9483,5.9483,5.9483,5.9483,5.9483,5.9483,5.9483,5.9483,5.9483,5.9483,5.9483,5.9483,5.9483,5.9483,5.9483,5.9483,5.9483,5.9483,5.9483,5.0,5.0,5.0,5.0,5.0,5.0,5.0,5.0,5.0,5.0,5.0,4.9863,4.9473,4.9101,4.8913,4.8913,4.8913,4.8913,4.8913,4.8913,4.8913,4.8913,4.8913,4.8913,4.8913,4.8913,4.8913,4.8913,4.8913,4.8913,4.8913,4.8913,4.8913,4.8913,4.8913,4.8913,4.8913,4.8913,4.8913,4.8913,4.8913,4.8913,4.8913,4.8913,4.8913,4.8913,4.8913,4.8913,4.8913,4.8913,4.8913,4.8913,4.8913,4.8913,4.8913,4.8913,4.8913,4.8913,4.8913,4.8913,4.8913,4.8913,4.9124,4.9407,4.9588,5.2593,5.5127,5.4293,5.4668,5.5675,5.7219,5.5857,5.4999,5.6655,5.4875,5.3333,5.3333,5.5003,5.6311,5.659,5.8344,5.9483,5.9483,5.9483,5.9483,5.9483,5.9483,5.9483,5.9483,5.9483,5.9483,5.9483,5.9483,5.9483,5.9483,5.9483,5.9483,5.9483,5.9483,5.9483,5.9483,5.9483,5.9483,5.9483,5.9483,5.9483,5.9483,5.9483,5.9483,5.9483,5.9483,5.9483,5.9483,5.9483,5.9483,5.9483,5.0176,5.0176,5.0176,5.0176,5.0176,5.0176,5.0176,5.0176,5.0176,5.0176,5.0176,5.0098,4.9902,4.9707,4.9637,4.9637,4.9375,4.9238,4.9238,4.905,4.8913,4.8913,4.8913,4.8913,4.8913,4.8913,4.8913,4.8913,4.8913,4.8913,4.8913,4.8913,4.8913,4.8913,4.8913,4.8913,4.8913,4.8913,4.8913,4.8913,4.8913,4.8913,4.8913,4.8913,4.8913,4.8913,4.8913,4.8913,4.8913,4.8913,4.8913,4.8913,4.8913,4.8913,4.8913,4.8913,4.8913,4.8913,4.8913,4.8913,4.8913,4.8913,4.8913,4.8913,4.8913,5.0277,5.1456,5.0954,5.2909,5.4543,5.3998,5.3945,5.3895,5.362,5.2335,5.1419,5.1419,5.204,5.3433,5.5911,5.8124,5.9483,5.9483,5.9483,5.9483,5.9483,5.9483,5.9483,5.9483,5.9483,5.9483,5.9483,5.9483,5.9483,5.9483,5.9483,5.9483,5.9483,5.9483,5.9483,5.9483,5.9483,5.9483,5.9483,5.9483,5.9483,5.9483,5.9483,5.9483,5.9483,5.9483,5.9483,5.9483,5.9483,5.9483,5.9483]},{"header":{"parameterUnit":"m.s-1","parameterCategory":1,"la1":30.6,"la2":28.766,"lo1":-90.7593,"lo2":-88.6598,"dy":0.0162,"dx":0.0183,"nx":116,"ny":114,"refTime":"2023-03-15T00:00:00:Z","depth":0,"parameterNumber":3,"parameterNumberName":"V-component_of_WINDS"},"data":[0.0,0.0,0.0,0.0,0.0,0.0,0.0,0.0,0.0,0.0,0.0,0.0,0.0,0.0,0.0,0.0,0.0,0.0,0.0,0.0,0.0,0.0,0.0,0.0,0.0,0.0,0.0,0.0,0.0,0.0,0.0,0.0,0.0,0.0,0.0,0.0,0.0,0.0,0.0,0.0,0.0,0.0,0.0,0.0,0.0,0.0,0.0,0.0,0.0,0.0,0.0,0.0,0.0,0.0,0.0,0.0,0.0,0.0,0.0,0.0,0.0,0.0,0.0,0.0,0.0,0.0,0.0,0.0,0.0,0.0,0.0,0.0,0.0,0.0,0.0,0.0,0.0,0.0,0.0,0.0,0.0,0.0,0.0,0.0,0.0,0.0,0.0,0.0,0.0,0.0,0.0,0.0,0.0,0.0,0.0,0.0,0.0,0.0,0.0,0.0,0.0,0.0,0.0,0.0,0.0,0.0,0.0,0.0,0.0,0.0,0.0,0.0,0.0,0.0,0.0,0.0,0.0,0.0,0.0,0.0,0.0,0.0,0.0,0.0,0.0,0.0,0.0,0.0,0.0,0.0,0.0,0.0,0.0,0.0,0.0,0.0,0.0,0.0,0.0,0.0,0.0,0.0,0.0,0.0,0.0,0.0,0.0,0.0,0.0,0.0,0.0,0.0,0.0,0.0,0.0,0.0,0.0,0.0,0.0,0.0,0.0,0.0,0.0,0.0,0.0,0.0,0.0,0.0,0.0,0.0,0.0,0.0,0.0,0.0,0.0,0.0,0.0,0.0,0.0,0.0,0.0,0.0,0.0,0.0,0.0,0.0,0.0,0.0,0.0,0.0,0.0,0.0,0.0,0.0,0.0,0.0,0.0,0.0,0.0,0.0,0.0,0.0,0.0,0.0,0.0,0.0,0.0,0.0,0.0,0.0,0.0,0.0,0.0,0.0,0.0,0.0,0.0,0.0,0.0,0.0,0.0,0.0,0.0,0.0,0.0,0.0,0.0,0.0,0.0,0.0,0.0,0.0,0.0,0.0,0.0,0.0,0.0,0.0,0.0,0.0,0.0,0.0,0.0,0.0,0.0,0.0,0.0,0.0,0.0,0.0,0.0,0.0,0.0,0.0,0.0,0.0,0.0,0.0,0.0,0.0,0.0,0.0,0.0,0.0,0.0,0.0,0.0,0.0,0.0,0.0,0.0,0.0,0.0,0.0,0.0,0.0,0.0,0.0,0.0,0.0,0.0,0.0,0.0,0.0,0.0,0.0,0.0,0.0,0.0,0.0,0.0,0.0,0.0,0.0,0.0,0.0,0.0,0.0,0.0,0.0,0.0,0.0,0.0,0.0,0.0,0.0,0.0,0.0,0.0,0.0,0.0,0.0,0.0,0.0,0.0,0.0,0.0,0.0,0.0,0.0,0.0,0.0,0.0,0.0,0.0,0.0,0.0,0.0,0.0,0.0,0.0,0.0,0.0,0.0,0.0,0.0,0.0,0.0,0.0,0.0,0.0,0.0,0.0,0.0,0.0,0.0,0.0,0.0,0.0,0.0,0.0,0.0,0.0,0.0,0.0,0.0,0.0,0.0,0.0,0.0,0.0,0.0,0.0,0.0,0.0,0.0,0.0,0.0,0.0,0.0,0.0,0.0,0.0,0.0,0.0,0.0,0.0,0.0,0.0,0.0,0.0,0.0,0.0,0.0,0.0,0.0,0.0,0.0,0.0,0.0,0.0,0.0,0.0,0.0,0.0,0.0,0.0,0.0,0.0,0.0,0.0,0.0,0.0,0.0,0.0,0.0,0.0,0.0,0.0,0.0,0.0,0.0,0.0,0.0,0.0,0.0,0.0,0.0,0.0,0.0,0.0,0.0,0.0,0.0,0.0,0.0,0.0,0.0,0.0,0.0,0.0,0.0,0.0,0.0,0.0,0.0,0.0,0.0,0.0,0.0,0.0,0.0,0.0,0.0,0.0,0.0,0.0,0.0,0.0,0.0,0.0,0.0,0.0,0.0,0.0,0.0,0.0,0.0,0.0,0.0,0.0,0.0,0.0,0.0,0.0,0.0,0.0,0.0,0.0,0.0,0.0,0.0,0.0,0.0,0.0,0.0,0.0,0.0,0.0,0.0,0.0,0.0,0.0,0.0,0.0,0.0,0.0,0.0,0.0,0.0,0.0,0.0,0.0,0.0,0.0,0.0,0.0,0.0,0.0,0.0,0.0,0.0,0.0,0.0,0.0,0.0,0.0,0.0,0.0,0.0,0.0,0.0,0.0,0.0,0.0,0.0,0.0,0.0,0.0,0.0,0.0,0.0,0.0,0.0,0.0,0.0,0.0,0.0,0.0,0.0,0.0,0.0,0.0,0.0,0.0,0.0,0.0,0.0,0.0,0.0,0.0,0.0,0.0,0.0,0.0,0.0,0.0,0.0,0.0,0.0,0.0,0.0,0.0,0.0,0.0,0.0,0.0,0.0,0.0,0.0,0.0,0.0,0.0,0.0,0.0,0.0,0.0,0.0,0.0,0.0,0.0,0.0,0.0,0.0,0.0,0.0,0.0,0.0,0.0,0.0,0.0,0.0,0.0,0.0,0.0,0.0,0.0,0.0,0.0,0.0,0.0,0.0,0.0,0.0,0.0,0.0,0.0,0.0,0.0,0.0,0.0,0.0,0.0,0.0,0.0,0.0,0.0,0.0,0.0,0.0,0.0,0.0,0.0,0.0,0.0,0.0,0.0,0.0,0.0,0.0,0.0,0.0,0.0,0.0,0.0,0.0,0.0,0.0,0.0,0.0,0.0,0.0,0.0,0.0,0.0,0.0,0.0,0.0,0.0,0.0,0.0,0.0,0.0,0.0,0.0,0.0,0.0,0.0,0.0,0.0,0.0,0.0,0.0,0.0,0.0,0.0,0.0,0.0,0.0,0.0,0.0,0.0,0.0,0.0,0.0,0.0,0.0,0.0,0.0,0.0,0.0,0.0,0.0,0.0,0.0,0.0,0.0,0.0,0.0,0.0,0.0,0.0,0.0,0.0,0.0,0.0,0.0,0.0,0.0,0.0,0.0,0.0,0.0,0.0,0.0,0.0,0.0,0.0,0.0,0.0,0.0,0.0,0.0,0.0,0.0,0.0,0.0,0.0,0.0,0.0,0.0,0.0,0.0,0.0,0.0,0.0,0.0,0.0,0.0,0.0,0.0,0.0,0.0,0.0,0.0,0.0,0.0,0.0,0.0,0.0,0.0,0.0,0.0,0.0,0.0,0.0,0.0,0.0,0.0,0.0,0.0,0.0,0.0,0.0,0.0,0.0,0.0,0.0,0.0,0.0,0.0,0.0,0.0,0.0,0.0,0.0,0.0,0.0,0.0,0.0,0.0,0.0,0.0,0.0,0.0,0.0,0.0,0.0,0.0,0.0,0.0,0.0,0.0,0.0,0.0,0.0,0.0,0.0,0.0,0.0,0.0,0.0,0.0,0.0,0.0,0.0,0.0,0.0,0.0,0.0,0.0,0.0,0.0,0.0,0.0,0.0,0.0,0.0,0.0,0.0,0.0,0.0,0.0,0.0,0.0,0.0,0.0,0.0,0.0,0.0,0.0,0.0,0.0,0.0,0.0,0.0,0.0,0.0,0.0,0.0,0.0,0.0,0.0,0.0,0.0,0.0,0.0,0.0,0.0,0.0,0.0,0.0,0.0,0.0,0.0,0.0,0.0,0.0,0.0,0.0,0.0,0.0,0.0,0.0,0.0,0.0,0.0,0.0,0.0,0.0,0.0,0.0,0.0,0.0,0.0,0.0,0.0,0.0,0.0,0.0,0.0,0.0,0.0,0.0,0.0,0.0,0.0,0.0,0.0,0.0,0.0,0.0,0.0,0.0,0.0,0.0,0.0,0.0,0.0,0.0,0.0,0.0,0.0,0.0,0.0,0.0,0.0,0.0,0.0,0.0,0.0,0.0,0.0,0.0,0.0,0.0,0.0,0.0,0.0,0.0,0.0,0.0,0.0,0.0,0.0,0.0,0.0,0.0,0.0,0.0,0.0,0.0,0.0,0.0,0.0,0.0,0.0,0.0,0.0,0.0,0.0,0.0,0.0,0.0,0.0,0.0,0.0,0.0,0.0,0.0,0.0,0.0,0.0,0.0,0.0,0.0,0.0,0.0,0.0,0.0,0.0,0.0,0.0,0.0,0.0,0.0,0.0,0.0,0.0,0.0,0.0,0.0,0.0,0.0,0.0,0.0,0.0,0.0,0.0,0.0,0.0,0.0,0.0,0.0,0.0,0.0,0.0,0.0,0.0,0.0,0.0,0.0,0.0,0.0,0.0,0.0,0.0,0.0,0.0,0.0,0.0,0.0,0.0,0.0,0.0,0.0,0.0,0.0,0.0,0.0,0.0,0.0,0.0,0.0,0.0,0.0,0.0,0.0,0.0,0.0,0.0,0.0,0.0,0.0,0.0,0.0,0.0,0.0,0.0,0.0,0.0,0.0,0.0,0.0,0.0,0.0,0.0,0.0,0.0,0.0,0.0,0.0,0.0,0.0,0.0,0.0,0.0,0.0,0.0,0.0,0.0,0.0,0.0,0.0,0.0,0.0,0.0,0.0,0.0,0.0,0.0,0.0,0.0,0.0,0.0,0.0,0.0,0.0,0.0,0.0,0.0,0.0,0.0,0.0,0.0,0.0,0.0,0.0,0.0,0.0,0.0,0.0,0.0,0.0,0.0,0.0,0.0,0.0,0.0,0.0,0.0,0.0,0.0,0.0,0.0,0.0,0.0,0.0,0.0,0.0,0.0,0.0,0.0,0.0,0.0,0.0,0.0,0.0,0.0,0.0,0.0,0.0,0.0,0.0,0.0,0.0,0.0,0.0,0.0,0.0,0.0,0.0,0.0,0.0,0.0,0.0,0.0,0.0,0.0,0.0,0.0,0.0,0.0,0.0,0.0,0.0,0.0,0.0,0.0,0.0,0.0,0.0,0.0,0.0,0.0,0.0,0.0,0.0,0.0,0.0,0.0,0.0,0.0,0.0,0.0,0.0,0.0,0.0,0.0,0.0,0.0,0.0,0.0,0.0,0.0,0.0,0.0,0.0,0.0,0.0,0.0,0.0,0.0,0.0,0.0,0.0,0.0,0.0,0.0,0.0,0.0,0.0,0.0,0.0,0.0,0.0,0.0,0.0,0.0,0.0,0.0,0.0,0.0,0.0,0.0,0.0,0.0,0.0,0.0,0.0,0.0,0.0,0.0,0.0,0.0,0.0,0.0,0.0,0.0,0.0,0.0,0.0,0.0,0.0,0.0,0.0,0.0,0.0,0.0,0.0,0.0,0.0,0.0,0.0,0.0,0.0,0.0,0.0,0.0,0.0,0.0,0.0,0.0,0.0,0.0,0.0,0.0,0.0,0.0,0.0,0.0,0.0,0.0,0.0,0.0,0.0,0.0,0.0,0.0,0.0,0.0,0.0,0.0,0.0,0.0,0.0,0.0,0.0,0.0,0.0,0.0,0.0,0.0,0.0,0.0,0.0,0.0,0.0,0.0,0.0,0.0,0.0,0.0,0.0,0.0,0.0,0.0,0.0,0.0,0.0,0.0,0.0,0.0,0.0,0.0,0.0,0.0,0.0,0.0,0.0,0.0,0.0,0.0,0.0,0.0,0.0,0.0,0.0,0.0,0.0,0.0,0.0,0.0,0.0,0.0,0.0,0.0,0.0,0.0,0.0,0.0,0.0,0.0,0.0,0.0,0.0,0.0,0.0,0.0,0.0,0.0,0.0,0.0,0.0,0.0,0.0,0.0,0.0,0.0,0.0,0.0,0.0,0.0,0.0,0.0,0.0,0.0,0.0,0.0,0.0,0.0,0.0,0.0,0.0,0.0,0.0,0.0,0.0,0.0,0.0,0.0,0.0,0.0,0.0,0.0,0.0,0.0,0.0,0.0,0.0,0.0,0.0,0.0,0.0,0.0,0.0,0.0,0.0,0.0,0.0,0.0,0.0,0.0,0.0,0.0,0.0,0.0,0.0,0.0,0.0,0.0,0.0,0.0,0.0,0.0,0.0,0.0,0.0,0.0,0.0,0.0,0.0,0.0,0.0,0.0,0.0,0.0,0.0,0.0,0.0,3.1827,3.1455,0.0,0.0,0.0,0.0,0.0,0.0,0.0,0.0,0.0,0.0,0.0,0.0,0.0,0.0,0.0,0.0,0.0,0.0,0.0,0.0,0.0,0.0,0.0,0.0,0.0,0.0,0.0,0.0,0.0,0.0,0.0,0.0,0.0,0.0,0.0,0.0,0.0,0.0,3.4173,3.4552,3.5079,3.4803,3.4678,3.4703,0.0,0.0,0.0,0.0,0.0,0.0,0.0,0.0,0.0,0.0,0.0,0.0,0.0,0.0,0.0,0.0,0.0,0.0,0.0,0.0,0.0,0.0,0.0,0.0,0.0,0.0,0.0,0.0,0.0,0.0,0.0,0.0,0.0,0.0,0.0,0.0,0.0,0.0,0.0,0.0,0.0,0.0,0.0,0.0,0.0,0.0,0.0,0.0,0.0,0.0,0.0,0.0,0.0,0.0,0.0,0.0,0.0,0.0,0.0,0.0,0.0,0.0,0.0,0.0,0.0,0.0,0.0,0.0,0.0,0.0,3.2648,3.2061,0.0,0.0,0.0,0.0,0.0,0.0,0.0,0.0,0.0,0.0,0.0,0.0,0.0,0.0,0.0,0.0,0.0,0.0,0.0,0.0,0.0,0.0,0.0,0.0,3.1712,3.2144,3.2315,3.2566,0.0,0.0,0.0,0.0,0.0,0.0,0.0,3.3771,3.4098,3.4198,3.4751,3.5255,3.5807,3.5807,3.5606,3.5255,3.5079,0.0,0.0,0.0,0.0,0.0,0.0,0.0,0.0,0.0,0.0,0.0,0.0,0.0,0.0,0.0,0.0,0.0,0.0,0.0,0.0,0.0,0.0,0.0,0.0,0.0,0.0,0.0,0.0,0.0,0.0,0.0,0.0,0.0,0.0,0.0,0.0,0.0,0.0,0.0,0.0,0.0,0.0,0.0,0.0,0.0,0.0,0.0,0.0,0.0,0.0,0.0,0.0,0.0,0.0,0.0,0.0,0.0,0.0,0.0,0.0,0.0,0.0,0.0,3.4215,3.395,3.4643,3.4643,3.4679,3.4609,3.3254,3.2589,3.2531,3.2531,0.0,0.0,0.0,0.0,0.0,0.0,0.0,0.0,0.0,0.0,0.0,0.0,0.0,0.0,0.0,0.0,0.0,0.0,0.0,0.0,0.0,3.1763,3.2139,3.2194,3.2667,3.3014,3.309,0.0,0.0,0.0,0.0,0.0,3.3796,3.4301,3.4828,3.5282,3.5881,3.6457,3.696,3.696,3.7186,3.7513,3.6607,3.618,3.6205,0.0,0.0,0.0,0.0,0.0,0.0,0.0,0.0,0.0,0.0,0.0,0.0,0.0,0.0,0.0,0.0,0.0,0.0,0.0,0.0,0.0,0.0,0.0,0.0,0.0,0.0,0.0,0.0,0.0,0.0,0.0,0.0,0.0,0.0,0.0,0.0,0.0,0.0,0.0,0.0,0.0,3.4427,3.4938,0.0,0.0,0.0,0.0,0.0,0.0,0.0,0.0,0.0,0.0,0.0,0.0,0.0,3.7846,3.6939,3.674,3.6761,3.7013,3.6792,3.6759,3.6885,3.6885,3.6082,3.4687,3.4473,0.0,3.386,3.386,0.0,0.0,0.0,0.0,0.0,0.0,0.0,0.0,0.0,0.0,0.0,0.0,0.0,0.0,0.0,0.0,0.0,0.0,0.0,0.0,0.0,3.2365,3.2713,3.2713,3.2964,3.309,3.309,3.309,0.0,0.0,0.0,3.4048,3.4327,3.4879,3.5581,3.6458,3.701,3.7436,3.7638,3.7638,3.7764,3.799,3.7513,3.7311,3.7287,3.7538,0.0,0.0,0.0,0.0,0.0,0.0,0.0,0.0,0.0,0.0,0.0,0.0,0.0,0.0,0.0,0.0,0.0,0.0,0.0,0.0,0.0,0.0,0.0,0.0,0.0,0.0,0.0,0.0,0.0,0.0,0.0,0.0,0.0,0.0,0.0,0.0,0.0,0.0,0.0,3.5255,3.55,3.5702,3.5587,3.5237,0.0,0.0,0.0,0.0,0.0,0.0,0.0,0.0,0.0,3.9243,3.9476,3.9762,4.0134,3.9215,3.9348,4.0448,3.9541,3.9253,3.9515,3.9515,3.9066,3.8357,3.8357,3.8251,3.791,3.5436,3.4316,3.4141,0.0,0.0,0.0,0.0,3.4141,3.4141,0.0,0.0,0.0,0.0,0.0,0.0,0.0,0.0,0.0,0.0,0.0,0.0,3.2441,3.2839,3.309,3.309,3.309,3.3165,3.3291,3.3316,3.3545,3.4098,3.4248,3.4575,3.5127,3.5807,3.656,3.7387,3.7814,3.809,3.8241,3.8241,3.8291,3.8442,3.8442,3.8266,3.8015,3.8165,3.814,3.8015,0.0,0.0,0.0,0.0,0.0,0.0,0.0,0.0,0.0,0.0,0.0,0.0,0.0,0.0,0.0,0.0,0.0,0.0,0.0,0.0,0.0,0.0,0.0,0.0,0.0,0.0,0.0,0.0,0.0,0.0,0.0,0.0,0.0,0.0,0.0,0.0,0.0,3.7618,3.7498,3.7673,3.7793,3.7482,0.0,0.0,0.0,0.0,0.0,0.0,4.0456,4.0647,4.0931,4.1328,4.1467,4.1904,4.265,4.1476,4.1607,4.3075,4.1877,4.1519,4.1852,4.1852,4.1597,4.1213,4.1213,4.1213,4.0889,3.7212,3.5692,3.5626,3.5204,3.5039,3.5039,3.5039,3.5039,3.5039,0.0,0.0,0.0,0.0,0.0,0.0,0.0,0.0,0.0,0.0,0.0,3.3065,3.3065,3.309,3.309,3.309,3.309,3.3316,3.3822,3.3847,3.4098,3.4628,3.5132,3.5682,3.6281,3.7337,3.7914,3.7965,3.799,3.8291,3.8843,3.8843,3.9145,3.9597,3.9597,3.9019,3.804,3.8617,3.8542,3.8065,3.8617,0.0,0.0,0.0,0.0,0.0,0.0,0.0,0.0,0.0,0.0,0.0,0.0,0.0,0.0,0.0,0.0,0.0,0.0,0.0,0.0,0.0,0.0,0.0,0.0,0.0,0.0,0.0,0.0,0.0,0.0,0.0,0.0,0.0,0.0,0.0,0.0,0.0,0.0,4.2515,4.1322,0.0,0.0,0.0,0.0,3.9806,3.9851,4.0548,4.2095,4.2661,4.3645,4.5156,4.5685,4.5214,4.3636,4.3543,4.3566,4.3652,4.359,4.3528,4.3575,4.3575,4.2706,4.1213,4.1213,4.1213,4.1052,3.9192,3.8402,3.8237,3.6561,3.5923,3.5923,3.5923,3.5923,3.5923,0.0,0.0,0.0,0.0,0.0,0.0,0.0,0.0,3.234,3.2717,3.2964,3.309,3.309,3.309,3.309,3.309,3.3416,3.3696,3.3897,3.4223,3.4653,3.5182,3.578,3.6483,3.7387,3.8165,3.8592,3.8592,3.8919,3.9195,3.9421,3.9421,3.9697,4.0224,4.0224,4.0173,4.0098,3.9622,3.9295,3.912,3.932,3.927,0.0,0.0,0.0,0.0,0.0,0.0,0.0,0.0,0.0,0.0,0.0,0.0,0.0,0.0,0.0,0.0,0.0,0.0,0.0,0.0,0.0,0.0,0.0,0.0,0.0,0.0,0.0,0.0,0.0,0.0,0.0,0.0,0.0,0.0,0.0,0.0,0.0,4.2,4.2674,0.0,4.2371,4.3036,4.3523,4.3523,4.3838,4.4244,4.4836,4.5064,4.5404,4.5995,4.62,4.5999,4.5373,4.5373,4.5373,4.5373,4.5373,4.5373,4.5373,4.5373,4.5068,4.4466,4.4466,4.4466,4.4343,4.2612,4.1255,4.0213,3.9616,3.9354,3.9354,3.9354,3.9354,3.9354,0.0,0.0,0.0,0.0,0.0,0.0,0.0,0.0,3.2641,3.304,3.309,3.309,3.309,3.309,3.3165,3.3366,3.3696,3.4048,3.4402,3.4977,3.5529,3.6058,3.681,3.7587,3.8291,3.8869,3.917,3.917,3.9697,3.9973,3.9973,4.0174,4.0424,4.0775,4.0775,4.0976,4.1252,4.0524,4.0249,4.0249,4.0249,4.0249,4.0249,0.0,0.0,0.0,0.0,0.0,0.0,0.0,0.0,0.0,0.0,0.0,0.0,0.0,0.0,0.0,0.0,0.0,0.0,0.0,0.0,0.0,0.0,0.0,0.0,0.0,0.0,0.0,0.0,0.0,0.0,0.0,0.0,0.0,0.0,4.3341,4.3344,4.2822,4.4031,4.4559,4.3727,4.4958,4.5773,4.5773,4.61,4.6301,4.6301,4.6301,4.6301,4.6301,4.6301,4.6401,4.6572,4.6572,4.6647,4.6853,4.6853,4.6853,4.6853,4.6853,4.6853,4.6853,4.6853,4.6853,4.6762,4.5612,4.4474,4.3298,4.1797,4.1213,4.1213,4.1213,4.1213,4.13,0.0,0.0,0.0,0.0,0.0,0.0,0.0,3.2717,3.309,3.309,3.309,3.309,3.309,3.309,3.3316,3.3847,3.3922,3.4377,3.5458,3.6081,3.6658,3.7235,3.8316,3.8894,3.8919,3.9421,3.9697,3.9722,4.0276,4.0578,4.0603,4.1158,4.141,4.1381,4.1381,4.1379,4.1352,4.1352,4.1352,4.1352,4.13,4.1302,4.1302,0.0,0.0,0.0,0.0,0.0,0.0,0.0,0.0,0.0,0.0,0.0,0.0,0.0,0.0,0.0,0.0,0.0,0.0,0.0,0.0,0.0,0.0,0.0,0.0,0.0,0.0,0.0,0.0,0.0,0.0,0.0,0.0,0.0,4.4614,4.4614,4.484,4.5447,4.5522,4.5723,4.625,4.6301,4.6301,4.6301,4.6301,4.6326,4.6326,4.6326,4.6351,4.6351,4.6351,4.6597,4.7124,4.7124,4.7375,4.7908,4.7908,4.7908,4.7908,4.7908,4.7908,4.7908,4.7908,4.7908,4.7908,4.7908,4.7908,4.7471,4.3116,4.1418,4.1418,4.1418,4.1418,4.171,0.0,0.0,0.0,0.0,0.0,0.0,0.0,3.2989,3.309,3.309,3.309,3.309,3.309,3.309,3.3316,3.3847,3.4274,3.4951,3.608,3.6683,3.7411,3.8391,3.8718,3.9095,3.9472,3.9622,3.9898,4.03,4.1441,4.2214,4.2632,4.379,4.4007,4.3387,4.3387,4.3086,4.2534,4.2534,4.2534,4.2459,4.1628,4.1302,4.1302,0.0,0.0,0.0,0.0,0.0,0.0,0.0,0.0,0.0,0.0,0.0,0.0,0.0,0.0,0.0,0.0,0.0,0.0,0.0,0.0,0.0,0.0,0.0,0.0,0.0,0.0,0.0,0.0,0.0,0.0,0.0,4.5246,4.5246,4.5246,4.5246,4.5447,4.6024,4.6075,4.615,4.6301,4.6301,4.6301,4.6301,4.6301,4.6476,4.6848,4.6873,4.7048,4.7456,4.7481,4.7531,4.7682,4.7682,4.7726,4.7908,4.7908,4.7908,4.7908,4.7908,4.7908,4.7908,4.7908,4.7908,4.7908,4.7908,4.7908,4.7789,4.6535,4.6043,4.6043,4.6043,4.6043,4.613,0.0,0.0,0.0,0.0,0.0,0.0,0.0,3.309,3.309,3.309,3.309,3.309,3.309,3.3316,3.3646,3.4198,3.4728,3.5506,3.6658,3.7462,3.8316,3.9195,3.9245,3.9396,3.9697,3.9923,4.0487,4.1363,4.2655,4.3718,4.4627,4.5683,4.5909,4.5387,4.5077,4.4642,4.4181,4.3846,4.3664,4.3614,4.2933,4.2406,4.2005,4.2005,4.2005,4.2005,4.2005,4.1882,4.1681,4.1681,0.0,0.0,0.0,0.0,0.0,0.0,0.0,0.0,0.0,0.0,0.0,0.0,0.0,0.0,0.0,0.0,0.0,0.0,0.0,0.0,0.0,0.0,0.0,0.0,4.5824,4.5824,4.5824,4.5824,4.5949,4.6276,4.6301,4.6301,4.6301,4.6301,4.6371,4.6622,4.6622,4.6873,4.74,4.7425,4.7575,4.7908,4.7908,4.8033,4.8259,4.851,4.8736,4.8962,4.9213,4.9314,4.9314,4.9314,4.9314,4.9314,4.9314,4.9314,4.9314,4.9314,4.9314,4.9213,0.0,0.0,0.0,0.0,4.7908,4.7933,0.0,0.0,0.0,0.0,0.0,0.0,0.0,3.309,3.309,3.309,3.309,3.309,3.309,3.3571,3.4123,3.4653,3.5232,3.6108,3.7287,3.8541,3.9424,3.9878,4.0057,4.016,4.0236,4.0693,4.1621,4.3026,4.4142,4.5347,4.6648,4.7362,4.7589,4.7412,4.6759,4.6407,4.6214,4.5454,4.4998,4.4879,4.4879,4.4212,4.319,4.319,4.319,4.319,4.319,4.2864,4.2462,4.2462,0.0,0.0,0.0,0.0,0.0,0.0,0.0,0.0,0.0,0.0,0.0,0.0,0.0,0.0,0.0,0.0,0.0,0.0,0.0,0.0,0.0,0.0,0.0,0.0,4.6301,4.6301,4.6301,4.6346,4.6376,4.6326,4.6346,4.6401,4.6401,4.6451,4.6702,4.7149,4.7199,4.7425,4.7983,4.8008,0.0,0.0,0.0,4.846,4.9069,4.954,5.0017,5.0519,5.1046,5.1306,5.1306,5.1306,5.1306,5.1306,5.1306,5.1306,5.1306,5.1306,5.1356,5.1172,4.9088,4.8284,4.8284,4.8284,4.8284,4.836,0.0,0.0,0.0,0.0,0.0,0.0,0.0,3.309,3.309,3.309,3.309,3.309,3.309,3.3571,3.4123,3.4653,3.5629,3.6884,3.8467,4.0126,4.1114,4.1244,4.223,4.3003,4.3566,4.365,4.4343,4.5575,4.6873,4.7881,4.8694,5.0389,5.0637,4.9617,4.9962,4.949,4.8459,4.83,4.7564,4.6453,4.6453,4.5587,4.4292,4.4292,4.4292,4.4292,4.4292,4.4213,4.4141,4.4141,4.4037,4.3962,4.3962,4.3962,0.0,0.0,0.0,0.0,0.0,0.0,0.0,0.0,0.0,0.0,0.0,0.0,0.0,0.0,0.0,0.0,0.0,0.0,0.0,4.6301,4.6301,4.6301,4.6301,4.6672,4.6772,4.6351,4.6672,4.6948,4.6948,4.7324,4.7631,4.7757,4.7757,4.8008,4.8592,4.8642,4.9012,4.9884,4.9941,5.0218,5.0828,5.0929,5.0996,5.1122,5.1222,0.0,5.1306,5.1306,5.1306,5.1306,5.1306,5.1306,5.1306,5.1306,5.1548,5.185,5.0971,5.0619,5.0619,5.0619,5.0619,5.0677,0.0,0.0,0.0,0.0,0.0,0.0,0.0,3.3556,3.389,3.389,3.4345,3.4777,3.5135,3.5669,3.6229,3.6783,3.7638,3.8869,4.0691,4.1299,4.1887,4.252,4.317,4.3804,4.4484,4.4764,4.5693,4.7306,4.8284,4.9407,5.0709,5.172,5.2029,5.1714,5.1595,5.1187,5.0535,5.0097,4.9034,4.7689,4.7689,4.6797,4.5367,4.4815,4.4589,4.4589,4.4589,4.4589,4.4589,4.4589,4.4589,4.4589,4.4589,4.4589,4.4589,0.0,0.0,0.0,0.0,0.0,0.0,0.0,0.0,0.0,0.0,0.0,0.0,0.0,0.0,4.6301,4.6301,0.0,4.6301,4.6301,4.6552,4.6697,4.6697,4.7149,4.7299,4.6747,4.7149,4.75,4.75,4.7757,4.8033,4.8309,4.8586,4.8987,4.9565,4.9899,5.0326,5.082,5.0845,5.0996,5.1306,5.1825,5.2101,5.2126,5.2653,5.2964,5.2964,5.2964,5.2964,5.2964,5.2964,5.2964,5.2964,5.2964,5.3115,5.3306,5.3064,5.2578,5.2101,5.2101,5.2101,5.2101,0.0,0.0,0.0,0.0,0.0,0.0,0.0,3.3827,3.447,3.4677,3.542,3.6241,3.7116,3.7724,3.8497,3.9431,3.9905,4.0921,4.273,4.2514,4.2786,4.3811,4.4116,4.4593,4.5424,4.5854,4.6983,4.8846,4.9345,5.049,5.2187,5.2336,5.2755,5.3389,5.2829,5.2633,5.2555,5.1851,5.0713,4.9336,4.9051,4.8065,4.6594,4.5385,4.4916,4.4916,4.4916,4.4916,4.4916,4.4916,4.4916,4.4916,4.4916,4.4916,4.4916,4.4916,4.5271,0.0,0.0,0.0,0.0,0.0,0.0,0.0,0.0,4.6301,4.6301,4.6301,4.6301,4.6301,4.6301,4.6401,4.6476,4.6476,4.6898,4.7249,4.7249,4.7732,4.7908,4.7475,4.7832,4.8083,4.8083,4.8259,4.8586,4.9063,4.9615,5.0117,5.0569,5.1021,5.1406,5.1599,5.1599,5.1699,5.1959,5.2804,5.3256,5.3256,5.4135,5.4597,5.4597,5.4597,5.4597,5.4597,5.4597,5.4597,5.4622,5.4723,5.4773,5.4773,5.4873,5.4336,5.3497,5.3296,5.3256,5.3256,0.0,0.0,0.0,0.0,0.0,0.0,0.0,0.0,3.362,3.4594,3.4794,3.5459,3.7035,3.7744,3.8988,4.1211,4.1434,4.2016,4.3338,4.4391,4.5047,4.5184,4.6277,4.7473,4.8743,4.8832,4.9532,5.0868,5.0958,5.1387,5.2217,5.2785,5.3443,5.4107,5.4609,5.4832,5.4832,5.4739,5.386,5.2375,5.0989,4.9565,4.8097,4.6662,4.6125,4.6125,4.6125,4.6125,4.6125,4.6125,4.6125,4.6125,4.6125,4.6125,4.6125,4.6125,4.6175,4.6225,4.6225,4.625,4.6301,4.6301,4.6301,4.6301,0.0,4.6301,4.6301,4.6301,4.6301,4.6301,4.6301,4.6672,4.7023,4.7023,4.745,4.7832,4.7832,4.8309,4.8693,4.8642,4.8667,4.8718,4.8718,4.9565,5.0135,5.0218,5.077,5.1155,5.1205,5.1247,5.1724,5.2669,5.2719,5.3206,5.422,5.4346,5.4421,5.4421,5.4547,5.4597,5.4597,5.4597,5.4597,5.4597,5.4597,5.4597,5.4647,5.5125,5.529,5.534,5.5842,5.5942,5.5717,5.4737,5.4421,5.4421,0.0,0.0,0.0,0.0,0.0,0.0,0.0,0.0,0.0,3.4656,3.5769,3.7082,3.8564,4.0164,4.1868,4.3646,4.3138,4.3541,4.5579,4.5531,4.5734,4.6484,4.7019,4.7908,4.9247,4.9277,4.9935,5.1206,5.1206,5.1738,5.2809,5.3079,5.3767,5.479,5.5059,5.5179,5.5128,5.4278,5.3042,5.1508,5.0044,4.856,4.7146,4.6541,4.6301,4.6301,4.6301,4.6301,0.0,4.6301,4.6301,4.6301,4.6301,4.6301,4.6301,4.6301,4.6301,4.6301,4.6301,4.6301,4.6301,4.6301,4.6301,4.6301,4.6301,4.6301,4.6401,4.6697,4.6772,4.6848,4.7179,4.7431,4.7581,4.7581,4.8058,4.841,4.841,4.8887,4.9364,4.969,4.9715,4.9715,4.9715,5.0444,5.0921,5.0921,5.1448,5.19,5.2226,5.2528,5.3055,5.3858,5.3884,5.4145,5.4597,5.4924,5.5074,5.5074,5.5365,5.5516,5.5516,5.5516,5.5516,5.5516,5.5516,5.5516,5.5541,5.5767,5.5867,5.5892,5.6118,5.6219,5.6168,5.5691,5.5516,5.5516,0.0,0.0,0.0,0.0,0.0,0.0,0.0,0.0,0.0,0.0,3.6259,3.8083,4.0032,4.2061,4.3758,4.4915,4.4351,4.4652,4.6401,4.6145,4.6188,4.6748,4.7106,4.7908,4.9247,4.9277,4.9935,5.1206,5.1206,5.1887,5.3198,5.3198,5.3917,5.5179,5.5179,5.5179,5.5128,5.4042,5.2722,5.1208,4.9706,4.8213,4.6874,4.6451,4.6301,4.6301,4.6301,4.6301,4.6301,4.6301,4.6301,4.6301,4.6301,4.6301,4.6301,4.6301,4.6301,4.6301,4.6301,4.6301,4.6301,4.6301,4.6396,4.6522,4.6522,4.6652,4.6853,4.7224,4.7324,4.7425,4.7832,4.8033,4.8159,4.8159,4.8636,4.9044,4.9044,4.9464,4.9967,5.0336,5.0695,5.087,5.087,5.1272,5.1574,5.1724,5.2251,5.2779,5.3356,5.3733,5.4245,5.4798,5.4823,5.4898,5.5049,5.5415,5.5616,5.5616,5.6018,5.6219,5.6219,5.6219,5.6219,5.6219,5.6219,5.6219,5.6219,5.6219,5.6219,5.6219,5.6219,5.6219,5.6219,5.6219,5.6219,5.6219,0.0,0.0,0.0,0.0,0.0,0.0,0.0,0.0,0.0,0.0,0.0,0.0,0.0,4.2512,4.3579,4.4267,4.4874,4.5018,4.4505,4.6218,4.6704,4.5531,4.6638,4.7908,4.9247,4.9277,4.9935,5.1206,5.1206,5.1887,5.3198,5.3198,5.3917,5.5179,5.5179,5.5179,5.5179,5.5154,5.4278,5.2804,5.1235,4.9763,4.8297,4.6845,4.6301,4.6301,4.6301,4.6301,4.6301,4.6301,4.6301,4.6301,4.6301,4.6301,4.6301,4.6301,4.6301,4.6301,4.6301,4.6301,4.6301,4.6301,4.6672,4.7074,4.7074,4.7475,4.7857,4.7883,4.7883,4.7883,4.7908,4.836,4.8768,4.8768,4.9213,4.9565,4.9565,5.0042,5.0361,5.0386,5.1398,5.2051,5.2051,5.2076,5.2302,5.2795,5.3356,5.3909,5.4522,5.4572,5.4823,5.534,5.5365,5.5616,5.6168,5.6168,5.6194,5.6194,5.6194,5.6219,5.6219,5.6219,5.6219,5.6219,5.6219,5.6219,5.6219,5.6219,5.6219,5.6219,5.6219,5.6219,5.6219,5.6219,5.6219,5.6219,0.0,0.0,0.0,0.0,0.0,0.0,0.0,0.0,0.0,0.0,0.0,0.0,0.0,0.0,0.0,0.0,4.4221,4.4613,4.5613,4.6683,4.7106,4.6682,4.7062,4.7908,4.9247,4.9277,4.9935,5.1206,5.1206,5.1678,5.2546,5.2989,5.3683,5.4551,5.4999,5.5179,5.5128,5.4145,5.2855,5.1345,4.9847,4.8358,4.6968,4.6481,4.6301,4.6301,0.0,4.6301,4.6301,4.6301,4.6301,4.6301,4.6301,4.6301,4.6376,4.6722,4.6823,4.6823,4.6823,4.6823,4.6823,4.6823,4.7224,4.7626,4.7626,4.7782,4.8008,4.841,4.8517,4.8586,4.8962,4.9188,4.9314,4.9314,4.9791,5.0142,5.0142,5.0619,5.1122,5.1498,5.2201,5.2779,5.313,5.3155,5.3231,5.3432,5.3959,5.4547,5.5089,5.515,5.5365,5.5917,5.5942,5.6018,5.6219,5.6219,5.6219,5.6219,5.6219,5.6219,5.6219,5.6219,5.6219,5.6219,5.6219,5.6219,5.6219,5.6219,5.6219,5.6219,5.6219,5.6219,5.6219,5.6219,5.6219,5.6219,0.0,0.0,0.0,0.0,0.0,0.0,0.0,0.0,0.0,0.0,0.0,0.0,0.0,0.0,0.0,0.0,0.0,4.4496,4.5215,4.6534,4.7084,4.6638,4.7062,4.7908,4.9247,4.9277,4.9935,5.1206,5.1206,5.1558,5.2217,5.2636,5.3324,5.4221,5.464,5.497,5.5103,5.3623,5.2429,5.1372,4.9903,4.8416,4.7087,4.7087,4.6755,0.0,4.6301,4.6301,4.6301,4.6301,4.6301,4.6301,4.6301,4.6451,4.6647,4.6998,4.7224,4.7324,4.7149,4.7249,4.7375,4.7375,4.7807,4.8209,4.8209,4.836,4.8611,4.9019,4.9095,4.927,4.9791,4.9715,4.9715,5.0142,5.0318,5.0494,5.0695,5.1222,5.1774,5.2327,5.2879,5.3406,5.3959,5.4185,5.431,5.431,5.4672,5.5125,5.5641,5.5691,5.5842,5.6194,5.6219,5.6219,5.6219,5.6219,5.6219,5.6219,5.6219,5.6219,5.6219,5.6219,5.6319,5.6483,5.6483,5.662,5.6821,5.6821,5.6821,5.6821,5.6821,5.6821,5.6821,5.6821,5.6821,5.6771,0.0,0.0,0.0,0.0,0.0,0.0,0.0,0.0,0.0,0.0,0.0,0.0,0.0,0.0,0.0,0.0,0.0,0.0,4.3394,4.574,4.6631,4.5434,4.6616,4.7908,4.9247,4.9277,4.9935,5.1206,5.1206,5.1528,5.2157,5.2217,5.2935,5.4162,5.4221,5.461,5.5103,5.3701,5.3016,5.2749,5.129,4.9791,4.8387,4.8387,4.7505,4.6301,4.6301,4.6301,4.6301,4.6301,4.6301,4.6301,4.6301,4.6672,4.7124,4.7124,4.75,4.7807,4.7299,4.755,4.7958,4.7958,4.8385,4.8843,4.8843,4.9213,4.9615,4.964,4.964,4.9816,5.0368,5.0042,5.0042,5.1096,5.0845,5.0695,5.1247,5.1825,5.2377,5.287,5.3457,5.4009,5.4597,5.515,5.544,5.544,5.544,5.5666,5.6194,5.6219,5.6219,5.6219,5.6219,5.6219,5.6219,5.6219,5.6219,5.6219,5.6244,5.6244,5.6244,5.6294,5.6533,5.7035,5.7035,5.7361,5.7901,5.7901,5.7901,5.7901,5.7901,5.7901,5.7901,5.7901,5.7901,5.775,0.0,0.0,0.0,0.0,0.0,0.0,0.0,0.0,0.0,0.0,0.0,0.0,0.0,0.0,0.0,0.0,0.0,0.0,4.206,4.4104,4.5308,4.5411,4.6616,4.7908,4.9247,4.9277,4.9935,5.1206,5.1206,5.1295,5.1498,5.2486,5.3139,5.3503,5.4491,5.5029,5.5179,5.4794,5.3332,5.1263,5.0878,4.9167,4.6874,4.6874,4.6606,4.6301,4.6301,4.6301,4.6301,4.6301,4.6301,4.6301,4.6301,4.6672,4.7174,4.7575,4.7807,4.7983,4.8259,4.8492,4.8592,4.8592,4.8994,4.9389,4.9389,4.949,4.9715,5.0117,5.0218,5.0393,5.0946,5.0946,5.0946,5.1255,5.1498,5.1724,5.1875,5.2703,5.3356,5.3482,5.4361,5.5013,5.5164,5.5666,5.6018,5.6018,5.6018,5.6068,5.6194,5.6219,5.6219,5.6219,5.6219,5.6219,5.6219,5.6219,5.6219,5.6219,5.6584,5.6784,5.6809,5.7273,5.7549,5.7675,5.7675,5.775,5.7901,5.7901,5.7901,5.7901,5.7901,5.7901,5.7901,5.7901,5.7901,5.7851,0.0,0.0,0.0,0.0,0.0,0.0,0.0,0.0,0.0,0.0,0.0,0.0,0.0,0.0,0.0,0.0,0.0,0.0,0.0,4.2992,4.4027,4.453,4.5779,4.6977,4.8001,4.8879,4.9786,5.0757,5.1056,5.1206,5.1206,5.1977,5.2486,5.2785,5.3533,5.4192,5.4735,5.4069,5.336,0.0,0.0,4.9707,4.8155,4.7505,4.6874,4.6301,4.6301,4.6301,4.6301,4.6301,4.6301,4.6351,4.6572,4.7023,4.75,4.7832,4.8259,4.8661,4.8793,4.8969,4.917,4.917,4.9364,4.9665,4.9891,4.9967,5.0117,5.067,5.0795,5.0971,5.1548,5.1448,5.1448,5.1925,5.2076,5.2176,5.2427,5.3181,5.3808,5.4059,5.4863,5.5491,5.5717,5.6018,5.6219,5.6219,5.6219,5.6219,5.6219,5.6219,5.6219,5.6219,5.6219,5.6219,5.6219,5.6408,5.6533,5.6533,5.7111,5.7387,5.7424,5.775,5.8027,5.8252,5.8252,5.8378,5.8604,5.8604,5.8604,5.8604,5.8604,5.8604,5.8604,5.8604,5.8604,5.8604,0.0,0.0,0.0,0.0,0.0,0.0,0.0,0.0,0.0,0.0,0.0,0.0,0.0,0.0,0.0,0.0,0.0,0.0,0.0,0.0,4.2571,4.3128,4.4437,4.5539,4.6385,4.8054,4.9298,5.0099,5.0757,5.1056,5.1056,5.1236,5.1648,5.2187,5.2276,5.2995,5.3973,5.2493,5.2898,5.4208,5.1423,5.0214,4.9988,0.0,4.7416,4.6301,4.6301,4.6301,4.6301,4.6301,4.6301,4.6401,4.6848,4.735,4.7832,4.7883,4.8661,4.9389,4.9019,4.927,4.959,4.959,4.959,4.9741,5.0293,5.0386,5.0594,5.1247,5.1431,5.1548,5.2126,5.1825,5.1825,5.2744,5.2528,5.2402,5.292,5.3482,5.4034,5.4647,5.52,5.5691,5.6168,5.6219,5.6219,5.6219,5.6219,5.6219,5.6219,5.6219,5.6219,5.6219,5.6294,5.6319,5.6319,5.6835,5.7111,5.7111,5.7725,5.8001,5.8001,5.8077,5.8378,5.883,5.883,5.9081,5.9483,5.9483,5.9483,5.9483,5.9483,5.9483,5.9483,5.9483,5.9483,5.9483,0.0,0.0,0.0,0.0,0.0,0.0,0.0,0.0,0.0,0.0,3.319,3.3596,0.0,0.0,0.0,0.0,0.0,0.0,0.0,0.0,0.0,4.1239,4.2896,4.4631,4.6356,4.6732,4.7737,4.9456,5.0069,5.0375,5.0398,5.1505,5.2097,5.2217,5.2779,5.3169,5.328,5.1845,5.1033,5.0509,4.8864,4.7736,4.7027,4.6785,0.0,0.0,4.6301,4.6301,4.6301,4.6301,4.6301,4.6326,4.6396,4.6798,4.7324,4.7782,4.8385,4.9019,4.9364,4.9515,4.959,4.959,4.959,4.9741,5.0293,5.0386,5.072,5.1749,5.1975,5.2126,5.2644,5.2669,5.2669,5.287,5.282,5.2945,5.3507,5.4059,5.4672,5.5189,5.5742,5.6118,5.6194,5.6219,5.6219,5.6219,5.6219,5.6219,5.6219,5.6219,5.6219,5.6219,5.6609,5.686,5.686,5.7474,5.775,5.775,5.8303,5.8541,5.8604,5.9031,5.9257,5.9357,5.9357,5.9408,5.9483,5.9483,5.9483,5.9483,5.9483,5.9483,5.9483,5.9483,5.9483,5.9483,0.0,0.0,0.0,0.0,0.0,0.0,0.0,3.309,3.309,3.309,3.309,3.3416,3.4198,3.4527,0.0,0.0,0.0,0.0,0.0,0.0,0.0,3.9767,4.1302,4.2644,4.387,4.4896,4.5869,4.6823,0.0,4.8257,4.9228,4.9868,5.0727,5.1661,5.1276,5.1307,5.1556,5.0138,4.9494,4.9279,4.8148,4.7443,4.6971,0.0,0.0,0.0,4.6301,4.6301,4.6301,4.6301,4.6301,4.6301,4.6301,4.6848,4.755,4.7832,4.851,4.9264,4.9515,4.959,4.959,4.959,4.959,4.9816,5.067,5.087,5.1172,5.2302,5.2528,5.2569,5.2845,5.2895,5.2895,5.2895,5.2895,5.3071,5.3632,5.4245,5.4798,5.5315,5.5867,5.6219,5.6219,5.6219,5.6219,5.6219,5.6219,5.6219,5.6219,5.6219,5.6344,5.6584,5.686,5.7136,5.7474,5.8052,5.8328,5.8328,5.8855,5.9131,5.9131,5.9382,5.9483,5.9483,5.9483,5.9483,5.9483,5.9483,5.9483,5.9483,5.9483,5.9483,5.9483,5.9483,5.9483,5.9483,0.0,0.0,0.0,0.0,0.0,0.0,0.0,3.309,3.309,3.309,3.309,3.3266,3.3671,3.4324,3.4929,0.0,0.0,0.0,0.0,0.0,0.0,0.0,0.0,0.0,4.1406,0.0,0.0,4.4294,4.4948,0.0,0.0,0.0,0.0,0.0,4.9057,4.8934,4.9433,4.8021,4.7802,0.0,0.0,4.7022,4.7166,0.0,0.0,0.0,0.0,4.6301,4.6301,4.6301,4.6301,4.6326,4.6451,4.7129,4.7933,4.8058,4.8812,4.959,4.959,4.959,4.959,4.959,4.969,5.0042,5.1046,5.1406,5.1724,5.2694,5.2895,5.2895,5.2895,5.2895,5.2895,5.2895,5.2995,5.3246,5.3808,5.4421,5.4974,5.5491,5.5942,5.6219,5.6219,5.6219,5.6219,5.6219,5.6219,5.6219,5.6219,5.6219,5.647,5.6985,5.7111,5.7462,5.8077,5.8604,5.888,5.8905,5.9307,5.9483,5.9483,5.9483,5.9483,5.9483,5.9483,5.9483,5.9483,5.9483,5.9483,5.9483,5.9483,5.9483,5.9483,5.9483,5.9483,5.9483,0.0,0.0,0.0,0.0,0.0,0.0,0.0,3.309,3.309,3.309,3.309,3.3115,3.3165,3.4098,3.4929,0.0,0.0,0.0,0.0,0.0,0.0,0.0,0.0,0.0,0.0,0.0,0.0,4.3586,4.4266,0.0,0.0,0.0,0.0,0.0,0.0,4.6878,4.728,4.5874,0.0,0.0,0.0,0.0,0.0,0.0,0.0,0.0,0.0,4.6301,4.6301,4.6301,4.6301,4.6401,4.6873,4.7425,4.8008,4.8567,4.9145,4.959,4.959,4.959,4.959,4.959,4.9967,5.0519,5.1147,5.1674,5.2201,5.277,5.2895,5.2895,5.2895,5.2895,5.2895,5.2895,5.3331,5.3833,5.4446,5.4963,5.5516,5.6068,5.6168,5.6219,5.6219,5.6219,5.6219,5.6219,5.6219,5.6219,5.6219,5.6219,5.647,5.6985,5.7549,5.8077,5.8591,5.9156,5.9433,5.9433,5.9483,5.9483,5.9483,5.9483,5.9483,5.9483,5.9483,5.9483,5.9483,5.9483,5.9483,5.9483,5.9483,5.9483,5.9483,5.9483,5.9483,5.9483,0.0,0.0,0.0,0.0,0.0,0.0,3.309,3.309,3.309,3.309,3.309,3.309,3.309,3.3771,3.4427,0.0,0.0,0.0,0.0,0.0,0.0,0.0,0.0,0.0,0.0,0.0,4.0383,4.1219,4.148,0.0,0.0,0.0,0.0,0.0,0.0,4.4874,4.5256,4.388,0.0,0.0,0.0,0.0,0.0,0.0,0.0,0.0,0.0,0.0,4.6301,4.6301,4.6301,4.6451,4.7299,4.7732,4.8033,4.8642,4.9195,4.959,4.959,4.959,4.959,4.959,5.0017,5.0569,5.1147,5.1699,5.2251,5.277,5.2895,5.2895,5.2895,5.2895,5.2895,5.2895,5.3356,5.3909,5.4522,5.5074,5.5591,5.6143,5.6219,5.6219,5.6219,5.6219,5.6219,5.6219,5.6219,5.6219,5.6219,5.652,5.6935,5.7524,5.8102,5.8654,5.9182,5.9382,5.9483,5.9483,5.9483,5.9483,5.9483,5.9483,5.9483,5.9483,5.9483,5.9483,5.9483,5.9483,5.9483,5.9483,5.9483,5.9483,5.9483,5.9483,5.9483,5.9483,0.0,0.0,0.0,0.0,0.0,3.2547,3.2547,3.2874,3.309,3.309,3.309,3.309,3.309,3.3571,3.4123,3.4653,3.5579,0.0,0.0,0.0,0.0,0.0,0.0,0.0,0.0,0.0,3.9095,3.9472,3.9622,4.0389,0.0,0.0,4.2565,4.3981,0.0,0.0,0.0,0.0,0.0,0.0,0.0,0.0,0.0,0.0,0.0,0.0,0.0,0.0,0.0,0.0,0.0,4.6502,4.7581,4.7908,4.8058,4.8786,4.9289,4.959,4.959,4.959,4.959,4.959,5.0142,5.077,5.1197,5.1825,5.2452,5.282,5.2895,5.2895,5.2895,5.2895,5.2895,5.2895,5.3507,5.411,5.4547,5.5189,5.5767,5.6168,5.6219,5.6219,5.6219,5.6219,5.6219,5.6219,5.6219,5.6294,5.6408,5.6935,5.7474,5.7901,5.8428,5.8981,5.9483,5.9483,5.9483,5.9483,5.9483,5.9483,5.9483,5.9483,5.9483,5.9483,5.9483,5.9483,5.9483,5.9483,5.9483,5.9483,5.9483,5.9483,5.9483,5.9483,5.9483,5.9483,0.0,0.0,0.0,0.0,0.0,0.0,3.1223,3.2283,3.309,3.309,3.309,3.309,3.309,3.3571,3.4123,3.4653,3.5182,0.0,0.0,0.0,0.0,0.0,0.0,0.0,0.0,0.0,3.8894,3.8894,3.9446,3.9697,3.9723,3.9723,4.0024,4.0552,0.0,0.0,0.0,0.0,0.0,0.0,0.0,0.0,4.4665,0.0,0.0,0.0,0.0,0.0,0.0,0.0,0.0,0.0,0.0,4.7908,4.8134,4.9264,4.959,4.959,4.959,4.959,4.959,4.959,5.0444,5.1306,5.1306,5.2126,5.2895,5.2895,5.2895,5.2895,5.2895,5.2895,5.2895,5.2895,5.3833,5.4597,5.4597,5.5516,5.6194,5.6219,5.6219,5.6219,5.6219,5.6219,5.6219,5.6219,5.6219,5.6408,5.696,5.7575,5.7901,5.7901,5.8428,5.8981,5.9483,5.9483,5.9483,5.9483,5.9483,5.9483,5.9483,5.9483,5.9483,5.9483,5.9483,5.9483,5.9483,5.9483,5.9483,5.9483,5.9483,5.9483,5.9483,5.9483,5.9483,5.9483,0.0,0.0,0.0,0.0,0.0,0.0,0.0,3.1557,3.213,3.2982,3.309,3.309,3.309,3.3266,3.3571,3.4123,3.4979,0.0,0.0,0.0,0.0,0.0,0.0,0.0,0.0,0.0,0.0,0.0,3.907,3.9346,3.9697,3.9697,3.9798,3.9948,3.9948,4.0249,0.0,0.0,0.0,0.0,0.0,4.3564,4.4116,0.0,0.0,0.0,0.0,0.0,0.0,0.0,0.0,0.0,0.0,0.0,0.0,4.8843,4.9289,4.959,4.959,4.959,4.969,5.0067,5.072,5.1406,5.1749,5.2402,5.2895,5.2895,5.2895,5.2895,5.2895,5.2895,5.2895,5.2895,5.3858,5.4597,5.4597,5.5516,5.6219,5.6219,5.6219,5.6219,5.6219,5.6219,5.6219,5.6219,5.6219,5.6408,5.696,5.7575,5.8077,5.8453,5.8981,5.9332,5.9483,5.9483,5.9483,5.9483,5.9483,5.9483,5.9483,5.9483,5.9483,5.9483,5.9483,5.9483,5.9483,5.9483,5.9483,5.9483,5.9483,5.9483,5.9483,5.9483,5.9483,5.9483,0.0,0.0,0.0,0.0,0.0,0.0,0.0,3.0911,3.1667,3.2939,3.309,3.309,3.309,3.309,3.3316,3.3847,3.4703,0.0,0.0,0.0,0.0,0.0,0.0,0.0,0.0,0.0,0.0,0.0,0.0,0.0,3.9396,3.9597,3.9697,3.9697,3.9697,3.9898,0.0,0.0,0.0,0.0,4.2788,4.3313,4.3865,0.0,0.0,0.0,0.0,0.0,0.0,0.0,0.0,0.0,0.0,0.0,0.0,0.0,4.9195,4.959,4.959,4.959,4.9715,5.0268,5.0845,5.1423,5.1975,5.2494,5.2895,5.2895,5.2895,5.2895,5.2895,5.2895,5.2895,5.2895,5.3858,5.4597,5.4597,5.5516,5.6219,5.6219,5.6219,5.6219,5.6219,5.6219,5.6219,5.6219,5.6219,5.6545,5.7286,5.77,5.8252,5.8981,5.9332,5.9483,5.9483,5.9483,5.9483,5.9483,5.9483,5.9483,5.9483,5.9483,5.9483,5.9483,5.9483,5.9483,0.0,5.9483,5.9483,5.9483,5.9483,5.9483,5.9483,5.9483,5.9483,5.9483,0.0,0.0,0.0,0.0,0.0,0.0,0.0,3.0282,3.1534,3.281,3.3047,3.309,3.309,3.309,3.3316,3.3796,0.0,0.0,0.0,0.0,0.0,0.0,0.0,0.0,0.0,0.0,0.0,3.721,3.8266,3.8818,3.8894,0.0,3.9647,3.9697,3.9697,3.9697,0.0,0.0,0.0,0.0,4.2738,4.3237,0.0,0.0,0.0,0.0,0.0,0.0,0.0,0.0,0.0,0.0,0.0,0.0,0.0,0.0,0.0,0.0,0.0,4.959,4.9741,5.0318,5.0896,5.1448,5.2026,5.2519,0.0,5.2895,5.2895,5.2895,5.2895,5.2895,5.2895,5.2895,5.3858,5.4597,5.4597,5.5516,5.6219,5.6219,5.6303,5.634,5.6219,5.6303,5.634,5.6219,5.6219,5.6721,5.7851,5.7901,5.8378,5.9458,5.9483,5.9483,5.9483,5.9483,5.9483,5.9483,5.9483,5.9483,5.9483,5.9483,5.9483,5.9483,5.9483,5.9483,5.9483,5.9483,5.9483,5.9483,5.9483,5.9483,5.9483,5.9483,5.9483,5.9483,0.0,0.0,0.0,0.0,0.0,0.0,0.0,0.0,0.0,0.0,3.2503,3.309,3.309,3.309,3.314,0.0,0.0,0.0,0.0,0.0,0.0,0.0,0.0,0.0,0.0,0.0,0.0,3.721,3.7487,3.8039,3.8894,3.9019,0.0,0.0,0.0,0.0,0.0,0.0,0.0,0.0,4.216,4.2713,0.0,0.0,0.0,0.0,4.5919,4.6301,0.0,0.0,0.0,0.0,0.0,0.0,0.0,0.0,4.8812,0.0,4.959,0.0,4.9841,5.082,5.1205,5.1548,0.0,5.2795,5.2895,5.2895,5.2895,5.2895,5.2895,5.2895,5.2895,5.2895,5.3858,5.4597,5.4597,5.5516,5.6219,5.6219,5.7421,5.7743,5.634,5.7456,5.7707,5.6303,5.6219,5.6721,5.7851,5.7901,5.8378,5.9458,5.9483,5.9483,5.9483,5.9483,5.9483,5.9483,5.9483,5.9483,5.9483,5.9483,5.9483,5.9483,5.9483,5.9483,5.9483,5.9483,5.9483,5.9483,5.9483,5.9483,5.9483,5.9483,5.9483,5.9483,0.0,0.0,0.0,0.0,0.0,0.0,0.0,0.0,0.0,0.0,0.0,0.0,0.0,0.0,0.0,0.0,0.0,0.0,0.0,0.0,0.0,0.0,0.0,0.0,0.0,3.6405,0.0,0.0,0.0,3.7663,0.0,0.0,0.0,0.0,0.0,0.0,0.0,0.0,0.0,4.1352,4.1959,0.0,0.0,0.0,0.0,0.0,4.5869,4.6301,0.0,4.6301,4.6301,4.6301,0.0,0.0,0.0,0.0,4.8711,4.959,4.959,4.959,4.9866,5.0996,5.1306,5.1574,5.2678,5.2895,5.2895,5.2895,5.2895,5.2895,5.2895,5.2895,5.297,5.3256,5.4009,5.4773,5.5239,5.5842,5.6522,5.7313,5.8295,5.8507,5.7528,5.8295,5.8144,5.634,5.6219,5.6721,5.7851,5.7901,5.8378,5.9458,5.9483,5.9483,5.9483,5.9483,5.9483,5.9483,5.9483,5.9483,5.9483,5.9483,5.9483,5.9483,5.9483,5.9483,5.9483,5.9483,5.9483,5.9483,5.9483,5.9483,5.9483,5.9483,6.0074,6.085,0.0,0.0,0.0,0.0,0.0,0.0,0.0,0.0,0.0,0.0,0.0,0.0,0.0,0.0,0.0,0.0,0.0,0.0,0.0,0.0,0.0,0.0,0.0,3.6405,3.6405,3.6405,3.6405,0.0,0.0,0.0,0.0,0.0,3.9095,0.0,0.0,0.0,0.0,0.0,4.08,4.1352,4.1959,0.0,0.0,0.0,0.0,0.0,0.0,0.0,0.0,4.6301,4.6301,4.6301,4.6301,0.0,0.0,0.0,0.0,0.0,4.959,4.959,4.9866,5.0996,5.1306,5.1574,5.2678,5.2895,5.2895,5.2895,5.2895,5.2895,5.2895,5.2895,5.3071,5.3607,5.4517,5.5477,5.6479,5.6859,5.76,5.9148,5.9539,5.9609,5.9357,5.9322,5.8683,5.7123,5.6787,5.7111,5.825,5.8326,5.8681,5.9458,5.9483,5.9483,5.9483,5.9483,5.9483,5.9483,5.9483,5.9483,5.9483,5.9483,5.9483,5.9483,5.9483,5.9483,5.9483,5.9483,5.9483,5.9483,5.9483,5.9676,5.992,5.992,6.1165,6.2831,0.0,0.0,0.0,0.0,0.0,0.0,0.0,0.0,0.0,0.0,0.0,0.0,0.0,0.0,0.0,0.0,0.0,0.0,0.0,0.0,0.0,0.0,3.6405,3.6405,3.6405,3.6405,3.6405,3.6405,0.0,0.0,3.8015,3.809,3.8693,3.9697,0.0,0.0,0.0,0.0,4.08,4.1352,4.1959,0.0,0.0,0.0,0.0,0.0,0.0,0.0,0.0,4.6301,4.6301,4.6301,4.6301,0.0,0.0,0.0,0.0,0.0,4.959,4.959,4.9866,5.0996,5.1306,5.1574,5.2678,5.2895,5.2895,5.2895,5.2895,5.2895,5.2895,5.2895,5.3071,5.3607,5.5855,5.7782,5.8429,5.9782,6.0852,6.1157,6.2529,6.2887,6.1326,6.1191,6.1056,6.0784,5.9357,5.8996,6.0138,6.019,5.9965,5.9496,5.9483,5.9483,5.9483,5.9483,5.9483,5.9483,5.9483,5.9483,5.9483,5.9483,5.9483,5.9483,5.9483,5.9483,5.9483,5.9483,5.9483,5.9483,5.9483,6.0507,6.1966,6.1966,6.3172,6.4786,0.0,0.0,0.0,0.0,0.0,0.0,0.0,0.0,0.0,0.0,0.0,0.0,0.0,0.0,0.0,0.0,0.0,0.0,0.0,0.0,0.0,3.6355,3.6405,3.6405,3.6405,3.6405,3.6405,3.6405,3.6405,3.6959,3.8015,3.8642,3.9195,3.9697,0.0,0.0,0.0,0.0,4.08,4.1352,0.0,0.0,0.0,0.0,0.0,0.0,0.0,0.0,0.0,0.0,4.6301,4.6301,4.6301,0.0,0.0,0.0,0.0,0.0,4.959,4.959,4.9791,5.0619,5.1046,5.1498,5.2302,5.2669,5.2895,5.2895,5.2895,5.3179,5.4089,5.3529,5.3491,5.5323,5.8085,6.0076,6.0313,6.109,6.1964,6.2953,6.3797,6.3991,6.315,6.2164,6.1595,6.1595,5.992,5.9395,6.0546,6.0599,6.075,6.1063,6.1051,6.1553,6.2556,6.1591,6.0545,5.9483,5.9483,5.9483,5.9547,6.0584,6.1051,6.1127,6.2137,6.2556,6.2508,6.1478,6.1666,6.2508,6.1441,6.2238,6.4057,6.5099,6.602,6.681,0.0,0.0,0.0,0.0,0.0,0.0,0.0,0.0,0.0,0.0,0.0,0.0,0.0,0.0,0.0,0.0,0.0,0.0,0.0,0.0,3.5203,3.6355,3.6405,3.6405,3.6405,3.6405,3.6405,3.6405,3.6531,3.7135,3.8241,3.922,3.9697,0.0,0.0,0.0,0.0,0.0,4.1001,4.1553,0.0,0.0,0.0,0.0,0.0,0.0,0.0,0.0,0.0,0.0,0.0,0.0,0.0,0.0,0.0,4.7908,4.8711,4.959,4.959,4.959,4.9715,5.0268,5.0845,5.1423,5.1975,5.2494,5.2895,5.2895,5.2895,5.3291,5.4575,5.4328,5.4731,5.7104,6.017,6.223,6.223,6.2595,6.3378,6.4758,6.4917,6.4917,6.4917,6.328,6.2396,6.2854,6.1191,6.0673,6.1816,6.147,6.1789,6.3035,6.2646,6.3319,6.5151,6.3766,6.2089,6.0189,5.9714,5.9753,6.0227,6.1704,6.2646,6.3135,6.4571,6.5186,6.5107,6.3657,6.3912,6.5071,6.3621,6.4201,6.6097,6.8049,6.8871,6.9045,0.0,0.0,0.0,0.0,0.0,0.0,0.0,0.0,0.0,0.0,0.0,0.0,0.0,0.0,0.0,0.0,0.0,0.0,0.0,0.0,3.5203,3.6355,3.6405,3.6405,3.6405,3.6405,3.6405,3.6405,3.6909,3.7713,3.8843,3.9446,3.9697,3.9697,0.0,0.0,0.0,0.0,4.1605,4.216,4.2713,0.0,0.0,0.0,0.0,0.0,0.0,0.0,0.0,0.0,0.0,0.0,0.0,0.0,4.7908,4.7908,4.8711,4.959,4.959,4.959,4.9715,5.0268,5.0845,5.1423,5.1975,5.2494,5.2895,5.2895,5.2895,5.2929,5.3042,5.5211,5.7198,5.7908,6.1448,6.412,6.412,6.5545,6.6661,6.6785,6.6815,6.6815,6.6815,6.5168,6.479,6.6477,6.4917,6.4438,6.5665,6.4066,6.3684,6.4945,6.3319,6.3319,6.5151,6.5071,6.403,6.219,6.038,6.0457,6.219,6.2338,6.3355,6.5036,6.5115,6.5186,6.5186,6.5044,6.5071,6.5186,6.5044,6.6167,6.8117,6.9979,7.1082,7.1652,0.0,0.0,0.0,0.0,0.0,0.0,0.0,0.0,0.0,0.0,0.0,0.0,0.0,0.0,0.0,0.0,0.0,0.0,0.0,0.0,3.5579,3.638,3.6405,3.6405,3.6405,3.6405,3.6405,3.6405,3.7286,3.8115,3.8894,3.9446,0.0,0.0,0.0,0.0,0.0,0.0,4.1656,4.2288,4.3165,4.3614,0.0,0.0,0.0,0.0,0.0,0.0,0.0,0.0,4.6301,4.6301,4.6301,4.7054,4.7908,4.7908,4.8711,4.959,4.959,4.959,4.9715,5.0268,5.0845,5.1423,5.1975,5.2494,5.2895,5.2895,5.3742,5.457,5.4933,5.8891,6.1572,6.0037,6.3272,6.5981,6.5981,6.657,6.6999,6.6999,6.6999,6.6999,6.6999,6.5358,6.5073,6.6846,6.5326,6.4828,6.603,6.5421,6.5652,6.6968,6.63,6.6823,6.8726,6.761,6.6649,6.5914,6.3957,6.3438,6.4201,6.5384,6.6335,6.7094,6.8224,6.8726,6.8658,6.7507,6.7679,6.8726,6.8726,6.919,6.9972,7.1109,7.1667,7.1996,0.0,0.0,0.0,0.0,0.0,0.0,0.0,0.0,0.0,0.0,0.0,0.0,0.0,0.0,0.0,0.0,0.0,0.0,3.4904,3.5282,3.5757,3.638,3.6405,3.6405,3.6405,3.6581,3.6658,3.6658,3.7763,3.8567,3.917,0.0,0.0,0.0,3.9873,4.0249,4.0775,0.0,0.0,0.0,4.3489,4.4016,0.0,0.0,0.0,0.0,0.0,0.0,0.0,0.0,4.6301,4.6301,4.6301,4.7054,4.7908,4.7908,4.8711,4.959,4.959,4.959,4.9766,5.0519,5.1375,5.2261,5.2968,5.3037,5.3042,5.3572,5.5206,5.6727,5.731,6.1295,6.3923,6.2187,6.4782,6.6999,6.6999,6.6999,6.6999,6.6999,6.6999,6.6999,6.6999,6.5888,6.567,6.6908,6.5827,6.5691,6.6941,6.6413,6.6991,6.8927,6.8417,6.9019,7.0856,6.9648,6.8956,6.8985,6.7644,6.6691,6.6167,6.7473,6.8417,6.9052,7.0337,7.0889,7.0791,6.9486,6.9748,7.0889,7.0889,7.0889,7.0979,7.1637,7.2026,7.2385,0.0,0.0,0.0,0.0,0.0,0.0,0.0,0.0,0.0,0.0,0.0,0.0,0.0,0.0,0.0,0.0,0.0,0.0,3.5433,3.5508,3.5782,3.638,3.6405,3.6405,3.6405,3.6934,3.721,3.7235,3.8341,3.917,3.9697,3.9697,3.9697,0.0,4.0275,4.08,4.1352,0.0,0.0,0.0,4.3815,4.4493,0.0,0.0,0.0,0.0,0.0,0.0,0.0,0.0,4.6301,4.6301,4.6326,4.7054,4.7908,4.7908,4.8711,4.959,4.959,4.959,4.9866,5.1029,5.2555,5.4091,5.5188,5.4156,5.3393,5.5082,5.7347,5.9179,5.9722,6.1851,6.3688,6.4227,6.5796,6.6999,6.6999,6.6999,6.6999,6.6999,6.6999,6.6999,6.6999,6.6999,6.6999,6.6999,6.6999,6.7597,6.8944,6.7159,6.7582,7.0794,6.9119,6.9019,7.0856,7.0889,7.0889,7.0889,7.0889,6.9913,6.8146,6.8146,6.9153,7.0889,7.0889,7.0889,7.0889,7.0889,7.0889,7.0889,7.0889,7.0889,7.0979,7.1637,7.2325,7.3013,0.0,0.0,0.0,0.0,0.0,0.0,0.0,0.0,0.0,0.0,0.0,0.0,0.0,0.0,0.0,0.0,0.0,0.0,3.5458,3.5906,3.6205,3.6405,3.6405,3.6405,3.6405,3.7311,3.7965,3.8391,3.8743,3.917,3.9697,3.9697,3.9898,4.0275,0.0,4.1028,4.1984,0.0,0.0,0.0,4.4669,4.5196,0.0,0.0,0.0,0.0,0.0,0.0,0.0,0.0,0.0,0.0,4.6722,4.7324,4.7983,4.841,4.9038,4.959,4.959,4.959,5.0164,5.2472,5.3416,5.4411,5.6685,5.588,5.5148,5.686,5.9109,6.0918,6.145,6.3582,6.506,6.4387,6.5796,6.6999,6.6999,6.6999,6.6999,6.6999,6.6999,6.6999,6.6999,6.6999,6.6999,6.6999,6.6999,6.7597,6.8944,6.8436,6.8969,7.0827,7.0337,7.0337,7.0889,7.0889,7.0889,7.0889,7.0889,7.0629,7.0075,7.0075,7.037,7.0889,7.0889,7.0889,7.0889,7.0889,7.0889,7.0889,7.0889,7.1188,7.1667,7.2355,7.3043,7.3702,0.0,0.0,0.0,0.0,0.0,0.0,0.0,0.0,0.0,0.0,3.0597,3.1488,0.0,0.0,0.0,0.0,0.0,0.0,0.0,3.6205,3.6405,3.6405,3.6405,3.6582,3.7034,3.7889,3.8642,3.922,3.922,3.9396,3.9697,3.9923,4.0199,4.0499,4.0978,4.1683,4.2537,4.309,4.3765,4.4543,4.5221,4.5623,4.5849,0.0,0.0,0.0,0.0,0.0,0.0,0.0,0.0,0.0,4.6923,4.745,4.8033,4.8642,4.9195,4.959,4.959,5.0078,5.1079,5.3255,5.4759,5.6331,5.8482,5.8198,5.7728,5.8762,6.1075,6.2988,6.3307,6.5015,6.6154,6.5486,6.6291,6.6999,6.6999,6.6999,6.6999,6.6999,6.6999,6.6999,6.6999,6.6999,6.6999,6.6999,6.6999,6.7597,6.8944,6.9004,6.9572,7.0859,7.0889,7.0889,7.0889,7.0889,7.0889,7.0889,7.0889,7.0889,7.0889,7.0889,7.0889,7.0889,7.0889,7.0889,7.0889,7.0889,7.0889,7.0889,7.0889,7.1308,7.1966,7.2654,7.3343,7.4001,0.0,0.0,0.0,0.0,0.0,0.0,0.0,0.0,0.0,0.0,2.967,3.1158,0.0,0.0,0.0,0.0,0.0,0.0,0.0,0.0,3.643,3.648,3.6531,3.7034,3.8065,3.8617,3.917,3.9697,3.9697,3.9697,3.9697,4.0249,4.0524,4.06,4.1708,4.2512,4.3115,4.3639,4.4493,4.5497,4.5547,4.5874,4.6301,4.6301,0.0,0.0,0.0,0.0,0.0,0.0,0.0,0.0,4.6998,4.7525,4.8109,4.8718,4.9245,4.9622,4.9783,5.0942,5.2456,5.3889,5.6695,5.9392,6.049,6.075,6.069,6.054,6.288,6.4994,6.4994,6.6101,6.6999,6.6999,6.6999,6.6999,6.6999,6.6999,6.6999,6.6999,6.6999,6.6999,6.6999,6.6999,6.6999,6.6999,6.6999,6.7597,6.8944,6.9004,6.9572,7.0859,7.0889,7.0889,7.0889,7.0889,7.0889,7.0889,7.0889,7.0889,7.0889,7.0889,7.0889,7.0889,7.0889,7.0889,7.0889,7.0889,7.0889,7.0889,7.0889,7.1338,7.2056,7.2684,7.3373,7.4061,0.0,0.0,0.0,0.0,0.0,0.0,0.0,0.0,0.0,0.0,0.0,0.0,0.0,0.0,0.0,0.0,0.0,0.0,0.0,0.0,3.6606,3.7009,3.7412,3.799,3.8693,3.8843,3.917,3.9697,3.9697,3.9697,3.9697,4.0249,4.0725,4.1177,4.1884,4.2738,4.3664,4.4217,4.4844,4.5522,4.5949,4.62,4.6301,0.0,0.0,0.0,0.0,0.0,0.0,0.0,0.0,0.0,4.7581,4.8134,4.8686,4.9264,4.9515,4.9886,5.1142,5.2113,5.3583,5.6837,5.9917,6.2199,6.2496,6.2555,6.2175,6.078,6.288,6.4994,6.4994,6.6101,6.6999,6.6999,6.6999,6.6999,6.6999,6.6999,6.6999,6.6999,6.6999,6.6999,6.6999,6.6999,6.6999,6.6999,6.6999,6.7597,6.8944,6.9004,6.9572,7.0859,7.0889,7.0889,7.0889,7.0889,7.0889,7.0889,7.0889,7.0889,7.0889,7.0889,7.0889,7.0889,7.0889,7.0889,7.0889,7.0889,7.0889,7.0889,7.0889,7.1637,7.2714,7.2864,7.3672,7.4723,0.0,0.0,0.0,0.0,0.0,0.0,0.0,0.0,0.0,0.0,0.0,0.0,0.0,0.0,0.0,0.0,0.0,0.0,0.0,0.0,0.0,3.7563,3.8115,3.8592,3.8894,3.9145,3.9421,3.9697,3.9948,4.0099,4.0099,4.0625,4.1177,4.1756,4.2612,4.3413,4.4242,4.4794,4.5372,4.5899,4.62,4.6301,0.0,0.0,0.0,0.0,0.0,0.0,0.0,0.0,0.0,0.0,0.0,0.0,4.8919,4.9439,4.959,4.995,5.1554,5.3036,5.5096,5.9277,6.1726,6.3108,6.3108,6.3108,6.2936,6.2293,6.3684,6.4994,6.4994,6.6101,6.6999,6.6999,6.6999,6.6999,6.6999,6.6999,6.6999,6.6999,6.6999,6.6999,6.6999,6.6999,6.6999,6.6999,6.6999,6.7597,6.8944,6.9004,6.9572,7.0859,7.0889,7.0889,7.0889,7.0889,7.0889,7.0889,7.0889,7.0889,7.0889,7.0889,7.0889,7.0889,7.0889,7.0889,7.0889,7.0889,7.0889,7.0889,7.0889,7.1727,7.2924,7.2924,7.3762,7.4903,0.0,0.0,0.0,0.0,0.0,0.0,0.0,0.0,0.0,0.0,0.0,0.0,0.0,0.0,0.0,0.0,0.0,0.0,0.0,0.0,0.0,0.0,3.8718,3.9044,3.9044,3.9471,3.9697,3.9697,4.0249,4.0549,4.065,4.1202,4.1781,4.2361,4.3338,4.4166,4.4765,4.5271,4.5799,4.6301,4.6301,4.6301,0.0,0.0,0.0,0.0,0.0,0.0,4.6496,4.6948,0.0,0.0,0.0,0.0,4.9044,4.9464,4.959,4.9976,5.1685,5.4022,5.7026,6.1226,6.2689,6.3108,6.3108,6.3108,6.3287,6.3887,6.4516,6.5024,6.5144,6.6191,6.6999,6.6999,6.6999,6.6999,6.6999,6.6999,6.6999,6.6999,6.6999,6.6999,6.6999,6.6999,6.6999,6.6999,6.6999,6.7597,6.8944,6.9004,6.9572,7.0859,7.0889,7.0889,7.0889,7.0889,7.0889,7.0889,7.0889,7.0889,7.0889,7.0889,7.0889,7.0889,7.0889,7.0889,7.0889,7.0889,7.0889,7.0889,7.0889,7.1727,7.2924,7.2924,7.3762,7.4903,0.0,0.0,0.0,0.0,0.0,0.0,0.0,0.0,0.0,0.0,3.1159,3.2846,0.0,0.0,0.0,0.0,0.0,0.0,0.0,0.0,0.0,3.8768,3.9295,3.9597,3.9597,3.9647,3.9697,3.9697,4.0249,4.0725,4.1227,4.1781,4.2361,4.2914,4.3514,4.4392,4.5372,4.5447,4.5799,4.6301,4.6301,0.0,0.0,0.0,0.0,0.0,0.0,0.0,4.6998,4.7074,4.7757,0.0,0.0,0.0,4.949,4.9565,4.959,5.0052,5.215,5.5747,5.959,6.2316,6.3048,6.3108,6.3108,6.3108,6.3287,6.3887,6.4516,6.5174,6.5742,6.649,6.6999,6.6999,6.6999,6.6999,6.6999,6.6999,6.6999,6.6999,6.6999,6.6999,6.6999,6.6999,6.6999,6.6999,6.6999,6.7597,6.8944,6.9004,6.9572,7.0859,7.0889,7.0889,7.0889,7.0889,7.0889,7.0889,7.0889,7.0889,7.0889,7.0889,7.0889,7.0889,7.0889,7.0889,7.0889,7.0889,7.0889,7.0889,7.0889,7.1727,7.2924,7.2924,7.3762,7.4903,0.0,0.0,0.0,0.0,0.0,0.0,0.0,0.0,0.0,0.0,0.0,3.364,0.0,0.0,0.0,0.0,0.0,0.0,0.0,0.0,0.0,3.9346,3.9572,3.9697,3.9697,3.9998,4.0149,4.0149,4.1003,4.1555,4.1806,4.2688,4.3212,4.3489,4.4342,4.502,4.5497,4.5824,4.6075,0.0,0.0,0.0,0.0,0.0,0.0,0.0,0.0,0.0,0.0,4.7933,4.8385,4.8868,4.917,0.0,0.0,0.0,4.959,5.0352,5.3829,5.7075,6.0088,6.2494,6.3108,6.3108,6.3108,6.3108,6.3407,6.4366,6.4785,6.5203,6.5892,6.655,6.6999,6.6999,6.6999,6.6999,6.6999,6.6999,6.6999,6.6999,6.6999,6.6999,6.6999,6.6999,6.6999,6.6999,6.6999,6.7597,6.8944,6.9004,6.9572,7.0859,7.0889,7.0889,7.0889,7.0889,7.0889,7.0889,7.0889,7.0889,7.0889,7.0889,7.0889,7.0889,7.0889,7.0889,7.0889,7.0889,7.0889,7.0889,7.0889,7.1727,7.2924,7.2924,7.3762,7.4903,0.0,0.0,0.0,0.0,0.0,0.0,0.0,0.0,0.0,0.0,0.0,0.0,0.0,0.0,0.0,0.0,0.0,0.0,0.0,0.0,0.0,3.9672,3.9697,3.9747,3.9898,4.03,4.0549,4.07,4.1708,4.2288,4.2439,4.3489,4.4091,4.4267,4.5121,4.5602,4.5723,4.6125,4.6301,0.0,0.0,0.0,0.0,0.0,0.0,0.0,0.0,0.0,0.0,0.0,4.8894,4.9095,4.9464,4.959,0.0,0.0,0.0,5.0856,5.4637,5.7352,5.9664,6.188,6.2788,6.3108,6.3108,6.3108,6.3438,6.4725,6.4994,6.5263,6.6101,6.667,6.6999,6.6999,6.6999,6.6999,6.6999,6.6999,6.6999,6.6999,6.6999,6.6999,6.6999,6.6999,6.6999,6.6999,6.6999,6.7597,6.8944,6.9004,6.9572,7.0859,7.0889,7.0889,7.0889,7.0889,7.0889,7.0889,7.0889,7.0889,7.0889,7.0889,7.0889,7.0889,7.0889,7.0889,7.0889,7.0889,7.0889,7.0889,7.0889,7.1727,7.2924,7.2924,7.3762,7.4903,0.0,0.0,0.0,0.0,0.0,0.0,0.0,0.0,0.0,0.0,0.0,0.0,0.0,0.0,0.0,0.0,0.0,0.0,0.0,0.0,0.0,3.9697,3.9697,0.0,4.045,4.0501,4.075,4.1277,4.1909,4.2462,4.2989,4.4066,4.4869,4.5397,4.5472,4.5773,4.6276,4.6301,4.6301,4.6301,0.0,0.0,0.0,0.0,0.0,0.0,0.0,0.0,0.0,0.0,0.0,4.9565,4.959,4.959,4.959,0.0,0.0,0.0,5.3448,5.5971,5.8484,6.0207,6.188,6.3108,6.3108,6.3108,6.3438,6.4725,6.4994,6.5383,6.67,6.6969,6.6999,6.6999,6.6999,6.6999,6.6999,6.6999,6.6999,6.6999,6.6999,6.6999,6.6999,6.6999,6.6999,6.6999,6.6999,6.7597,6.8944,6.9004,6.9572,7.0859,7.0889,7.0889,7.0889,7.0889,7.0889,7.0889,7.0889,7.0889,7.0889,7.0889,7.0889,7.0889,7.0889,7.0889,7.0889,7.0889,7.0889,7.0889,7.0889,7.1727,7.2924,7.2924,7.3762,7.4903,0.0,0.0,0.0,0.0,0.0,0.0,0.0,0.0,0.0,0.0,0.0,0.0,0.0,0.0,0.0,3.8542,0.0,0.0,0.0,0.0,0.0,4.07,4.0725,4.0826,4.1026,4.1379,4.1708,4.1884,4.276,4.3341,4.3539,4.4644,4.5296,4.5497,4.5849,4.6125,4.6301,4.6301,4.6301,4.6301,4.6301,0.0,0.0,0.0,0.0,0.0,0.0,0.0,0.0,0.0,0.0,0.0,0.0,0.0,4.9665,5.0017,5.067,5.1755,5.3758,5.53,5.6989,5.9812,6.096,6.1703,6.2846,6.3108,6.3438,6.4725,6.4994,6.5413,6.6759,6.6999,6.6999,6.6999,6.6999,6.6999,6.6999,6.6999,6.6999,6.6999,6.6999,6.6999,6.6999,6.6999,6.6999,6.6999,6.6999,6.7597,6.8944,6.9004,6.9572,7.0859,7.0889,7.0889,7.0889,7.0889,7.0889,7.0889,7.0889,7.0889,7.0889,7.0889,7.0889,7.0889,7.0889,7.0889,7.0889,7.0889,7.0889,7.0889,7.0889,7.1727,7.2924,7.2924,7.3762,7.4903,0.0,0.0,0.0,0.0,0.0,0.0,0.0,0.0,0.0,0.0,0.0,0.0,0.0,0.0,0.0,3.9371,3.9923,4.04,4.075,4.0775,4.0926,4.1275,4.1302,4.1403,4.1605,4.1781,4.2185,4.2738,4.3263,4.3815,4.4392,4.5146,4.5598,4.5773,4.615,4.6301,4.6301,4.6301,4.6396,4.6572,4.6572,4.6873,4.735,0.0,0.0,4.8793,4.8793,4.9145,4.959,0.0,0.0,0.0,0.0,0.0,0.0,0.0,5.082,5.1639,5.3292,5.4537,5.6082,5.8949,6.0085,6.096,6.2701,6.3108,6.3378,6.4455,6.4845,6.5323,6.646,6.6849,6.6999,6.6999,6.6999,6.6999,6.6999,6.6999,6.6999,6.6999,6.6999,6.6999,6.6999,6.6999,6.6999,6.6999,6.6999,6.7478,6.8585,6.8884,6.9572,7.0859,7.0889,7.0889,7.0889,7.0889,7.0889,7.0889,7.0889,7.0889,7.0889,7.0889,7.0889,7.0889,7.0889,7.0889,7.0889,7.0889,7.0889,7.0889,7.0889,7.1577,7.2595,7.2834,7.3612,7.4604,0.0,0.0,0.0,0.0,0.0,0.0,0.0,0.0,0.0,0.0,0.0,0.0,0.0,0.0,0.0,4.0424,4.1001,4.1327,4.1327,4.1326,4.1378,4.1378,0.0,0.0,4.2235,4.1706,4.2181,4.3815,4.3313,4.3919,4.5497,4.5497,4.5799,4.6301,4.6301,4.6326,4.6326,4.6326,4.6622,4.7099,4.7124,4.7456,4.7995,4.7995,4.841,4.8976,4.8976,4.9298,4.9751,4.9751,0.0,0.0,0.0,0.0,0.0,0.0,0.0,5.1423,0.0,0.0,0.0,5.756,5.9197,6.09,6.2672,6.3108,6.3287,6.3887,6.4516,6.5203,6.5892,6.655,6.6999,6.6999,6.6999,6.6999,6.6999,6.6999,6.6999,6.6999,6.6999,6.6999,6.6999,6.6999,6.6999,6.6999,6.6999,6.7299,6.7958,6.8645,6.9602,7.0859,7.0889,7.0889,7.0889,7.0889,7.0889,7.0889,7.0889,7.0889,7.0889,7.0889,7.0889,7.0889,7.0889,7.0889,7.0889,7.0889,7.0889,7.0889,7.0889,7.1308,7.1966,7.2654,7.3343,7.4001,0.0,0.0,0.0,0.0,0.0,0.0,0.0,0.0,0.0,0.0,0.0,0.0,0.0,0.0,0.0,4.1051,4.1227,4.1478,4.1934,4.2308,4.271,4.3112,4.346,4.3761,4.394,4.3761,4.3912,4.4364,4.4669,4.5049,4.5497,4.5899,4.6175,4.6301,4.6301,4.6527,4.6873,4.6873,4.6973,4.7124,4.75,4.8727,5.0293,5.0293,5.1341,5.2823,5.2823,5.2931,5.3093,0.0,5.2297,5.1142,0.0,0.0,0.0,0.0,0.0,0.0,5.2519,0.0,0.0,0.0,0.0,0.0,6.2438,6.3108,6.3287,6.3887,6.4516,6.5203,6.5892,6.655,6.6999,6.6999,6.6999,6.6999,6.6999,6.6999,6.6999,6.6999,6.6999,6.6999,6.6999,6.6999,6.6999,6.6999,6.6999,6.7299,6.7958,6.9125,7.0081,7.0889,7.0889,7.0889,7.0889,7.0889,7.0889,7.0889,7.0889,7.0889,7.0889,7.0889,7.0889,7.0889,7.0889,7.0889,7.0889,7.0889,7.0889,7.0889,7.0889,7.1308,7.1966,7.2654,7.3343,7.4001,0.0,0.0,0.0,0.0,0.0,0.0,0.0,0.0,0.0,0.0,0.0,0.0,0.0,0.0,0.0,0.0,4.2406,4.2808,4.319,4.3489,4.3815,4.4141,4.4414,4.4589,4.4589,4.4364,4.4518,4.4995,4.507,4.5372,4.5849,4.615,4.6301,4.6326,4.6522,4.6798,4.7124,4.7631,4.7807,4.7894,4.886,5.0161,5.1606,5.2279,5.3307,5.4386,5.4386,5.3969,5.3516,5.4453,5.3853,0.0,0.0,0.0,0.0,0.0,0.0,0.0,0.0,0.0,0.0,5.7337,0.0,0.0,6.2497,6.3108,6.3197,6.3528,6.4366,6.5114,6.5503,6.637,6.6999,6.6999,6.6999,6.6999,6.6999,6.6999,6.6999,6.6999,6.6999,6.6999,6.6999,6.6999,6.6999,6.6999,6.6999,6.7388,6.8377,6.9153,6.9991,7.0889,7.0889,7.0889,7.0889,7.0889,7.0889,7.0889,7.0889,7.0889,7.0889,7.0889,7.0889,7.0889,7.0889,7.0889,7.0889,7.0889,7.0889,7.0889,7.0889,7.1128,7.1607,7.2565,7.3163,7.3612,0.0,0.0,0.0,0.0,0.0,0.0,0.0,0.0,0.0,0.0,0.0,0.0,0.0,0.0,0.0,0.0,4.4066,4.4589,4.4589,4.4665,4.469,4.469,4.474,4.479,4.479,4.4342,4.4568,4.5573,4.507,4.5292,4.6301,4.6301,4.6351,0.0,4.6873,4.7174,4.735,4.836,4.8938,4.928,5.0703,5.1667,5.2424,5.4059,5.4771,5.4946,5.5001,5.4112,5.3166,5.5042,5.507,0.0,0.0,0.0,0.0,0.0,5.2261,0.0,0.0,0.0,0.0,0.0,5.9411,0.0,6.2701,6.3108,6.3108,6.3108,6.4126,6.4994,6.4994,6.6101,6.6999,6.6999,6.6999,6.6999,6.6999,6.6999,6.6999,6.6999,6.6999,6.6999,6.6999,6.6999,6.6999,6.6999,6.6999,6.7537,6.8824,6.8944,6.9542,7.0769,7.0859,7.0889,7.0889,7.0889,7.0889,7.0889,7.0889,7.0889,7.0889,7.0889,7.0889,7.0889,7.0889,7.0889,7.0889,7.0889,7.0889,7.0889,7.0889,7.0889,7.1068,7.2325,7.2864,7.3103,0.0,0.0,0.0,0.0,0.0,0.0,0.0,0.0,0.0,0.0,0.0,0.0,0.0,0.0,0.0,0.0,0.0,4.4589,4.4589,4.507,4.5321,4.5321,4.5748,4.5974,4.5974,4.5874,4.5924,4.615,4.6024,4.61,4.6301,4.6301,4.6522,4.6948,4.7048,4.7631,4.846,4.8718,4.9785,5.1397,5.1711,5.2684,5.4089,5.5647,5.7047,5.8252,5.8783,5.8792,5.8485,5.8146,5.7934,5.7276,0.0,0.0,0.0,5.2899,0.0,0.0,0.0,0.0,0.0,0.0,6.0268,0.0,6.2701,6.3108,6.3108,6.3108,6.4126,6.4994,6.4994,6.6101,6.6999,6.6999,6.6999,6.6999,6.6999,6.6999,6.6999,6.6999,6.6999,6.6999,6.6999,6.6999,6.6999,6.6999,6.6999,6.7328,6.8167,6.8704,6.9363,7.0141,7.0649,7.0889,7.0889,7.0889,7.0889,7.0889,7.0889,7.0889,7.0889,7.0889,7.0889,7.0889,7.0889,7.0889,7.0889,7.0889,7.0889,7.0889,7.0889,7.0889,7.1009,7.1787,7.2445,7.3013,0.0,0.0,0.0,0.0,0.0,0.0,0.0,0.0,0.0,4.2057,4.3112,0.0,0.0,0.0,0.0,0.0,0.0,0.0,0.0,4.5723,4.5899,4.5899,4.6175,4.6301,4.6301,4.6301,4.6301,4.6301,4.6301,4.6301,4.6326,4.6572,4.7253,4.8292,4.8053,4.8703,4.9961,4.9419,4.9977,5.1335,5.265,5.4149,5.5733,5.7678,5.8916,5.9668,6.0356,6.0805,6.088,5.9655,5.9388,0.0,5.7657,5.7349,5.728,0.0,5.583,5.6699,0.0,0.0,0.0,6.0057,6.1169,0.0,0.0,6.3108,6.3108,6.3108,6.4126,6.4994,6.4994,6.6101,6.6999,6.6999,6.6999,6.6999,6.6999,6.6999,6.6999,6.6999,6.6999,6.6999,6.6999,6.6999,6.6999,6.6999,6.6999,6.7299,6.7958,6.8615,6.9303,6.9993,7.059,7.0889,7.0889,7.0889,7.0889,7.0889,7.0889,7.0889,7.0889,7.0889,7.0889,7.0889,7.0889,7.0889,7.0889,7.0889,7.0889,7.0889,7.0889,7.0889,7.0979,7.1637,7.2325,7.3013,0.0,0.0,0.0,0.0,0.0,0.0,0.0,0.0,4.213,4.3162,4.4399,4.5204,0.0,0.0,0.0,0.0,0.0,0.0,0.0,4.6725,4.6576,4.6301,4.6301,4.6421,4.6725,4.6451,4.6451,4.6725,4.6522,4.6446,4.6476,4.6998,4.7983,4.9382,4.9276,5.0017,5.1325,5.087,5.1132,5.2036,5.4312,5.578,5.6881,5.9362,6.0266,6.0386,6.1044,6.1732,6.21,6.0794,6.0642,6.093,6.06,5.981,0.0,0.0,0.0,0.0,0.0,0.0,0.0,0.0,6.2057,6.3108,0.0,0.0,0.0,6.3108,6.4126,6.4994,6.4994,6.6101,6.6909,6.667,6.6819,6.6909,6.664,6.6819,6.6999,6.6999,6.6999,6.6999,6.6999,6.6999,6.6999,6.6999,6.6999,6.7238,6.7778,6.8555,6.9243,6.9782,7.053,7.0889,7.0889,7.0889,7.0889,7.0889,7.0889,7.0889,7.0889,7.0889,7.0889,7.0889,7.0889,7.0889,7.0889,7.0889,7.0889,7.0889,7.0889,7.0889,7.0979,7.1517,7.2116,7.2804,4.1227,4.1177,0.0,0.0,4.1706,0.0,0.0,0.0,4.374,4.4338,4.6134,4.7354,4.7354,4.8994,0.0,0.0,0.0,0.0,4.8329,0.0,0.0,4.6361,4.6301,4.6934,4.8239,4.6968,4.6964,4.8268,4.7418,4.7023,4.7023,4.7581,4.8177,4.8938,5.0291,5.1281,5.2033,5.3883,5.5517,5.696,5.7855,5.7435,5.6596,5.9764,6.1014,6.1074,6.1762,6.2421,6.2959,6.2786,6.2758,6.2526,0.0,6.1436,6.1939,5.8884,0.0,0.0,0.0,0.0,0.0,6.2438,6.2933,6.3108,6.3108,0.0,6.3108,6.3108,0.0,6.4994,6.4994,0.0,0.0,6.5413,6.6221,6.658,6.5383,6.6251,6.6999,6.6999,6.6999,6.6999,6.6999,6.6999,6.6999,6.6999,6.6999,6.7029,6.7089,6.8315,6.9034,6.9123,7.029,7.0889,7.0889,7.0889,7.0889,7.0889,7.0889,7.0889,7.0889,7.0889,7.0889,7.0889,7.0889,7.0889,7.0889,7.0889,7.0889,7.0889,7.0889,7.0889,7.0919,7.0979,7.1427,7.2116,0.0,4.2333,0.0,0.0,4.3968,4.5015,0.0,0.0,4.742,4.7632,4.8698,4.9439,4.9439,5.0187,5.0713,0.0,0.0,5.0601,5.0391,0.0,0.0,5.0036,4.9117,4.8908,4.9534,4.8938,4.8938,4.9534,4.9143,4.9427,5.0321,4.9967,5.0911,5.2918,5.3033,5.3885,5.5301,5.5282,5.611,5.7503,5.8802,5.9058,5.8894,6.0905,6.1912,6.2301,6.2599,6.2868,6.3108,6.3108,6.3108,6.2962,6.2233,6.2526,0.0,6.1377,0.0,0.0,0.0,0.0,6.2204,6.2904,6.3108,6.3108,6.3108,0.0,6.3197,6.3528,0.0,0.0,0.0,0.0,0.0,0.0,6.664,6.6789,6.6251,6.664,6.6999,6.6999,6.6999,6.6999,6.6999,6.6999,6.6999,6.6999,6.6999,6.6999,6.6999,6.7897,6.8585,6.9004,6.9901,7.056,7.0889,7.0889,7.0889,7.0889,7.0889,7.0889,7.0889,7.0889,7.0889,7.0889,7.0889,7.0889,7.0889,7.0889,7.0889,7.0889,7.0889,7.0889,7.0889,7.0889,7.1308,7.1996,0.0,0.0,0.0,4.4645,4.6352,4.7749,4.791,4.9173,5.0132,5.0132,5.082,5.1373,5.1569,5.1811,5.2056,5.2423,5.231,5.2316,5.2575,0.0,5.2603,0.0,0.0,0.0,5.155,5.1169,5.1169,5.155,5.0883,5.1352,5.2898,5.1907,5.2949,5.5738,5.5442,5.6299,5.7945,5.7388,5.7687,5.8685,6.0057,6.0879,6.1289,6.2078,6.2689,6.3108,6.3108,6.3108,6.3108,6.3108,6.3108,6.3108,6.3108,6.3108,6.3108,0.0,0.0,0.0,6.3108,6.3108,6.3108,6.3108,6.3108,6.3138,6.3317,0.0,0.0,6.4156,6.4814,0.0,0.0,0.0,6.6879,0.0,0.0,6.6879,6.649,6.6759,6.6999,6.6999,6.6999,6.6999,6.6999,6.6999,6.6999,6.6999,6.6999,6.6999,6.6999,6.7658,6.8317,6.8974,6.9632,7.029,7.0889,7.0889,7.0889,7.0889,7.0889,7.0889,7.0889,7.0889,7.0889,7.0889,7.0889,7.0889,7.0889,7.0889,7.0889,7.0889,7.0889,7.0889,7.0889,7.0889,7.1218,7.1757,0.0,4.8107,0.0,4.6818,4.849,4.9967,5.0492,5.063,5.0657,5.0657,5.1997,5.3167,5.3742,5.4554,5.553,5.6784,5.6362,5.567,5.4859,0.0,5.4172,0.0,0.0,5.3303,0.0,5.336,5.3332,5.4753,5.2353,5.1967,5.3476,5.244,5.3182,5.5368,5.6904,5.7974,5.8783,6.0961,6.1889,6.1979,6.2722,6.2991,6.3021,6.3049,6.3078,6.3108,6.3108,6.3108,6.3108,6.3108,6.3108,6.3108,6.3108,6.3108,6.3108,6.3108,0.0,0.0,6.3108,6.3108,6.3108,6.3108,6.3108,6.3257,6.3827,0.0,6.4156,0.0,0.0,0.0,0.0,0.0,0.0,0.0,0.0,0.0,0.0,6.6191,6.6999,6.6999,6.6999,6.6999,6.6999,6.6999,6.6999,6.6999,6.6999,6.6999,6.6999,6.7658,6.8317,6.8974,6.9632,7.029,7.0889,7.0889,7.0889,7.0889,7.0889,7.0889,7.0889,7.0889,7.0889,7.0889,7.0889,7.0889,7.0889,7.0889,7.0889,7.0889,7.0889,7.0889,7.0889,7.0889,7.0919,7.1128,0.0,0.0,5.0622,4.9583,5.0844,5.2331,5.3486,5.3675,5.3675,5.3675,5.4528,5.5223,5.5404,5.6028,5.6615,5.7064,5.6885,5.6881,5.7027,5.7003,0.0,0.0,0.0,5.5594,0.0,0.0,5.5594,5.6073,5.5252,5.5652,5.7175,5.6219,5.6733,5.8516,5.9524,6.0341,6.0991,6.1773,6.2361,6.2838,6.3438,6.3947,6.4306,6.3857,6.3677,6.3737,6.4216,6.4366,6.4366,6.4366,6.4366,6.4366,6.4366,6.4366,6.4366,6.4366,6.4366,6.4366,6.4366,6.4366,6.4366,6.4366,6.4366,6.4425,6.4635,6.4665,0.0,0.0,0.0,0.0,0.0,0.0,0.0,0.0,0.0,0.0,0.0,6.3894,6.3411,6.3411,6.3411,6.3894,6.5105,6.52,6.5702,6.6908,6.6999,6.6999,6.6999,6.7239,6.7658,6.8347,6.8974,6.9632,7.029,7.0709,7.0889,7.0889,7.0889,7.0889,7.0889,7.0889,7.0889,7.0889,7.0889,7.0889,7.0889,7.0889,7.0889,7.0889,7.0889,7.0889,7.0889,7.0889,7.0889,7.1098,5.2293,5.3095,5.3279,5.1781,5.2976,5.4472,5.5411,5.5718,5.5867,5.5867,5.6252,5.6611,5.6825,5.7004,5.7274,5.7782,5.7603,5.7842,5.877,5.859,0.0,5.9428,5.8256,0.0,0.0,0.0,0.0,0.0,5.7337,5.7991,5.979,5.8605,5.904,6.0805,6.1253,6.1822,6.245,6.269,6.3019,6.3468,6.4096,6.4605,6.4964,6.4784,6.4575,6.4425,6.4845,6.4994,6.4994,6.4994,6.4994,6.4994,6.4994,6.4994,6.4994,6.4994,6.4994,6.4994,6.4994,6.4994,6.4994,6.4994,6.4994,6.5054,6.5293,6.5353,6.5532,0.0,0.0,0.0,0.0,0.0,0.0,0.0,0.0,0.0,0.0,6.2197,6.0614,6.0614,6.1763,6.3018,6.4185,6.4885,6.5733,6.6908,6.6999,6.6999,6.6999,6.6999,6.7298,6.7987,6.8645,6.9303,6.9993,7.059,7.0889,7.0889,7.0889,7.0889,7.0889,7.0889,7.0889,7.0889,7.0889,7.0889,7.0889,7.0889,7.0889,7.0889,7.0889,7.0889,7.0889,7.0889,7.1038,7.1398,5.5269,5.5269,5.4858,5.3448,5.4893,5.6252,5.6252,5.6731,5.7094,5.7094,5.7154,5.7453,5.8085,5.7633,5.7812,5.9099,5.8623,5.8773,6.0057,5.9548,0.0,0.0,5.9548,5.9189,5.9189,0.0,0.0,0.0,5.8631,5.8981,6.1048,5.9566,6.0004,6.2091,6.2181,6.254,6.3197,6.3797,6.4066,6.4156,6.4785,6.5084,6.5174,6.5832,6.5622,6.5084,6.5084,6.5084,6.5084,6.5084,6.5084,6.5084,6.5084,6.5084,6.5084,6.5084,6.5084,6.5084,6.5084,6.5084,6.5084,6.5084,6.5084,6.5263,6.5922,6.6071,6.6221,0.0,0.0,0.0,0.0,0.0,0.0,0.0,0.0,0.0,0.0,6.0988,5.8789,5.8789,6.1964,6.4153,6.4153,6.5702,6.6815,6.6999,6.6999,6.6999,6.6999,6.6999,6.7299,6.7928,6.8615,6.9303,6.9931,7.059,7.0889,7.0889,7.0889,7.0889,7.0889,7.0889,7.0889,7.0889,7.0889,7.0889,7.0889,7.0889,7.0889,7.0889,7.0889,7.0889,7.0889,7.0889,7.1308,7.1996,5.6615,5.6615,5.6482,5.6113,5.6497,5.6881,5.6881,5.7004,5.7094,5.7094,5.7962,5.865,5.883,5.9578,6.0236,6.0565,6.0418,6.0478,6.0835,6.0685,0.0,6.0835,6.0685,6.0595,6.0595,6.0595,0.0,6.0835,0.0,6.0531,6.1106,6.1215,6.1541,6.2121,6.3079,6.3617,6.3797,6.4485,6.5024,6.5503,6.5682,6.6041,6.652,6.667,6.664,6.649,6.649,6.649,6.649,6.649,6.649,6.649,6.649,6.649,6.649,6.649,6.649,6.649,6.649,6.649,6.649,6.649,6.649,6.652,6.67,6.6729,6.6789,6.6939,0.0,0.0,0.0,0.0,0.0,0.0,0.0,0.0,0.0,5.833,5.6895,5.6895,6.0092,6.2297,6.2297,6.2722,6.4088,6.6785,6.6999,6.6999,6.6999,6.6999,6.7059,6.7238,6.8375,6.9093,6.9243,7.035,7.0889,7.0889,7.0889,7.0889,7.0889,7.0889,7.0889,7.0889,7.0889,7.0889,7.0889,7.0889,7.0889,7.0889,7.0889,7.0889,7.0889,7.0889,7.1308,7.1996,5.7483,5.8022,5.8411,5.8411,5.865,5.865,5.8052,5.8471,5.886,5.886,5.9518,5.9967,5.9967,6.0627,6.1076,6.1076,6.1076,6.1196,6.1523,6.1283,0.0,6.1523,6.1283,6.1076,6.1076,6.1076,0.0,6.1553,0.0,6.1702,6.2002,6.263,6.2929,6.2959,6.4006,6.4455,6.4485,6.5144,6.5832,6.643,6.643,6.667,0.0,6.6999,6.6999,6.6999,6.6999,6.6999,6.6999,6.6999,6.6999,6.6999,6.6999,6.6999,6.6999,6.6999,6.6999,6.6999,6.6999,6.6999,6.6999,6.6999,6.6999,6.6999,6.6999,6.6999,6.6999,6.6999,6.6999,6.6999,0.0,0.0,0.0,0.0,0.0,0.0,0.0,0.0,5.826,5.7456,5.9885,6.1292,6.0504,6.2562,6.479,6.6846,6.6999,6.6999,6.6999,6.6999,6.6999,6.6999,6.8286,6.9004,6.9004,7.026,7.0889,7.0889,7.0889,7.0889,7.0889,7.0889,7.0889,7.0889,7.0889,7.0889,7.0889,7.0889,7.0889,7.0889,7.0889,7.0889,7.0889,7.0889,7.1128,7.1607,5.8384,5.9428,6.0236,6.0353,6.0924,6.1014,5.9907,6.0535,6.1076,6.1076,6.1253,6.1373,6.1373,6.1523,6.1584,6.1584,6.1584,6.1882,6.245,6.1942,6.1882,6.245,6.1942,6.1584,6.1584,6.1584,0.0,0.0,0.0,6.278,6.3377,6.3887,6.4126,6.4156,6.4815,6.5174,6.5293,6.5892,6.646,6.6999,6.6999,6.6999,6.6999,6.6999,6.6999,6.6999,6.6999,6.6999,6.6999,6.6999,6.6999,6.6999,6.6999,6.6999,6.6999,6.6999,6.6999,6.6999,6.6999,6.6999,6.6999,6.6999,6.6999,6.6999,6.6999,6.6999,6.6999,6.6999,6.6999,6.6999,6.6999,0.0,0.0,0.0,0.0,0.0,0.0,0.0,0.0,5.9462,6.0852,0.0,5.9427,6.3765,6.6661,6.6661,6.6846,6.6999,6.6999,6.6999,6.6999,6.6999,6.8286,6.9004,6.9004,7.026,7.0889,7.0889,7.0889,7.0889,7.0889,7.0889,7.0889,7.0889,7.0889,7.0889,7.0889,7.0889,7.0889,7.0889,7.0889,7.0889,7.0889,7.0889,7.0889,7.1098,6.0538,6.0775,6.1104,6.1642,6.2301,6.2839,6.3109,6.1972,6.1076,6.1076,6.2061,6.2748,6.2748,6.3707,6.4306,6.4306,6.4306,6.4366,6.4486,6.4366,6.4366,6.4486,6.4366,6.4306,6.4306,6.4306,6.4366,0.0,0.0,6.4545,6.4665,6.4785,6.4815,6.4845,6.5503,6.6131,6.667,6.6759,6.6879,6.6999,6.6999,6.6999,6.6999,6.6999,6.6999,6.6999,6.6999,6.6999,6.6999,6.6999,6.6999,6.6999,6.6999,6.6999,6.6999,6.6999,6.6999,6.6999,6.6999,6.6999,6.6999,6.6999,6.6999,6.6999,6.6999,6.6999,6.6999,6.6999,6.6999,6.6999,6.6999,0.0,0.0,0.0,0.0,0.0,0.0,0.0,0.0,0.0,6.2755,6.3117,6.1292,6.3346,6.4758,6.4758,6.6137,6.6999,6.6999,6.6999,6.6999,6.6999,6.8286,6.9004,6.9004,7.026,7.0889,7.0889,7.0889,7.0889,7.0889,7.0889,7.0889,7.0889,7.0889,7.0889,7.0889,7.0889,7.0889,7.0889,7.0889,7.0889,7.0889,7.0889,7.0889,7.1098,6.254,6.287,6.3199,6.3558,6.3887,6.4186,6.4456,6.3708,6.311,6.311,6.3707,6.4096,6.4096,6.4605,6.4994,6.4994,6.4994,6.4994,6.4994,6.4994,6.4994,6.4994,6.4994,6.4994,6.4994,6.4994,6.4994,6.4994,0.0,0.0,6.5024,6.5353,6.5503,6.5532,6.6221,6.67,6.6999,6.6999,6.6999,6.6999,6.6999,6.6999,6.6999,6.6999,6.6999,6.6999,6.6999,6.6999,6.6999,6.6999,6.6999,6.6999,6.6999,6.6999,6.6999,6.6999,6.6999,6.6999,6.6999,6.6999,6.6999,6.6999,6.6999,6.6999,6.6999,6.6999,6.6999,6.6999,6.6999,6.6999,6.6999,6.6999,0.0,0.0,0.0,0.0,0.0,0.0,6.4056,0.0,0.0,0.0,6.1864,6.4088,6.5295,6.4345,6.5981,6.6999,6.6999,6.6999,6.6999,6.6999,6.8286,6.9004,6.9004,7.026,7.0889,7.0889,7.0889,7.0889,7.0889,7.0889,7.0889,7.0889,7.0889,7.0889,7.0889,7.0889,7.0889,7.0889,7.0889,7.0889,7.0889,7.0889,7.0889,7.1098,6.4126,6.4635,6.5054,6.5174,6.5203,6.5263,6.5383,6.5413,6.5323,6.5024,6.5114,6.5203,6.5203,6.5323,6.5413,6.5413,6.5413,6.5413,6.5413,6.5413,6.5413,6.5413,6.5413,6.5413,6.5413,6.5413,6.5413,0.0,0.0,6.5353,6.5233,6.5922,6.6221,6.6251,6.6759,6.6999,6.6999,6.6999,6.6999,6.6999,6.6999,6.6999,6.6999,6.6999,6.6999,6.6999,6.6999,6.6999,6.6999,6.6999,6.6999,6.6999,6.6999,6.6999,6.6999,6.6999,6.6999,6.6999,6.6999,6.6999,6.6999,6.6999,6.6999,6.6999,6.6999,6.6999,6.6999,6.6999,6.6999,6.6999,6.6999,6.6999,0.0,0.0,0.0,0.0,0.0,0.0,0.0,0.0,0.0,0.0,6.2463,6.5105,6.626,6.4438,6.5981,6.6999,6.6999,6.6999,6.6999,6.6999,6.8286,6.9004,6.9004,7.026,7.0889,7.0889,7.0889,7.0889,7.0889,7.0889,7.0889,7.0889,7.0889,7.0889,7.0889,7.0889,7.0889,7.0889,7.0889,7.0889,7.0889,7.0889,7.0889,7.1068,6.4904,6.4964,6.5174,6.5802,6.5922,6.6131,6.6729,6.6819,6.637,6.5144,6.5503,6.5922,6.5922,6.646,6.6819,6.6819,6.6819,6.6819,6.6819,6.6819,6.6819,6.6819,6.6819,6.6819,6.6819,6.6819,6.6819,0.0,0.0,6.649,6.5922,6.658,6.6909,6.6909,6.6969,6.6999,6.6999,6.6999,6.6999,6.6999,6.6999,6.6999,6.6999,6.6999,6.6999,6.6999,6.6999,6.6999,6.6999,6.6999,6.6999,6.6999,6.6999,6.6999,6.6999,6.6999,6.6999,6.6999,6.6999,6.6999,6.6999,6.6999,6.6999,6.6999,6.6999,6.6999,6.6999,6.6999,6.6999,6.6999,6.6999,6.6999,6.6999,0.0,0.0,0.0,0.0,0.0,6.6968,6.6785,0.0,0.0,6.4249,6.5827,6.626,6.4438,6.5981,6.6999,6.6999,6.6999,6.6999,6.6999,6.8286,6.9004,6.9004,7.026,7.0889,7.0889,7.0889,7.0889,7.0889,7.0889,7.0889,7.0889,7.0889,7.0889,7.0889,7.0889,7.0889,7.0889,7.0889,7.0889,7.0889,7.0889,7.0889,7.1009,6.6131,6.6191,6.6281,6.655,6.661,6.67,6.6939,6.6999,6.6819,6.6281,6.643,6.661,6.661,6.6819,6.6999,6.6999,6.6999,6.6999,6.6999,6.6999,6.6999,6.6999,6.6999,6.6999,6.6999,6.6999,6.6999,0.0,0.0,6.6849,6.661,6.6879,6.6999,6.6999,6.6999,6.6999,6.6999,6.6999,6.6999,6.6999,6.6999,6.7238,6.7598,6.7598,6.7837,6.8196,6.8196,6.8196,6.8196,6.8196,6.7657,6.6999,6.6999,6.6999,6.6999,6.6999,6.6999,6.6999,6.6999,6.6999,6.6999,6.6999,6.6999,6.6999,6.6999,6.6999,6.6999,6.6999,6.6999,6.6999,6.6999,6.6999,6.6999,6.6999,0.0,0.0,0.0,0.0,0.0,6.6999,0.0,6.6723,6.5981,6.657,6.6692,6.5981,6.657,6.6999,6.6999,6.6999,6.6999,6.6999,6.8286,6.9004,6.9004,7.026,7.0889,7.0889,7.0889,7.0889,7.0889,7.0889,7.0889,7.0889,7.0889,7.0889,7.0889,7.0889,7.0889,7.0889,7.0889,7.0889,7.0889,7.0889,7.0889,7.0949,6.6909,6.6999,6.6999,6.6999,6.6999,6.6999,6.6999,6.6999,6.6999,6.6999,6.6999,6.6999,6.6999,6.6999,6.6999,6.6999,6.6999,6.6999,6.6999,6.6999,6.6999,6.6999,6.6999,6.6999,6.6999,6.6999,6.6999,6.6999,6.6999,6.6879,6.67,6.67,6.6819,6.6999,6.6999,6.6999,6.6999,6.7208,6.7268,6.7298,6.7508,6.7867,6.8287,6.8287,6.8585,6.9004,6.9004,6.9004,6.9004,6.9004,6.8375,6.7597,6.7597,6.7597,6.7597,6.7597,6.7597,6.7537,6.7359,6.7268,6.7238,6.7029,6.6999,6.6999,6.6999,6.6999,6.6999,6.6999,6.6999,6.6999,6.6999,6.6999,6.6999,6.6999,0.0,0.0,0.0,6.6999,0.0,0.0,6.6999,6.6999,6.6999,6.6999,6.6999,6.6999,6.6999,6.6999,6.6999,6.6999,6.6999,6.6999,6.8286,6.9004,6.9004,7.026,7.0889,7.0889,7.0889,7.0889,7.0889,7.0889,7.0889,7.0889,7.0889,7.0889,7.0889,7.0889,7.0889,7.0889,7.0889,7.0889,7.0889,7.0889,7.0889,7.0889,6.6999,6.6999,6.6999,6.6999,6.6999,6.6999,6.6999,6.6999,6.6999,6.6999,6.6999,6.6999,6.6999,6.6999,6.6999,6.6999,6.6999,6.6999,6.6999,6.6999,6.6999,6.6999,6.6999,6.6999,6.6999,6.6999,6.6999,6.6999,0.0,6.667,6.6011,6.6011,6.637,6.6999,6.6999,6.6999,6.7029,6.7718,6.7987,6.8047,6.8704,6.8974,6.9004,6.9004,6.9004,6.9004,6.9004,6.9004,6.9004,6.9004,6.9004,6.8974,6.8974,6.8974,6.8974,6.8974,6.8974,6.8824,6.8167,6.7987,6.7838,6.7179,6.6999,6.6999,6.6999,6.6999,6.6999,6.6999,6.6999,6.6999,6.6999,6.6999,6.6999,6.6999,0.0,0.0,0.0,6.6999,0.0,6.6999,6.6999,6.6999,6.6999,6.6999,6.6999,6.6999,6.6999,6.6999,6.6999,6.6999,6.6999,6.6999,6.8286,6.9004,6.9004,7.026,7.0889,7.0889,7.0889,7.0889,7.0889,7.0889,7.0889,7.0889,7.0889,7.0889,7.0889,7.0889,7.0889,7.0889,7.0889,7.0889,7.0889,7.0889,7.0889,7.0889,6.6999,6.6999,6.6999,6.6999,6.7389,6.7688,6.7688,6.8046,6.8345,6.8345,6.8345,6.8345,6.8345,6.7987,6.7868,6.8315,6.7958,6.7688,6.7688,6.7238,6.6999,6.6999,6.6999,6.6999,6.6999,6.6999,6.6999,6.6999,6.6999,6.6879,6.67,6.7148,6.7479,6.7718,6.8166,6.8345,6.8375,6.8585,6.8675,6.8704,6.8914,6.9273,6.9662,6.9662,6.9931,7.029,7.029,7.029,7.029,7.029,7.029,7.029,7.029,6.9692,6.9004,6.9004,6.9004,6.8944,6.8734,6.8675,6.8615,6.8405,6.8345,6.8226,6.7808,6.7329,6.6999,6.6999,6.6999,6.6999,6.6999,6.6999,6.6999,6.6999,6.6999,0.0,6.6999,0.0,6.6999,6.6999,6.6999,6.6999,6.6999,6.6999,6.6999,6.6999,6.6999,6.6999,6.6999,6.6999,6.7208,6.7688,6.8525,6.9213,6.9662,7.05,7.0889,7.0889,7.0889,7.0889,7.0889,7.0889,7.0889,7.0889,7.0889,7.0889,7.0889,7.0889,7.0889,7.0889,7.0889,7.0889,7.0889,7.0889,7.0889,7.0889,6.8668,6.8607,6.8425,6.7841,6.8076,6.8407,6.8407,6.8734,6.9004,6.9004,6.9004,6.9093,6.9333,6.9005,6.8826,6.8974,6.8615,6.8407,6.8407,6.7956,6.7747,6.7747,6.7747,6.7747,6.7747,6.7747,6.7747,6.7747,6.7747,6.7747,6.7747,6.8166,6.8407,6.8407,6.8794,6.9004,6.9004,6.9273,6.9363,6.9363,6.9602,6.9961,7.032,7.032,7.056,7.0889,7.0889,7.0889,7.0889,7.0889,7.0889,7.0889,7.0889,7.035,6.9722,6.9722,6.9722,6.9662,6.9423,6.9363,6.9303,6.9064,6.9004,6.8884,6.8496,6.8046,6.7747,6.7747,6.7537,6.7389,6.7389,6.7148,6.6999,6.6999,6.6999,6.6999,6.6999,0.0,6.6999,0.0,0.0,6.6999,6.6999,6.6999,6.6999,6.6999,6.6999,6.6999,6.6999,6.6999,6.7298,6.7987,6.8645,6.9303,6.9993,7.059,7.0889,7.0889,7.0889,7.0889,7.0889,7.0889,7.0889,7.0889,7.0889,7.0889,7.0889,7.0889,7.0889,7.0889,7.0889,7.0889,7.0889,7.0889,7.0889,7.0889,7.1447,7.1306,7.0798,6.9288,6.9034,6.9064,6.9064,6.9093,6.9123,6.9123,6.9123,6.9363,6.9961,7.0051,6.9782,6.9183,6.9093,6.9064,6.9064,6.9034,6.9004,6.9004,6.9004,6.9004,6.9004,6.9004,6.9004,6.9004,6.9004,6.9004,6.9004,6.9064,6.9064,6.9064,6.9123,6.9123,6.9183,6.9782,7.0021,7.0019,7.0649,7.0889,7.0889,7.0889,7.0889,7.0889,7.0889,7.0889,7.0889,7.0889,7.0889,7.0889,7.0889,7.0889,7.0889,7.0889,7.0889,7.0769,7.0201,7.0051,6.9901,6.9303,6.9093,6.9064,6.9064,6.9034,6.9004,6.9004,6.8495,6.8077,6.8077,6.7568,6.7119,6.7059,6.7059,6.7029,6.6999,6.6999,6.6999,6.6999,6.6999,6.6999,6.6999,6.6999,6.6999,6.6999,6.7029,6.7059,6.7059,6.7119,6.7418,6.8047,6.8704,6.9393,7.0083,7.062,7.0889,7.0889,7.0889,7.0889,7.0889,7.0889,7.0889,7.0889,7.0889,7.0889,7.0889,7.0889,7.0889,7.0889,7.0889,7.0889,7.0889,7.0889,7.0889,7.0889,7.157,7.1306,7.0798,6.9288,6.9423,6.9752,6.9752,7.0141,7.044,7.044,7.044,7.05,7.0679,7.0679,7.062,7.047,7.0021,6.9752,6.9752,6.9273,6.9004,6.9004,6.9004,6.9004,6.9004,6.9004,6.9004,6.9004,6.9004,6.9004,6.9004,6.9512,6.9752,6.9782,7.0231,7.044,7.047,7.062,7.0679,7.0679,7.0829,7.0889,7.0889,7.0889,7.0889,7.0889,7.0889,7.0889,7.0889,7.0889,7.0889,7.0889,7.0889,7.0889,7.0889,7.0889,7.0889,7.0859,7.0739,7.0679,7.0649,7.05,7.0081,6.9752,6.9752,6.9363,6.9004,6.9004,6.8884,6.8764,6.8764,6.8615,6.8345,6.7868,6.7778,6.7598,6.7059,6.6999,6.6999,6.6999,6.6999,6.6999,6.6999,6.6999,6.6999,6.6999,6.7479,6.7778,6.7778,6.8256,6.8585,6.8764,6.9393,7.0051,7.0679,7.0829,7.0889,7.0889,7.0889,7.0889,7.0889,7.0889,7.0889,7.0889,7.0889,7.0889,7.0889,7.0889,7.0889,7.0889,7.0889,7.0889,7.0889,7.0889,7.0889,7.0889,7.4566,7.4346,7.3829,7.2297,7.2304,7.2551,7.2551,7.2241,7.2014,7.2014,7.1343,7.0889,7.0889,7.0889,7.0889,7.0889,7.059,7.041,7.041,7.0081,6.9871,6.9871,6.9871,6.9871,6.9871,6.9871,6.9871,6.9871,6.9871,6.9871,6.9871,7.0231,7.041,7.041,7.0739,7.0889,7.0889,7.0889,7.0889,7.0889,7.0889,7.0889,7.0889,7.0889,7.0889,7.0889,7.0889,7.0889,7.0889,7.0889,7.0889,7.0889,7.0889,7.0889,7.0889,7.0889,7.0889,7.0889,7.0889,7.0889,7.0889,7.0889,7.0649,7.041,7.041,7.0141,6.9871,6.9871,6.9662,6.9453,6.9453,6.9213,6.8884,6.8526,6.8466,6.8315,6.7956,6.7897,6.7897,6.7897,6.7897,6.7897,6.7897,6.7897,6.7897,6.7897,6.8256,6.8466,6.8466,6.9064,6.9453,6.9453,6.9782,7.029,7.0889,7.0889,7.0889,7.0889,7.0889,7.0889,7.0889,7.0889,7.0889,7.0889,7.0889,7.0889,7.0889,7.0889,7.0889,7.0889,7.0889,7.0889,7.0889,7.0889,7.0889,7.0889,7.8079,7.7882,7.7413,7.5867,7.5608,7.5608,7.5608,7.4289,7.3323,7.3323,7.1887,7.0889,7.0889,7.0889,7.0889,7.0889,7.0889,7.0889,7.0889,7.0889,7.0889,7.0889,7.0889,7.0889,7.0889,7.0889,7.0889,7.0889,7.0889,7.0889,7.0889,7.0889,7.0889,7.0889,7.0889,7.0889,7.0889,7.0889,7.0889,7.0889,7.0889,7.0889,7.0889,7.0889,7.0889,7.0889,7.0889,7.0889,7.0889,7.0889,7.0889,7.0889,7.0889,7.0889,7.0889,7.0889,7.0889,7.0889,7.0889,7.0889,7.0889,7.0889,7.0889,7.0889,7.0889,7.0889,7.0889,7.0889,7.05,7.0143,7.0143,6.9662,6.9273,6.9153,6.9153,6.9123,6.9004,6.9004,6.9004,6.9004,6.9004,6.9004,6.9004,6.9004,6.9004,6.9004,6.9093,6.9153,6.9153,6.9782,7.0143,7.0143,7.0143,7.038,7.0889,7.0889,7.0889,7.0889,7.0889,7.0889,7.0889,7.0889,7.0889,7.0889,7.0889,7.0889,7.0889,7.0889,7.0889,7.0889,7.0889,7.0889,7.0889,7.0889,7.0889,7.0889,7.8178,7.7882,7.7413,7.5867,7.5608,7.5608,7.5608,7.4289,7.3323,7.3323,7.1887,7.0889,7.0889,7.0889,7.0889,7.0889,7.0889,7.0889,7.0889,7.0889,7.0889,7.0889,7.0889,7.0889,7.0889,7.0889,7.0889,7.0889,7.0889,7.0889,7.0889,7.0889,7.0889,7.0889,7.0889,7.0889,7.0889,7.0889,7.0889,7.0889,7.0889,7.0889,7.0889,7.0889,7.0889,7.0889,7.0889,7.0889,7.0889,7.0889,7.0889,7.0889,7.0889,7.0889,7.0889,7.0889,7.0889,7.0889,7.0889,7.0889,7.0889,7.0889,7.0889,7.0889,7.0889,7.0889,7.0889,7.0889,7.0829,7.0769,7.0769,7.0679,7.044,6.9901,6.9842,6.9632,6.9064,6.9004,6.9004,6.9004,6.9004,6.9004,6.9004,6.9004,6.9004,6.9004,6.9512,6.9842,6.9842,7.041,7.0769,7.0769,7.0769,7.0799,7.0889,7.0889,7.0889,7.0889,7.0889,7.0889,7.0889,7.0889,7.0889,7.0889,7.0889,7.0889,7.0889,7.0889,7.0889,7.0889,7.0889,7.0889,7.0889,7.0889,7.0889,7.0889,7.9288,7.9124,7.8908,7.8211,7.8104,7.8104,7.8104,7.6776,7.5781,7.5781,7.4753,7.3664,7.2786,7.2754,7.2434,7.1525,7.1098,7.0889,7.0889,7.0889,7.0889,7.0889,7.0889,7.0889,7.0889,7.0889,7.0889,7.0889,7.0889,7.0889,7.0889,7.0889,7.0889,7.0889,7.0889,7.0889,7.0889,7.0889,7.0889,7.0889,7.0889,7.0889,7.0889,7.0889,7.0889,7.0889,7.0889,7.0889,7.0889,7.0889,7.0889,7.0889,7.0889,7.0889,7.0889,7.0889,7.0889,7.0889,7.0889,7.0889,7.0889,7.0889,7.0889,7.0889,7.0889,7.0889,7.0889,7.0889,7.0889,7.0889,7.0889,7.0889,7.0799,7.053,7.047,7.038,7.0081,7.0021,7.0021,7.0021,7.0021,7.0021,7.0021,7.0021,7.0021,7.0021,7.032,7.047,7.047,7.0739,7.0889,7.0889,7.0889,7.0889,7.0889,7.0889,7.0889,7.0889,7.0889,7.0889,7.0889,7.0889,7.0889,7.0889,7.0889,7.0889,7.0889,7.0889,7.0889,7.0889,7.0889,7.0889,7.0889,7.0889,7.0889,7.0889,8.0445,8.0581,8.0716,8.0716,8.0716,8.0716,8.0716,7.9415,7.8403,7.8403,7.7548,7.6478,7.518,7.5119,7.4532,7.2841,7.2226,7.1763,7.14,7.1368,7.1248,7.0919,7.0889,7.0889,7.0889,7.0889,7.0889,7.0889,7.0889,7.0889,7.0889,7.0889,7.0889,7.0889,7.0889,7.0889,7.0889,7.0889,7.0889,7.0921,7.1311,7.1471,7.1503,7.2039,7.2004,7.1713,7.1864,7.1696,7.1403,7.1582,7.165,7.162,7.1501,7.1471,7.1375,7.1018,7.0889,7.0889,7.0889,7.0889,7.0889,7.0889,7.0889,7.0889,7.0889,7.0889,7.0889,7.0889,7.0889,7.0889,7.0889,7.0889,7.0889,7.0889,7.0889,7.0889,7.0889,7.0889,7.0889,7.0889,7.0889,7.0889,7.0889,7.0889,7.0889,7.0889,7.0889,7.0889,7.0889,7.0889,7.0889,7.0889,7.0889,7.0889,7.0889,7.0889,7.0889,7.0889,7.0889,7.0889,7.0889,7.0889,7.0889,7.0889,7.0889,7.0889,7.0889,7.0889,7.0889,7.0889,7.0889,7.0889,7.0889,7.0889,7.0889,7.0889,8.1215,8.1765,8.2238,8.2238,8.2238,8.2238,8.2238,8.0942,7.9947,7.9947,7.8643,7.7684,7.7566,7.7536,7.6877,7.5276,7.5056,7.4357,7.2844,7.2774,7.2206,7.0949,7.0889,7.0889,7.0889,7.0889,7.0889,7.0889,7.0889,7.0889,7.0889,7.0889,7.0889,7.0889,7.0889,7.0889,7.0889,7.0889,7.0889,7.1018,7.2518,7.3138,7.3354,7.5461,7.5323,7.4035,7.4747,7.4034,7.2887,7.3654,7.3942,7.3849,7.3293,7.3138,7.2829,7.1343,7.0889,7.0889,7.0889,7.0889,7.0889,7.0889,7.0889,7.0889,7.0889,7.0889,7.0889,7.0889,7.0889,7.0889,7.0889,7.0889,7.0889,7.0889,7.0889,7.0889,7.0889,7.0889,7.0889,7.0889,7.0889,7.0889,7.0889,7.0889,7.0889,7.0889,7.0889,7.0889,7.0889,7.0889,7.0889,7.0889,7.0889,7.0889,7.0889,7.0889,7.0889,7.0889,7.0889,7.0889,7.0889,7.0889,7.0889,7.0889,7.0889,7.0889,7.0889,7.0889,7.0889,7.0889,7.0889,7.0889,7.0889,7.0889,7.0889,7.0889,8.1968,8.2205,8.2408,8.2408,8.2408,8.2408,8.2408,8.1896,8.1518,8.1518,8.1394,8.0966,7.9974,7.9884,7.9277,7.7637,7.7103,7.6608,7.5994,7.5963,7.4775,7.2275,7.2146,7.2146,7.2146,7.2146,7.1936,7.1517,7.1517,7.1517,7.1517,7.1517,7.1727,7.2179,7.3166,7.3648,7.3712,7.4749,7.5181,7.5242,7.585,7.609,7.6182,7.7061,7.6979,7.6472,7.6755,7.6455,7.5993,7.6323,7.6408,7.6377,7.6153,7.609,7.5875,7.4802,7.3509,7.2393,7.2331,7.1633,7.0889,7.0889,7.0889,7.0889,7.0889,7.0889,7.0889,7.0889,7.0889,7.0889,7.0889,7.0889,7.0889,7.0889,7.0889,7.0889,7.0889,7.0889,7.0889,7.0889,7.0889,7.0889,7.0889,7.0889,7.0889,7.0889,7.0889,7.0889,7.0889,7.0889,7.0889,7.0889,7.0889,7.0889,7.0889,7.0889,7.0889,7.0889,7.0889,7.0889,7.0889,7.0889,7.0889,7.0889,7.0889,7.0889,7.0889,7.0889,7.0889,7.0889,7.0889,7.0889,7.0889,7.0889,7.0889,7.0889,8.2746,8.2923,8.3092,8.3092,8.3092,8.3092,8.3092,8.3092,8.3092,8.3092,8.3524,8.3423,8.2317,8.2234,8.1609,8.0021,7.9451,7.8954,7.8451,7.8421,7.702,7.3791,7.4154,7.4186,7.3693,7.4154,7.4199,7.3741,7.3741,7.3741,7.3741,7.3741,7.4017,7.4509,7.5589,7.6086,7.6179,7.7302,7.7778,7.7837,7.8306,7.851,7.86,7.9349,7.9271,7.8869,7.9095,7.8836,7.8448,7.8726,7.8836,7.8804,7.8607,7.8189,7.7714,7.7204,7.5567,7.3881,7.3664,7.2415,7.1158,7.0949,7.0889,7.0889,7.0889,7.0889,7.0889,7.0889,7.0889,7.0889,7.0889,7.0889,7.0889,7.0889,7.0889,7.0889,7.0889,7.0889,7.0889,7.0889,7.0889,7.0889,7.0889,7.0889,7.0889,7.0889,7.0889,7.0889,7.0889,7.0889,7.0889,7.0889,7.0889,7.0889,7.0889,7.0889,7.0889,7.0889,7.0889,7.0889,7.0889,7.0889,7.0889,7.0889,7.0889,7.0889,7.0889,7.0889,7.0889,7.0889,7.0889,7.0889,7.0889,7.0889,7.0889,7.0889,8.3524,8.4099,8.4614,8.4614,8.4614,8.4614,8.4614,8.4614,8.4614,8.4614,8.4614,8.4614,8.4614,8.4614,8.3981,8.2373,8.223,8.1563,7.9925,7.9834,7.8492,7.5495,7.6942,7.7063,7.537,7.6973,7.781,7.781,7.781,7.781,7.781,7.781,7.781,7.781,7.7839,7.7839,7.7839,7.7839,7.7869,7.7987,7.9519,8.0139,8.0377,8.265,8.2509,8.1209,8.1967,8.118,7.998,8.0828,8.1143,8.1012,8.0342,7.906,7.7837,7.7837,7.6638,7.5215,7.4625,7.321,7.176,7.1068,7.0889,7.0889,7.0889,7.0889,7.0889,7.0889,7.0889,7.0889,7.0889,7.0889,7.0889,7.0889,7.0889,7.0889,7.0889,7.0889,7.0889,7.0889,7.0889,7.0889,7.0889,7.0889,7.0889,7.0889,7.0889,7.0889,7.0889,7.0889,7.0889,7.0889,7.0889,7.0889,7.0889,7.0889,7.0889,7.0889,7.0889,7.0889,7.0889,7.0889,7.0889,7.0889,7.0889,7.0889,7.0889,7.0889,7.0889,7.0889,7.0889,7.0889,7.0889,7.0889,7.0889,7.0889,8.4275,8.4444,8.4614,8.4614,8.4614,8.4614,8.4614,8.4614,8.4614,8.4614,8.4614,8.4614,8.4614,8.4614,8.4419,8.392,8.3865,8.3701,8.3193,8.3166,8.226,8.0236,7.9522,7.8949,7.8461,7.8951,7.8967,7.8485,7.8485,7.8485,7.8485,7.8485,7.8741,7.9252,8.0383,8.0881,8.0967,8.2078,8.2588,8.2615,8.3059,8.3282,8.3309,8.4007,8.3975,8.3591,8.3826,8.3558,8.3221,8.3461,8.3557,8.3523,8.3322,8.2582,8.1788,8.1788,8.0307,7.8622,7.8456,7.6414,7.3736,7.1483,7.0889,7.0889,7.0889,7.0889,7.0889,7.0889,7.0889,7.0889,7.0889,7.0889,7.0889,7.0889,7.0889,7.0889,7.0889,7.0889,7.0889,7.0889,7.0889,7.0889,7.0889,7.0889,7.0889,7.0889,7.0889,7.0889,7.0889,7.0889,7.0889,7.0889,7.0889,7.0889,7.0889,7.0889,7.0889,7.0889,7.0889,7.0889,7.0889,7.0889,7.0889,7.0889,7.0889,7.0889,7.0889,7.0889,7.0889,7.0889,7.0889,7.0889,7.0889,7.0889,7.0889,7.0889,8.4614,8.4614,8.4614,8.4614,8.4614,8.4614,8.4614,8.4614,8.4614,8.4614,8.4614,8.4614,8.4614,8.4614,8.4614,8.4614,8.4614,8.4614,8.4614,8.4614,8.417,8.3166,8.2226,8.1414,8.0764,8.1356,8.1508,8.1078,8.1078,8.1078,8.1078,8.1078,8.1308,8.1734,8.2713,8.3138,8.3193,8.417,8.4614,8.4614,8.4614,8.4614,8.4614,8.4614,8.4614,8.4614,8.4614,8.4614,8.4614,8.4614,8.4614,8.4614,8.4614,8.4275,8.3964,8.3964,8.2534,8.0875,8.0606,7.8667,7.6181,7.4128,7.2464,7.1218,7.0949,7.0889,7.0889,7.0889,7.0889,7.0889,7.0889,7.0889,7.0889,7.0889,7.0889,7.0889,7.0889,7.0889,7.0889,7.0889,7.0889,7.0889,7.0889,7.0889,7.0889,7.0889,7.0889,7.0889,7.0889,7.0889,7.0889,7.0889,7.0889,7.0889,7.0889,7.0889,7.0889,7.0889,7.0889,7.0889,7.0889,7.0889,7.0889,7.0889,7.0889,7.0889,7.0889,7.0889,7.0889,7.0889,7.0889,7.0889,7.0889,7.0889,7.0889,7.0889,8.4614,8.4614,8.4614,8.4614,8.4614,8.4614,8.4614,8.4614,8.4614,8.4614,8.4614,8.4614,8.4614,8.4614,8.4614,8.4614,8.4614,8.4614,8.4614,8.4614,8.4614,8.4614,8.4614,8.3893,8.2458,8.3838,8.4614,8.4614,8.4614,8.4614,8.4614,8.4614,8.4614,8.4614,8.4614,8.4614,8.4614,8.4614,8.4614,8.4614,8.4614,8.4614,8.4614,8.4614,8.4614,8.4614,8.4614,8.4614,8.4614,8.4614,8.4614,8.4614,8.4614,8.4614,8.4614,8.4614,8.3558,8.2265,8.1689,8.0316,7.895,7.8273,7.5278,7.2305,7.142,7.1076,7.0979,7.0919,7.1018,7.1051,7.0921,7.1018,7.1083,7.0921,7.0889,7.0889,7.0889,7.0889,7.0889,7.0889,7.0889,7.0889,7.0889,7.0889,7.0889,7.0889,7.0889,7.0889,7.0889,7.0889,7.0889,7.0889,7.0889,7.0889,7.0889,7.0889,7.0889,7.0889,7.0889,7.0889,7.0889,7.0889,7.0889,7.0889,7.0889,7.0889,7.0889,7.0889,7.0889,7.0889,7.0889,7.0889,7.0889,7.0889,7.0889,7.0889,8.4614,8.4614,8.4614,8.4614,8.4614,8.4614,8.4614,8.4614,8.4614,8.4614,8.4614,8.4614,8.4614,8.4614,8.4614,8.4614,8.4614,8.4614,8.4614,8.4614,8.4614,8.4614,8.4614,8.4446,8.4089,8.4419,8.4614,8.4614,8.4614,8.4614,8.4614,8.4614,8.4614,8.4614,8.4614,8.4614,8.4614,8.4614,8.4614,8.4614,8.4614,8.4614,8.4614,8.4614,8.4614,8.4614,8.4614,8.4614,8.4614,8.4614,8.4614,8.4614,8.4614,8.4614,8.4614,8.4614,8.4366,8.4056,8.3914,8.271,8.1312,8.0615,7.8869,7.6646,7.419,7.2645,7.1517,7.1009,7.1857,7.2331,7.1148,7.1951,7.2361,7.1115,7.0889,7.0889,7.0889,7.0889,7.0889,7.0889,7.0889,7.0889,7.0889,7.0889,7.0889,7.0889,7.0889,7.0889,7.0889,7.0889,7.0889,7.0889,7.0889,7.0889,7.0889,7.0889,7.0889,7.0889,7.0889,7.0889,7.0889,7.0889,7.0889,7.0889,7.0889,7.0889,7.0889,7.0889,7.0889,7.0889,7.0889,7.0889,7.0889,7.0889,7.0889,7.0889,8.4614,8.4614,8.4614,8.4614,8.4614,8.4614,8.4614,8.4614,8.4614,8.4614,8.4614,8.4614,8.4614,8.4614,8.4614,8.4614,8.4614,8.4614,8.4614,8.4614,8.4614,8.4614,8.4614,8.4614,8.4614,8.4614,8.4614,8.4614,8.4614,8.4614,8.4614,8.4614,8.4614,8.4614,8.4614,8.4614,8.4614,8.4614,8.4614,8.4614,8.4614,8.4614,8.4614,8.4614,8.4614,8.4614,8.4614,8.4614,8.4614,8.4614,8.4614,8.4614,8.4614,8.4614,8.4614,8.4614,8.4614,8.4614,8.4614,8.4008,8.3265,8.292,8.1637,7.965,7.669,7.4717,7.355,7.3633,7.3073,7.2475,7.2108,7.211,7.211,7.2015,7.2015,7.2046,7.2046,7.2046,7.176,7.0986,7.0889,7.0889,7.0889,7.0889,7.0889,7.0889,7.0889,7.0889,7.0889,7.0889,7.0889,7.0889,7.0889,7.0889,7.0889,7.0889,7.0889,7.0889,7.0889,7.0889,7.0889,7.0889,7.0889,7.0889,7.0889,7.0889,7.0889,7.0889,7.0889,7.0889,7.0889,7.0889,7.0889,7.0889,7.0889,7.0889,8.4986,8.4986,8.4986,8.4986,8.4986,8.4986,8.4986,8.4986,8.4986,8.4986,8.4986,8.4952,8.4817,8.4681,8.4614,8.4614,8.4614,8.4614,8.4614,8.4614,8.4614,8.4614,8.4614,8.4614,8.4614,8.4614,8.4614,8.4614,8.4614,8.4614,8.4614,8.4614,8.4614,8.4614,8.4614,8.4614,8.4614,8.4614,8.4614,8.4614,8.4614,8.4614,8.4614,8.4614,8.4614,8.4614,8.4614,8.4614,8.4614,8.4614,8.4614,8.4614,8.4614,8.4614,8.4614,8.4614,8.4614,8.4614,8.4614,8.4614,8.4614,8.4614,8.3586,8.1986,7.9506,7.7376,7.6086,7.6749,7.478,7.3052,7.354,7.2669,7.2199,7.3231,7.3568,7.3688,7.3688,7.3445,7.2798,7.1471,7.1051,7.0889,7.0889,7.0889,7.0889,7.0889,7.0889,7.0889,7.0889,7.0889,7.0889,7.0889,7.0889,7.0889,7.0889,7.0889,7.0889,7.0889,7.0889,7.0889,7.0889,7.0889,7.0889,7.0889,7.0889,7.0889,7.0889,7.0889,7.0889,7.0889,7.0889,7.0889,7.0889,7.0889,7.0889,7.0889,8.6602,8.6602,8.6602,8.6602,8.6602,8.6602,8.6602,8.6602,8.6602,8.6602,8.6602,8.6366,8.5689,8.5046,8.4614,8.4614,8.4614,8.4614,8.4614,8.4614,8.4614,8.4614,8.4614,8.4614,8.4614,8.4614,8.4614,8.4614,8.4614,8.4614,8.4614,8.4614,8.4614,8.4614,8.4614,8.4614,8.4614,8.4614,8.4614,8.4614,8.4614,8.4614,8.4614,8.4614,8.4614,8.4614,8.4614,8.4614,8.4614,8.4614,8.4614,8.4614,8.4614,8.4614,8.4614,8.4614,8.4614,8.4614,8.4614,8.4614,8.4614,8.4614,8.4446,8.4191,8.3766,8.089,7.8183,7.7719,7.7264,7.6542,7.5247,7.5487,7.5439,7.4253,7.4755,7.529,7.529,7.4078,7.3138,7.2923,7.1728,7.0889,7.0889,7.0889,7.0889,7.0889,7.0889,7.0889,7.0889,7.0889,7.0889,7.0889,7.0889,7.0889,7.0889,7.0889,7.0889,7.0889,7.0889,7.0889,7.0889,7.0889,7.0889,7.0889,7.0889,7.0889,7.0889,7.0889,7.0889,7.0889,7.0889,7.0889,7.0889,7.0889,7.0889,7.0889,8.6907,8.6907,8.6907,8.6907,8.6907,8.6907,8.6907,8.6907,8.6907,8.6907,8.6907,8.6771,8.6433,8.6095,8.5865,8.5865,8.552,8.5283,8.5283,8.485,8.4614,8.4614,8.4614,8.4614,8.4614,8.4614,8.4614,8.4614,8.4614,8.4614,8.4614,8.4614,8.4614,8.4614,8.4614,8.4614,8.4614,8.4614,8.4614,8.4614,8.4614,8.4614,8.4614,8.4614,8.4614,8.4614,8.4614,8.4614,8.4614,8.4614,8.4614,8.4614,8.4614,8.4614,8.4614,8.4614,8.4614,8.4614,8.4614,8.4614,8.4614,8.4614,8.4614,8.4614,8.4614,8.3263,8.1849,8.1149,7.956,7.8258,7.8019,7.758,7.7329,7.7473,7.7499,7.7502,7.7502,7.652,7.517,7.3444,7.1857,7.0889,7.0889,7.0889,7.0889,7.0889,7.0889,7.0889,7.0889,7.0889,7.0889,7.0889,7.0889,7.0889,7.0889,7.0889,7.0889,7.0889,7.0889,7.0889,7.0889,7.0889,7.0889,7.0889,7.0889,7.0889,7.0889,7.0889,7.0889,7.0889,7.0889,7.0889,7.0889,7.0889,7.0889,7.0889]}]]